<?xml version="1.0" encoding="UTF-8" standalone="no" ?>
<gpx xmlns="http://www.topografix.com/GPX/1/1" xmlns:xsi="http://www.w3.org/2001/XMLSchema-instance" xsi:schemaLocation="http://www.topografix.com/GPX/1/1 http://www.topografix.com/GPX/1/1/gpx.xsd" version="1.1" creator="VisuGPX - https://www.visugpx.com">
  <metadata>
    <name>histoire d'aller se baigner a jumièges</name>
    <desc><![CDATA[Parcours vtt permettant de relier rouen à jumièges]]></desc>
  </metadata>
  <trk>
    <name><![CDATA[2018-07-07 21:10:15]]></name>
    <trkseg>
      <trkpt lat="49.44289" lon="1.08217">
        <ele>55.41</ele>
        <time>2018-07-07T15:27:53Z</time>
      </trkpt>
      <trkpt lat="49.44289" lon="1.08217">
        <ele>55.41</ele>
        <time>2018-07-07T15:27:54Z</time>
      </trkpt>
      <trkpt lat="49.44293" lon="1.08224">
        <ele>55.41</ele>
        <time>2018-07-07T15:28:10Z</time>
      </trkpt>
      <trkpt lat="49.44283" lon="1.08217">
        <ele>55.41</ele>
        <time>2018-07-07T15:28:23Z</time>
      </trkpt>
      <trkpt lat="49.44275" lon="1.08212">
        <ele>54.45</ele>
        <time>2018-07-07T15:28:35Z</time>
      </trkpt>
      <trkpt lat="49.44248" lon="1.08215">
        <ele>54.45</ele>
        <time>2018-07-07T15:28:46Z</time>
      </trkpt>
      <trkpt lat="49.44233" lon="1.08218">
        <ele>54.45</ele>
        <time>2018-07-07T15:28:50Z</time>
      </trkpt>
      <trkpt lat="49.44225" lon="1.08217">
        <ele>54.45</ele>
        <time>2018-07-07T15:28:52Z</time>
      </trkpt>
      <trkpt lat="49.4422" lon="1.08216">
        <ele>54.45</ele>
        <time>2018-07-07T15:28:53Z</time>
      </trkpt>
      <trkpt lat="49.44216" lon="1.08215">
        <ele>54.45</ele>
        <time>2018-07-07T15:28:54Z</time>
      </trkpt>
      <trkpt lat="49.44212" lon="1.08212">
        <ele>53.49</ele>
        <time>2018-07-07T15:28:55Z</time>
      </trkpt>
      <trkpt lat="49.44208" lon="1.0821">
        <ele>53.49</ele>
        <time>2018-07-07T15:28:56Z</time>
      </trkpt>
      <trkpt lat="49.44181" lon="1.08191">
        <ele>53.01</ele>
        <time>2018-07-07T15:29:03Z</time>
      </trkpt>
      <trkpt lat="49.44178" lon="1.08188">
        <ele>53.01</ele>
        <time>2018-07-07T15:29:04Z</time>
      </trkpt>
      <trkpt lat="49.44156" lon="1.08173">
        <ele>53.01</ele>
        <time>2018-07-07T15:29:10Z</time>
      </trkpt>
      <trkpt lat="49.44152" lon="1.08173">
        <ele>53.01</ele>
        <time>2018-07-07T15:29:11Z</time>
      </trkpt>
      <trkpt lat="49.44148" lon="1.08176">
        <ele>53.01</ele>
        <time>2018-07-07T15:29:12Z</time>
      </trkpt>
      <trkpt lat="49.44145" lon="1.0818">
        <ele>53.01</ele>
        <time>2018-07-07T15:29:13Z</time>
      </trkpt>
      <trkpt lat="49.44142" lon="1.08184">
        <ele>53.01</ele>
        <time>2018-07-07T15:29:14Z</time>
      </trkpt>
      <trkpt lat="49.4414" lon="1.08187">
        <ele>53.01</ele>
        <time>2018-07-07T15:29:15Z</time>
      </trkpt>
      <trkpt lat="49.44134" lon="1.08195">
        <ele>53.01</ele>
        <time>2018-07-07T15:29:17Z</time>
      </trkpt>
      <trkpt lat="49.44122" lon="1.08219">
        <ele>53.01</ele>
        <time>2018-07-07T15:29:21Z</time>
      </trkpt>
      <trkpt lat="49.44114" lon="1.08234">
        <ele>53.01</ele>
        <time>2018-07-07T15:29:24Z</time>
      </trkpt>
      <trkpt lat="49.44112" lon="1.08258">
        <ele>52.53</ele>
        <time>2018-07-07T15:29:31Z</time>
      </trkpt>
      <trkpt lat="49.44108" lon="1.08265">
        <ele>52.53</ele>
        <time>2018-07-07T15:29:34Z</time>
      </trkpt>
      <trkpt lat="49.44107" lon="1.08266">
        <ele>52.53</ele>
        <time>2018-07-07T15:29:35Z</time>
      </trkpt>
      <trkpt lat="49.44104" lon="1.08265">
        <ele>52.53</ele>
        <time>2018-07-07T15:29:36Z</time>
      </trkpt>
      <trkpt lat="49.44102" lon="1.08265">
        <ele>52.53</ele>
        <time>2018-07-07T15:29:37Z</time>
      </trkpt>
      <trkpt lat="49.441" lon="1.08266">
        <ele>52.53</ele>
        <time>2018-07-07T15:29:38Z</time>
      </trkpt>
      <trkpt lat="49.44098" lon="1.08267">
        <ele>52.53</ele>
        <time>2018-07-07T15:29:39Z</time>
      </trkpt>
      <trkpt lat="49.44095" lon="1.08268">
        <ele>52.05</ele>
        <time>2018-07-07T15:29:48Z</time>
      </trkpt>
      <trkpt lat="49.44093" lon="1.08266">
        <ele>52.05</ele>
        <time>2018-07-07T15:29:49Z</time>
      </trkpt>
      <trkpt lat="49.44092" lon="1.08264">
        <ele>52.05</ele>
        <time>2018-07-07T15:29:50Z</time>
      </trkpt>
      <trkpt lat="49.4409" lon="1.08262">
        <ele>52.05</ele>
        <time>2018-07-07T15:29:51Z</time>
      </trkpt>
      <trkpt lat="49.44088" lon="1.0826">
        <ele>52.05</ele>
        <time>2018-07-07T15:29:52Z</time>
      </trkpt>
      <trkpt lat="49.44085" lon="1.08258">
        <ele>52.05</ele>
        <time>2018-07-07T15:29:53Z</time>
      </trkpt>
      <trkpt lat="49.44083" lon="1.08255">
        <ele>52.05</ele>
        <time>2018-07-07T15:29:54Z</time>
      </trkpt>
      <trkpt lat="49.44081" lon="1.08252">
        <ele>52.05</ele>
        <time>2018-07-07T15:29:55Z</time>
      </trkpt>
      <trkpt lat="49.44077" lon="1.08245">
        <ele>52.05</ele>
        <time>2018-07-07T15:29:57Z</time>
      </trkpt>
      <trkpt lat="49.44077" lon="1.08238">
        <ele>51.57</ele>
        <time>2018-07-07T15:30:08Z</time>
      </trkpt>
      <trkpt lat="49.44075" lon="1.08236">
        <ele>51.57</ele>
        <time>2018-07-07T15:30:10Z</time>
      </trkpt>
      <trkpt lat="49.44074" lon="1.08233">
        <ele>51.57</ele>
        <time>2018-07-07T15:30:11Z</time>
      </trkpt>
      <trkpt lat="49.44072" lon="1.08231">
        <ele>51.57</ele>
        <time>2018-07-07T15:30:12Z</time>
      </trkpt>
      <trkpt lat="49.44071" lon="1.08229">
        <ele>51.57</ele>
        <time>2018-07-07T15:30:13Z</time>
      </trkpt>
      <trkpt lat="49.4407" lon="1.08225">
        <ele>51.57</ele>
        <time>2018-07-07T15:30:14Z</time>
      </trkpt>
      <trkpt lat="49.44071" lon="1.08223">
        <ele>51.57</ele>
        <time>2018-07-07T15:30:15Z</time>
      </trkpt>
      <trkpt lat="49.44072" lon="1.0822">
        <ele>51.57</ele>
        <time>2018-07-07T15:30:16Z</time>
      </trkpt>
      <trkpt lat="49.44076" lon="1.082">
        <ele>51.57</ele>
        <time>2018-07-07T15:30:21Z</time>
      </trkpt>
      <trkpt lat="49.44075" lon="1.08196">
        <ele>51.09</ele>
        <time>2018-07-07T15:30:22Z</time>
      </trkpt>
      <trkpt lat="49.4407" lon="1.08184">
        <ele>51.09</ele>
        <time>2018-07-07T15:30:24Z</time>
      </trkpt>
      <trkpt lat="49.44066" lon="1.08172">
        <ele>51.09</ele>
        <time>2018-07-07T15:30:26Z</time>
      </trkpt>
      <trkpt lat="49.44064" lon="1.08165">
        <ele>51.09</ele>
        <time>2018-07-07T15:30:27Z</time>
      </trkpt>
      <trkpt lat="49.44062" lon="1.08157">
        <ele>51.09</ele>
        <time>2018-07-07T15:30:28Z</time>
      </trkpt>
      <trkpt lat="49.44063" lon="1.08147">
        <ele>51.09</ele>
        <time>2018-07-07T15:30:29Z</time>
      </trkpt>
      <trkpt lat="49.44064" lon="1.0814">
        <ele>50.61</ele>
        <time>2018-07-07T15:30:30Z</time>
      </trkpt>
      <trkpt lat="49.44065" lon="1.08132">
        <ele>50.61</ele>
        <time>2018-07-07T15:30:31Z</time>
      </trkpt>
      <trkpt lat="49.4407" lon="1.08108">
        <ele>50.61</ele>
        <time>2018-07-07T15:30:34Z</time>
      </trkpt>
      <trkpt lat="49.44077" lon="1.08086">
        <ele>50.61</ele>
        <time>2018-07-07T15:30:37Z</time>
      </trkpt>
      <trkpt lat="49.44102" lon="1.08012">
        <ele>50.13</ele>
        <time>2018-07-07T15:30:49Z</time>
      </trkpt>
      <trkpt lat="49.44133" lon="1.07917">
        <ele>49.65</ele>
        <time>2018-07-07T15:31:03Z</time>
      </trkpt>
      <trkpt lat="49.44158" lon="1.07824">
        <ele>50.61</ele>
        <time>2018-07-07T15:31:16Z</time>
      </trkpt>
      <trkpt lat="49.44193" lon="1.0771">
        <ele>50.13</ele>
        <time>2018-07-07T15:31:32Z</time>
      </trkpt>
      <trkpt lat="49.44208" lon="1.07652">
        <ele>49.65</ele>
        <time>2018-07-07T15:31:40Z</time>
      </trkpt>
      <trkpt lat="49.44213" lon="1.0764">
        <ele>49.65</ele>
        <time>2018-07-07T15:31:42Z</time>
      </trkpt>
      <trkpt lat="49.44248" lon="1.07525">
        <ele>49.16</ele>
        <time>2018-07-07T15:31:59Z</time>
      </trkpt>
      <trkpt lat="49.44285" lon="1.07404">
        <ele>49.16</ele>
        <time>2018-07-07T15:32:18Z</time>
      </trkpt>
      <trkpt lat="49.44311" lon="1.07316">
        <ele>49.16</ele>
        <time>2018-07-07T15:32:31Z</time>
      </trkpt>
      <trkpt lat="49.44348" lon="1.07199">
        <ele>48.68</ele>
        <time>2018-07-07T15:32:47Z</time>
      </trkpt>
      <trkpt lat="49.4436" lon="1.07165">
        <ele>48.2</ele>
        <time>2018-07-07T15:32:52Z</time>
      </trkpt>
      <trkpt lat="49.44361" lon="1.07156">
        <ele>48.2</ele>
        <time>2018-07-07T15:32:53Z</time>
      </trkpt>
      <trkpt lat="49.44363" lon="1.07141">
        <ele>47.24</ele>
        <time>2018-07-07T15:32:55Z</time>
      </trkpt>
      <trkpt lat="49.44386" lon="1.07024">
        <ele>46.76</ele>
        <time>2018-07-07T15:33:10Z</time>
      </trkpt>
      <trkpt lat="49.44405" lon="1.0694">
        <ele>46.28</ele>
        <time>2018-07-07T15:33:21Z</time>
      </trkpt>
      <trkpt lat="49.44407" lon="1.06924">
        <ele>46.28</ele>
        <time>2018-07-07T15:33:23Z</time>
      </trkpt>
      <trkpt lat="49.44432" lon="1.06771">
        <ele>47.24</ele>
        <time>2018-07-07T15:33:42Z</time>
      </trkpt>
      <trkpt lat="49.44448" lon="1.06618">
        <ele>46.76</ele>
        <time>2018-07-07T15:34:01Z</time>
      </trkpt>
      <trkpt lat="49.44453" lon="1.0649">
        <ele>46.28</ele>
        <time>2018-07-07T15:34:17Z</time>
      </trkpt>
      <trkpt lat="49.44455" lon="1.0645">
        <ele>46.28</ele>
        <time>2018-07-07T15:34:22Z</time>
      </trkpt>
      <trkpt lat="49.44455" lon="1.06442">
        <ele>46.28</ele>
        <time>2018-07-07T15:34:23Z</time>
      </trkpt>
      <trkpt lat="49.44456" lon="1.06434">
        <ele>46.28</ele>
        <time>2018-07-07T15:34:24Z</time>
      </trkpt>
      <trkpt lat="49.44456" lon="1.06411">
        <ele>44.84</ele>
        <time>2018-07-07T15:34:27Z</time>
      </trkpt>
      <trkpt lat="49.44456" lon="1.06395">
        <ele>44.84</ele>
        <time>2018-07-07T15:34:29Z</time>
      </trkpt>
      <trkpt lat="49.44459" lon="1.06295">
        <ele>44.36</ele>
        <time>2018-07-07T15:34:42Z</time>
      </trkpt>
      <trkpt lat="49.44459" lon="1.06288">
        <ele>44.36</ele>
        <time>2018-07-07T15:34:43Z</time>
      </trkpt>
      <trkpt lat="49.4446" lon="1.0628">
        <ele>44.36</ele>
        <time>2018-07-07T15:34:44Z</time>
      </trkpt>
      <trkpt lat="49.44462" lon="1.06274">
        <ele>44.36</ele>
        <time>2018-07-07T15:34:45Z</time>
      </trkpt>
      <trkpt lat="49.44464" lon="1.06269">
        <ele>44.36</ele>
        <time>2018-07-07T15:34:46Z</time>
      </trkpt>
      <trkpt lat="49.44466" lon="1.06264">
        <ele>44.36</ele>
        <time>2018-07-07T15:34:47Z</time>
      </trkpt>
      <trkpt lat="49.44468" lon="1.0626">
        <ele>44.36</ele>
        <time>2018-07-07T15:34:48Z</time>
      </trkpt>
      <trkpt lat="49.4447" lon="1.06259">
        <ele>44.36</ele>
        <time>2018-07-07T15:34:49Z</time>
      </trkpt>
      <trkpt lat="49.44473" lon="1.0626">
        <ele>44.36</ele>
        <time>2018-07-07T15:34:50Z</time>
      </trkpt>
      <trkpt lat="49.44475" lon="1.06262">
        <ele>44.36</ele>
        <time>2018-07-07T15:34:51Z</time>
      </trkpt>
      <trkpt lat="49.44477" lon="1.06264">
        <ele>44.36</ele>
        <time>2018-07-07T15:34:52Z</time>
      </trkpt>
      <trkpt lat="49.4448" lon="1.06263">
        <ele>44.36</ele>
        <time>2018-07-07T15:34:53Z</time>
      </trkpt>
      <trkpt lat="49.44483" lon="1.06261">
        <ele>44.36</ele>
        <time>2018-07-07T15:34:54Z</time>
      </trkpt>
      <trkpt lat="49.44485" lon="1.06256">
        <ele>44.36</ele>
        <time>2018-07-07T15:34:55Z</time>
      </trkpt>
      <trkpt lat="49.44487" lon="1.0625">
        <ele>44.36</ele>
        <time>2018-07-07T15:34:56Z</time>
      </trkpt>
      <trkpt lat="49.4449" lon="1.06237">
        <ele>44.36</ele>
        <time>2018-07-07T15:34:58Z</time>
      </trkpt>
      <trkpt lat="49.44498" lon="1.06212">
        <ele>45.32</ele>
        <time>2018-07-07T15:35:02Z</time>
      </trkpt>
      <trkpt lat="49.44529" lon="1.06156">
        <ele>45.32</ele>
        <time>2018-07-07T15:35:12Z</time>
      </trkpt>
      <trkpt lat="49.44553" lon="1.06139">
        <ele>45.32</ele>
        <time>2018-07-07T15:35:17Z</time>
      </trkpt>
      <trkpt lat="49.44631" lon="1.0607">
        <ele>45.32</ele>
        <time>2018-07-07T15:35:35Z</time>
      </trkpt>
      <trkpt lat="49.44643" lon="1.06059">
        <ele>44.84</ele>
        <time>2018-07-07T15:35:38Z</time>
      </trkpt>
      <trkpt lat="49.44647" lon="1.06055">
        <ele>44.84</ele>
        <time>2018-07-07T15:35:39Z</time>
      </trkpt>
      <trkpt lat="49.44655" lon="1.06047">
        <ele>44.84</ele>
        <time>2018-07-07T15:35:41Z</time>
      </trkpt>
      <trkpt lat="49.44741" lon="1.05954">
        <ele>44.36</ele>
        <time>2018-07-07T15:36:01Z</time>
      </trkpt>
      <trkpt lat="49.44809" lon="1.05888">
        <ele>44.36</ele>
        <time>2018-07-07T15:36:16Z</time>
      </trkpt>
      <trkpt lat="49.44828" lon="1.05872">
        <ele>44.36</ele>
        <time>2018-07-07T15:36:20Z</time>
      </trkpt>
      <trkpt lat="49.4484" lon="1.05859">
        <ele>43.88</ele>
        <time>2018-07-07T15:36:23Z</time>
      </trkpt>
      <trkpt lat="49.44844" lon="1.05852">
        <ele>43.88</ele>
        <time>2018-07-07T15:36:24Z</time>
      </trkpt>
      <trkpt lat="49.44901" lon="1.05769">
        <ele>43.88</ele>
        <time>2018-07-07T15:36:38Z</time>
      </trkpt>
      <trkpt lat="49.44978" lon="1.05686">
        <ele>42.44</ele>
        <time>2018-07-07T15:36:55Z</time>
      </trkpt>
      <trkpt lat="49.45021" lon="1.05636">
        <ele>41.95</ele>
        <time>2018-07-07T15:37:05Z</time>
      </trkpt>
      <trkpt lat="49.45024" lon="1.0563">
        <ele>41.95</ele>
        <time>2018-07-07T15:37:06Z</time>
      </trkpt>
      <trkpt lat="49.45027" lon="1.05623">
        <ele>41.95</ele>
        <time>2018-07-07T15:37:07Z</time>
      </trkpt>
      <trkpt lat="49.45029" lon="1.05616">
        <ele>41.95</ele>
        <time>2018-07-07T15:37:08Z</time>
      </trkpt>
      <trkpt lat="49.45031" lon="1.05609">
        <ele>41.95</ele>
        <time>2018-07-07T15:37:09Z</time>
      </trkpt>
      <trkpt lat="49.45032" lon="1.05601">
        <ele>41.95</ele>
        <time>2018-07-07T15:37:10Z</time>
      </trkpt>
      <trkpt lat="49.45033" lon="1.05593">
        <ele>41.95</ele>
        <time>2018-07-07T15:37:11Z</time>
      </trkpt>
      <trkpt lat="49.45033" lon="1.05585">
        <ele>41.95</ele>
        <time>2018-07-07T15:37:12Z</time>
      </trkpt>
      <trkpt lat="49.45032" lon="1.05577">
        <ele>41.95</ele>
        <time>2018-07-07T15:37:13Z</time>
      </trkpt>
      <trkpt lat="49.45031" lon="1.05569">
        <ele>41.95</ele>
        <time>2018-07-07T15:37:14Z</time>
      </trkpt>
      <trkpt lat="49.45029" lon="1.05561">
        <ele>41.95</ele>
        <time>2018-07-07T15:37:15Z</time>
      </trkpt>
      <trkpt lat="49.45027" lon="1.05553">
        <ele>41.95</ele>
        <time>2018-07-07T15:37:16Z</time>
      </trkpt>
      <trkpt lat="49.45022" lon="1.05538">
        <ele>41.95</ele>
        <time>2018-07-07T15:37:18Z</time>
      </trkpt>
      <trkpt lat="49.45019" lon="1.05532">
        <ele>41.95</ele>
        <time>2018-07-07T15:37:19Z</time>
      </trkpt>
      <trkpt lat="49.45007" lon="1.05503">
        <ele>41.95</ele>
        <time>2018-07-07T15:37:23Z</time>
      </trkpt>
      <trkpt lat="49.45005" lon="1.05495">
        <ele>41.95</ele>
        <time>2018-07-07T15:37:24Z</time>
      </trkpt>
      <trkpt lat="49.44979" lon="1.05349">
        <ele>41.47</ele>
        <time>2018-07-07T15:37:42Z</time>
      </trkpt>
      <trkpt lat="49.44957" lon="1.05231">
        <ele>40.99</ele>
        <time>2018-07-07T15:37:57Z</time>
      </trkpt>
      <trkpt lat="49.44954" lon="1.05215">
        <ele>40.99</ele>
        <time>2018-07-07T15:37:59Z</time>
      </trkpt>
      <trkpt lat="49.44952" lon="1.05207">
        <ele>40.99</ele>
        <time>2018-07-07T15:38:00Z</time>
      </trkpt>
      <trkpt lat="49.44951" lon="1.05199">
        <ele>40.99</ele>
        <time>2018-07-07T15:38:01Z</time>
      </trkpt>
      <trkpt lat="49.44946" lon="1.05176">
        <ele>40.99</ele>
        <time>2018-07-07T15:38:04Z</time>
      </trkpt>
      <trkpt lat="49.44944" lon="1.05169">
        <ele>40.99</ele>
        <time>2018-07-07T15:38:05Z</time>
      </trkpt>
      <trkpt lat="49.44908" lon="1.05085">
        <ele>40.51</ele>
        <time>2018-07-07T15:38:17Z</time>
      </trkpt>
      <trkpt lat="49.44898" lon="1.05064">
        <ele>40.51</ele>
        <time>2018-07-07T15:38:20Z</time>
      </trkpt>
      <trkpt lat="49.44891" lon="1.05033">
        <ele>41.95</ele>
        <time>2018-07-07T15:38:24Z</time>
      </trkpt>
      <trkpt lat="49.44891" lon="1.05027">
        <ele>41.95</ele>
        <time>2018-07-07T15:38:25Z</time>
      </trkpt>
      <trkpt lat="49.44893" lon="1.05021">
        <ele>41.95</ele>
        <time>2018-07-07T15:38:26Z</time>
      </trkpt>
      <trkpt lat="49.44896" lon="1.05018">
        <ele>41.95</ele>
        <time>2018-07-07T15:38:27Z</time>
      </trkpt>
      <trkpt lat="49.44899" lon="1.05016">
        <ele>41.95</ele>
        <time>2018-07-07T15:38:28Z</time>
      </trkpt>
      <trkpt lat="49.44902" lon="1.05016">
        <ele>41.95</ele>
        <time>2018-07-07T15:38:29Z</time>
      </trkpt>
      <trkpt lat="49.44906" lon="1.05015">
        <ele>42.44</ele>
        <time>2018-07-07T15:38:30Z</time>
      </trkpt>
      <trkpt lat="49.44917" lon="1.05014">
        <ele>42.44</ele>
        <time>2018-07-07T15:38:34Z</time>
      </trkpt>
      <trkpt lat="49.44918" lon="1.05011">
        <ele>41.95</ele>
        <time>2018-07-07T15:38:35Z</time>
      </trkpt>
      <trkpt lat="49.44917" lon="1.05009">
        <ele>41.95</ele>
        <time>2018-07-07T15:38:36Z</time>
      </trkpt>
      <trkpt lat="49.44915" lon="1.05008">
        <ele>41.95</ele>
        <time>2018-07-07T15:38:37Z</time>
      </trkpt>
      <trkpt lat="49.44914" lon="1.05008">
        <ele>41.95</ele>
        <time>2018-07-07T15:38:38Z</time>
      </trkpt>
      <trkpt lat="49.44912" lon="1.05009">
        <ele>41.95</ele>
        <time>2018-07-07T15:38:39Z</time>
      </trkpt>
      <trkpt lat="49.4491" lon="1.05008">
        <ele>41.95</ele>
        <time>2018-07-07T15:38:40Z</time>
      </trkpt>
      <trkpt lat="49.44909" lon="1.05006">
        <ele>41.95</ele>
        <time>2018-07-07T15:38:41Z</time>
      </trkpt>
      <trkpt lat="49.44908" lon="1.05004">
        <ele>41.95</ele>
        <time>2018-07-07T15:38:42Z</time>
      </trkpt>
      <trkpt lat="49.44905" lon="1.05002">
        <ele>41.95</ele>
        <time>2018-07-07T15:38:43Z</time>
      </trkpt>
      <trkpt lat="49.44902" lon="1.05001">
        <ele>41.95</ele>
        <time>2018-07-07T15:38:44Z</time>
      </trkpt>
      <trkpt lat="49.44899" lon="1.04998">
        <ele>41.95</ele>
        <time>2018-07-07T15:38:45Z</time>
      </trkpt>
      <trkpt lat="49.44846" lon="1.04949">
        <ele>41.95</ele>
        <time>2018-07-07T15:38:57Z</time>
      </trkpt>
      <trkpt lat="49.44764" lon="1.04876">
        <ele>41.47</ele>
        <time>2018-07-07T15:39:14Z</time>
      </trkpt>
      <trkpt lat="49.4469" lon="1.04811">
        <ele>40.99</ele>
        <time>2018-07-07T15:39:29Z</time>
      </trkpt>
      <trkpt lat="49.44597" lon="1.04767">
        <ele>40.99</ele>
        <time>2018-07-07T15:39:46Z</time>
      </trkpt>
      <trkpt lat="49.44516" lon="1.04695">
        <ele>39.55</ele>
        <time>2018-07-07T15:40:02Z</time>
      </trkpt>
      <trkpt lat="49.44428" lon="1.04616">
        <ele>40.51</ele>
        <time>2018-07-07T15:40:18Z</time>
      </trkpt>
      <trkpt lat="49.44326" lon="1.04522">
        <ele>40.03</ele>
        <time>2018-07-07T15:40:35Z</time>
      </trkpt>
      <trkpt lat="49.44236" lon="1.04441">
        <ele>40.03</ele>
        <time>2018-07-07T15:40:50Z</time>
      </trkpt>
      <trkpt lat="49.44136" lon="1.0435">
        <ele>40.03</ele>
        <time>2018-07-07T15:41:07Z</time>
      </trkpt>
      <trkpt lat="49.44062" lon="1.04267">
        <ele>40.03</ele>
        <time>2018-07-07T15:41:21Z</time>
      </trkpt>
      <trkpt lat="49.44015" lon="1.04194">
        <ele>39.55</ele>
        <time>2018-07-07T15:41:31Z</time>
      </trkpt>
      <trkpt lat="49.44011" lon="1.04184">
        <ele>39.55</ele>
        <time>2018-07-07T15:41:32Z</time>
      </trkpt>
      <trkpt lat="49.44007" lon="1.04173">
        <ele>39.55</ele>
        <time>2018-07-07T15:41:33Z</time>
      </trkpt>
      <trkpt lat="49.44003" lon="1.04163">
        <ele>39.55</ele>
        <time>2018-07-07T15:41:34Z</time>
      </trkpt>
      <trkpt lat="49.43998" lon="1.04153">
        <ele>39.55</ele>
        <time>2018-07-07T15:41:35Z</time>
      </trkpt>
      <trkpt lat="49.43994" lon="1.04143">
        <ele>39.55</ele>
        <time>2018-07-07T15:41:36Z</time>
      </trkpt>
      <trkpt lat="49.43924" lon="1.03943">
        <ele>38.11</ele>
        <time>2018-07-07T15:41:56Z</time>
      </trkpt>
      <trkpt lat="49.43867" lon="1.03773">
        <ele>38.11</ele>
        <time>2018-07-07T15:42:13Z</time>
      </trkpt>
      <trkpt lat="49.43861" lon="1.03744">
        <ele>37.63</ele>
        <time>2018-07-07T15:42:16Z</time>
      </trkpt>
      <trkpt lat="49.43857" lon="1.03736">
        <ele>37.63</ele>
        <time>2018-07-07T15:42:17Z</time>
      </trkpt>
      <trkpt lat="49.43853" lon="1.0373">
        <ele>37.63</ele>
        <time>2018-07-07T15:42:18Z</time>
      </trkpt>
      <trkpt lat="49.4384" lon="1.03708">
        <ele>37.63</ele>
        <time>2018-07-07T15:42:23Z</time>
      </trkpt>
      <trkpt lat="49.43841" lon="1.03706">
        <ele>37.63</ele>
        <time>2018-07-07T15:42:24Z</time>
      </trkpt>
      <trkpt lat="49.43841" lon="1.03702">
        <ele>37.63</ele>
        <time>2018-07-07T15:42:25Z</time>
      </trkpt>
      <trkpt lat="49.43843" lon="1.03698">
        <ele>37.63</ele>
        <time>2018-07-07T15:42:26Z</time>
      </trkpt>
      <trkpt lat="49.43845" lon="1.03695">
        <ele>37.63</ele>
        <time>2018-07-07T15:42:27Z</time>
      </trkpt>
      <trkpt lat="49.43855" lon="1.03689">
        <ele>37.63</ele>
        <time>2018-07-07T15:42:30Z</time>
      </trkpt>
      <trkpt lat="49.43859" lon="1.03689">
        <ele>37.63</ele>
        <time>2018-07-07T15:42:31Z</time>
      </trkpt>
      <trkpt lat="49.43863" lon="1.0369">
        <ele>37.63</ele>
        <time>2018-07-07T15:42:32Z</time>
      </trkpt>
      <trkpt lat="49.43868" lon="1.03689">
        <ele>37.63</ele>
        <time>2018-07-07T15:42:33Z</time>
      </trkpt>
      <trkpt lat="49.43873" lon="1.03688">
        <ele>37.63</ele>
        <time>2018-07-07T15:42:34Z</time>
      </trkpt>
      <trkpt lat="49.43878" lon="1.03687">
        <ele>37.63</ele>
        <time>2018-07-07T15:42:35Z</time>
      </trkpt>
      <trkpt lat="49.43883" lon="1.03689">
        <ele>37.63</ele>
        <time>2018-07-07T15:42:36Z</time>
      </trkpt>
      <trkpt lat="49.43898" lon="1.03701">
        <ele>37.63</ele>
        <time>2018-07-07T15:42:39Z</time>
      </trkpt>
      <trkpt lat="49.43956" lon="1.03767">
        <ele>38.59</ele>
        <time>2018-07-07T15:42:55Z</time>
      </trkpt>
      <trkpt lat="49.44003" lon="1.03801">
        <ele>40.51</ele>
        <time>2018-07-07T15:43:10Z</time>
      </trkpt>
      <trkpt lat="49.4404" lon="1.03829">
        <ele>42.44</ele>
        <time>2018-07-07T15:43:24Z</time>
      </trkpt>
      <trkpt lat="49.44088" lon="1.03861">
        <ele>44.84</ele>
        <time>2018-07-07T15:43:41Z</time>
      </trkpt>
      <trkpt lat="49.44119" lon="1.03891">
        <ele>47.24</ele>
        <time>2018-07-07T15:43:55Z</time>
      </trkpt>
      <trkpt lat="49.44152" lon="1.03931">
        <ele>49.65</ele>
        <time>2018-07-07T15:44:11Z</time>
      </trkpt>
      <trkpt lat="49.44165" lon="1.03902">
        <ele>51.09</ele>
        <time>2018-07-07T15:44:21Z</time>
      </trkpt>
      <trkpt lat="49.44138" lon="1.03854">
        <ele>53.01</ele>
        <time>2018-07-07T15:44:36Z</time>
      </trkpt>
      <trkpt lat="49.44126" lon="1.03796">
        <ele>55.89</ele>
        <time>2018-07-07T15:44:51Z</time>
      </trkpt>
      <trkpt lat="49.44112" lon="1.03736">
        <ele>58.78</ele>
        <time>2018-07-07T15:45:07Z</time>
      </trkpt>
      <trkpt lat="49.44078" lon="1.03696">
        <ele>61.66</ele>
        <time>2018-07-07T15:45:23Z</time>
      </trkpt>
      <trkpt lat="49.44053" lon="1.03665">
        <ele>64.07</ele>
        <time>2018-07-07T15:45:35Z</time>
      </trkpt>
      <trkpt lat="49.44031" lon="1.03613">
        <ele>66.47</ele>
        <time>2018-07-07T15:45:50Z</time>
      </trkpt>
      <trkpt lat="49.4402" lon="1.03557">
        <ele>69.35</ele>
        <time>2018-07-07T15:46:05Z</time>
      </trkpt>
      <trkpt lat="49.44021" lon="1.03545">
        <ele>69.83</ele>
        <time>2018-07-07T15:46:08Z</time>
      </trkpt>
      <trkpt lat="49.44021" lon="1.03542">
        <ele>70.31</ele>
        <time>2018-07-07T15:46:09Z</time>
      </trkpt>
      <trkpt lat="49.44036" lon="1.03481">
        <ele>73.2</ele>
        <time>2018-07-07T15:46:26Z</time>
      </trkpt>
      <trkpt lat="49.44053" lon="1.03423">
        <ele>76.08</ele>
        <time>2018-07-07T15:46:42Z</time>
      </trkpt>
      <trkpt lat="49.44071" lon="1.03358">
        <ele>79.45</ele>
        <time>2018-07-07T15:47:00Z</time>
      </trkpt>
      <trkpt lat="49.44081" lon="1.03322">
        <ele>81.37</ele>
        <time>2018-07-07T15:47:10Z</time>
      </trkpt>
      <trkpt lat="49.44081" lon="1.03318">
        <ele>81.37</ele>
        <time>2018-07-07T15:47:11Z</time>
      </trkpt>
      <trkpt lat="49.44082" lon="1.03315">
        <ele>81.85</ele>
        <time>2018-07-07T15:47:12Z</time>
      </trkpt>
      <trkpt lat="49.44092" lon="1.03263">
        <ele>83.77</ele>
        <time>2018-07-07T15:47:27Z</time>
      </trkpt>
      <trkpt lat="49.44109" lon="1.03218">
        <ele>86.66</ele>
        <time>2018-07-07T15:47:41Z</time>
      </trkpt>
      <trkpt lat="49.44123" lon="1.03175">
        <ele>89.54</ele>
        <time>2018-07-07T15:47:55Z</time>
      </trkpt>
      <trkpt lat="49.44127" lon="1.03159">
        <ele>90.5</ele>
        <time>2018-07-07T15:48:00Z</time>
      </trkpt>
      <trkpt lat="49.4412" lon="1.03115">
        <ele>91.94</ele>
        <time>2018-07-07T15:48:12Z</time>
      </trkpt>
      <trkpt lat="49.44094" lon="1.03084">
        <ele>94.35</ele>
        <time>2018-07-07T15:48:25Z</time>
      </trkpt>
      <trkpt lat="49.44069" lon="1.03049">
        <ele>96.27</ele>
        <time>2018-07-07T15:48:39Z</time>
      </trkpt>
      <trkpt lat="49.44039" lon="1.03011">
        <ele>99.15</ele>
        <time>2018-07-07T15:48:55Z</time>
      </trkpt>
      <trkpt lat="49.44007" lon="1.02981">
        <ele>101.08</ele>
        <time>2018-07-07T15:49:11Z</time>
      </trkpt>
      <trkpt lat="49.44008" lon="1.02974">
        <ele>101.56</ele>
        <time>2018-07-07T15:49:13Z</time>
      </trkpt>
      <trkpt lat="49.44009" lon="1.02971">
        <ele>101.56</ele>
        <time>2018-07-07T15:49:14Z</time>
      </trkpt>
      <trkpt lat="49.44011" lon="1.02968">
        <ele>101.56</ele>
        <time>2018-07-07T15:49:15Z</time>
      </trkpt>
      <trkpt lat="49.44013" lon="1.02967">
        <ele>101.56</ele>
        <time>2018-07-07T15:49:16Z</time>
      </trkpt>
      <trkpt lat="49.44016" lon="1.02966">
        <ele>102.04</ele>
        <time>2018-07-07T15:49:17Z</time>
      </trkpt>
      <trkpt lat="49.44019" lon="1.02967">
        <ele>102.04</ele>
        <time>2018-07-07T15:49:18Z</time>
      </trkpt>
      <trkpt lat="49.44021" lon="1.02968">
        <ele>102.52</ele>
        <time>2018-07-07T15:49:19Z</time>
      </trkpt>
      <trkpt lat="49.44051" lon="1.02992">
        <ele>104.92</ele>
        <time>2018-07-07T15:49:33Z</time>
      </trkpt>
      <trkpt lat="49.44083" lon="1.03014">
        <ele>107.81</ele>
        <time>2018-07-07T15:49:48Z</time>
      </trkpt>
      <trkpt lat="49.44116" lon="1.03031">
        <ele>111.17</ele>
        <time>2018-07-07T15:50:04Z</time>
      </trkpt>
      <trkpt lat="49.44137" lon="1.03033">
        <ele>112.13</ele>
        <time>2018-07-07T15:50:14Z</time>
      </trkpt>
      <trkpt lat="49.44176" lon="1.03037">
        <ele>114.05</ele>
        <time>2018-07-07T15:50:29Z</time>
      </trkpt>
      <trkpt lat="49.44206" lon="1.03079">
        <ele>116.94</ele>
        <time>2018-07-07T15:50:44Z</time>
      </trkpt>
      <trkpt lat="49.44223" lon="1.03125">
        <ele>118.86</ele>
        <time>2018-07-07T15:50:59Z</time>
      </trkpt>
      <trkpt lat="49.44229" lon="1.03167">
        <ele>121.26</ele>
        <time>2018-07-07T15:51:12Z</time>
      </trkpt>
      <trkpt lat="49.44213" lon="1.03212">
        <ele>123.19</ele>
        <time>2018-07-07T15:51:25Z</time>
      </trkpt>
      <trkpt lat="49.44187" lon="1.03261">
        <ele>125.59</ele>
        <time>2018-07-07T15:51:41Z</time>
      </trkpt>
      <trkpt lat="49.44184" lon="1.03306">
        <ele>127.51</ele>
        <time>2018-07-07T15:51:54Z</time>
      </trkpt>
      <trkpt lat="49.44214" lon="1.03323">
        <ele>129.92</ele>
        <time>2018-07-07T15:52:08Z</time>
      </trkpt>
      <trkpt lat="49.44238" lon="1.0329">
        <ele>132.32</ele>
        <time>2018-07-07T15:52:21Z</time>
      </trkpt>
      <trkpt lat="49.44264" lon="1.03251">
        <ele>135.2</ele>
        <time>2018-07-07T15:52:36Z</time>
      </trkpt>
      <trkpt lat="49.44284" lon="1.03185">
        <ele>138.09</ele>
        <time>2018-07-07T15:52:54Z</time>
      </trkpt>
      <trkpt lat="49.443" lon="1.03113">
        <ele>139.53</ele>
        <time>2018-07-07T15:53:13Z</time>
      </trkpt>
      <trkpt lat="49.44312" lon="1.0309">
        <ele>140.01</ele>
        <time>2018-07-07T15:53:25Z</time>
      </trkpt>
      <trkpt lat="49.44314" lon="1.03085">
        <ele>140.49</ele>
        <time>2018-07-07T15:53:30Z</time>
      </trkpt>
      <trkpt lat="49.44314" lon="1.03082">
        <ele>140.49</ele>
        <time>2018-07-07T15:53:31Z</time>
      </trkpt>
      <trkpt lat="49.44313" lon="1.03078">
        <ele>140.49</ele>
        <time>2018-07-07T15:53:32Z</time>
      </trkpt>
      <trkpt lat="49.44312" lon="1.03076">
        <ele>140.49</ele>
        <time>2018-07-07T15:53:33Z</time>
      </trkpt>
      <trkpt lat="49.4431" lon="1.03072">
        <ele>140.49</ele>
        <time>2018-07-07T15:53:34Z</time>
      </trkpt>
      <trkpt lat="49.44308" lon="1.03068">
        <ele>140.49</ele>
        <time>2018-07-07T15:53:35Z</time>
      </trkpt>
      <trkpt lat="49.4429" lon="1.03037">
        <ele>140.49</ele>
        <time>2018-07-07T15:53:41Z</time>
      </trkpt>
      <trkpt lat="49.44287" lon="1.0303">
        <ele>140.49</ele>
        <time>2018-07-07T15:53:42Z</time>
      </trkpt>
      <trkpt lat="49.44284" lon="1.03023">
        <ele>140.49</ele>
        <time>2018-07-07T15:53:43Z</time>
      </trkpt>
      <trkpt lat="49.44282" lon="1.03015">
        <ele>140.49</ele>
        <time>2018-07-07T15:53:44Z</time>
      </trkpt>
      <trkpt lat="49.44281" lon="1.03006">
        <ele>140.49</ele>
        <time>2018-07-07T15:53:45Z</time>
      </trkpt>
      <trkpt lat="49.4428" lon="1.02998">
        <ele>140.49</ele>
        <time>2018-07-07T15:53:46Z</time>
      </trkpt>
      <trkpt lat="49.44281" lon="1.02989">
        <ele>140.49</ele>
        <time>2018-07-07T15:53:47Z</time>
      </trkpt>
      <trkpt lat="49.44282" lon="1.0298">
        <ele>140.49</ele>
        <time>2018-07-07T15:53:48Z</time>
      </trkpt>
      <trkpt lat="49.44285" lon="1.02972">
        <ele>140.49</ele>
        <time>2018-07-07T15:53:49Z</time>
      </trkpt>
      <trkpt lat="49.44288" lon="1.02964">
        <ele>140.49</ele>
        <time>2018-07-07T15:53:50Z</time>
      </trkpt>
      <trkpt lat="49.44291" lon="1.02957">
        <ele>140.49</ele>
        <time>2018-07-07T15:53:51Z</time>
      </trkpt>
      <trkpt lat="49.44294" lon="1.02949">
        <ele>140.49</ele>
        <time>2018-07-07T15:53:52Z</time>
      </trkpt>
      <trkpt lat="49.44296" lon="1.02942">
        <ele>140.49</ele>
        <time>2018-07-07T15:53:53Z</time>
      </trkpt>
      <trkpt lat="49.44298" lon="1.02935">
        <ele>140.49</ele>
        <time>2018-07-07T15:53:54Z</time>
      </trkpt>
      <trkpt lat="49.44299" lon="1.02925">
        <ele>140.49</ele>
        <time>2018-07-07T15:53:55Z</time>
      </trkpt>
      <trkpt lat="49.443" lon="1.02916">
        <ele>140.49</ele>
        <time>2018-07-07T15:53:56Z</time>
      </trkpt>
      <trkpt lat="49.44301" lon="1.02907">
        <ele>140.49</ele>
        <time>2018-07-07T15:53:57Z</time>
      </trkpt>
      <trkpt lat="49.44302" lon="1.02899">
        <ele>140.49</ele>
        <time>2018-07-07T15:53:58Z</time>
      </trkpt>
      <trkpt lat="49.44305" lon="1.02881">
        <ele>140.49</ele>
        <time>2018-07-07T15:54:00Z</time>
      </trkpt>
      <trkpt lat="49.44307" lon="1.02876">
        <ele>140.49</ele>
        <time>2018-07-07T15:54:01Z</time>
      </trkpt>
      <trkpt lat="49.44311" lon="1.02871">
        <ele>140.49</ele>
        <time>2018-07-07T15:54:02Z</time>
      </trkpt>
      <trkpt lat="49.44323" lon="1.02856">
        <ele>140.49</ele>
        <time>2018-07-07T15:54:05Z</time>
      </trkpt>
      <trkpt lat="49.44358" lon="1.0279">
        <ele>140.97</ele>
        <time>2018-07-07T15:54:17Z</time>
      </trkpt>
      <trkpt lat="49.44374" lon="1.02759">
        <ele>140.49</ele>
        <time>2018-07-07T15:54:23Z</time>
      </trkpt>
      <trkpt lat="49.44378" lon="1.02754">
        <ele>140.49</ele>
        <time>2018-07-07T15:54:24Z</time>
      </trkpt>
      <trkpt lat="49.44381" lon="1.02748">
        <ele>140.49</ele>
        <time>2018-07-07T15:54:25Z</time>
      </trkpt>
      <trkpt lat="49.44402" lon="1.02719">
        <ele>140.97</ele>
        <time>2018-07-07T15:54:30Z</time>
      </trkpt>
      <trkpt lat="49.44421" lon="1.02701">
        <ele>140.97</ele>
        <time>2018-07-07T15:54:34Z</time>
      </trkpt>
      <trkpt lat="49.44493" lon="1.02652">
        <ele>140.01</ele>
        <time>2018-07-07T15:54:47Z</time>
      </trkpt>
      <trkpt lat="49.44498" lon="1.02648">
        <ele>140.01</ele>
        <time>2018-07-07T15:54:48Z</time>
      </trkpt>
      <trkpt lat="49.4451" lon="1.02639">
        <ele>140.01</ele>
        <time>2018-07-07T15:54:50Z</time>
      </trkpt>
      <trkpt lat="49.4452" lon="1.02625">
        <ele>139.05</ele>
        <time>2018-07-07T15:54:52Z</time>
      </trkpt>
      <trkpt lat="49.44534" lon="1.02601">
        <ele>139.05</ele>
        <time>2018-07-07T15:54:55Z</time>
      </trkpt>
      <trkpt lat="49.44566" lon="1.02536">
        <ele>137.61</ele>
        <time>2018-07-07T15:55:02Z</time>
      </trkpt>
      <trkpt lat="49.44573" lon="1.02529">
        <ele>137.61</ele>
        <time>2018-07-07T15:55:03Z</time>
      </trkpt>
      <trkpt lat="49.44662" lon="1.02449">
        <ele>134.72</ele>
        <time>2018-07-07T15:55:16Z</time>
      </trkpt>
      <trkpt lat="49.44682" lon="1.02432">
        <ele>133.76</ele>
        <time>2018-07-07T15:55:19Z</time>
      </trkpt>
      <trkpt lat="49.44686" lon="1.0243">
        <ele>133.28</ele>
        <time>2018-07-07T15:55:20Z</time>
      </trkpt>
      <trkpt lat="49.4469" lon="1.02429">
        <ele>133.28</ele>
        <time>2018-07-07T15:55:21Z</time>
      </trkpt>
      <trkpt lat="49.44693" lon="1.02426">
        <ele>133.28</ele>
        <time>2018-07-07T15:55:22Z</time>
      </trkpt>
      <trkpt lat="49.44695" lon="1.0242">
        <ele>133.28</ele>
        <time>2018-07-07T15:55:23Z</time>
      </trkpt>
      <trkpt lat="49.44696" lon="1.02413">
        <ele>132.8</ele>
        <time>2018-07-07T15:55:24Z</time>
      </trkpt>
      <trkpt lat="49.44697" lon="1.02406">
        <ele>132.8</ele>
        <time>2018-07-07T15:55:25Z</time>
      </trkpt>
      <trkpt lat="49.44701" lon="1.02292">
        <ele>132.32</ele>
        <time>2018-07-07T15:55:37Z</time>
      </trkpt>
      <trkpt lat="49.447" lon="1.02282">
        <ele>131.84</ele>
        <time>2018-07-07T15:55:38Z</time>
      </trkpt>
      <trkpt lat="49.44698" lon="1.02264">
        <ele>131.84</ele>
        <time>2018-07-07T15:55:40Z</time>
      </trkpt>
      <trkpt lat="49.44699" lon="1.02255">
        <ele>131.84</ele>
        <time>2018-07-07T15:55:41Z</time>
      </trkpt>
      <trkpt lat="49.44702" lon="1.02238">
        <ele>131.84</ele>
        <time>2018-07-07T15:55:43Z</time>
      </trkpt>
      <trkpt lat="49.44705" lon="1.02199">
        <ele>132.8</ele>
        <time>2018-07-07T15:55:48Z</time>
      </trkpt>
      <trkpt lat="49.44708" lon="1.02169">
        <ele>132.8</ele>
        <time>2018-07-07T15:55:52Z</time>
      </trkpt>
      <trkpt lat="49.44722" lon="1.02106">
        <ele>133.76</ele>
        <time>2018-07-07T15:56:02Z</time>
      </trkpt>
      <trkpt lat="49.44722" lon="1.02103">
        <ele>134.24</ele>
        <time>2018-07-07T15:56:03Z</time>
      </trkpt>
      <trkpt lat="49.4472" lon="1.021">
        <ele>134.24</ele>
        <time>2018-07-07T15:56:04Z</time>
      </trkpt>
      <trkpt lat="49.44719" lon="1.02099">
        <ele>134.24</ele>
        <time>2018-07-07T15:56:05Z</time>
      </trkpt>
      <trkpt lat="49.44718" lon="1.02096">
        <ele>134.24</ele>
        <time>2018-07-07T15:56:06Z</time>
      </trkpt>
      <trkpt lat="49.44715" lon="1.02094">
        <ele>134.24</ele>
        <time>2018-07-07T15:56:07Z</time>
      </trkpt>
      <trkpt lat="49.44713" lon="1.02092">
        <ele>134.24</ele>
        <time>2018-07-07T15:56:08Z</time>
      </trkpt>
      <trkpt lat="49.4471" lon="1.0209">
        <ele>134.24</ele>
        <time>2018-07-07T15:56:09Z</time>
      </trkpt>
      <trkpt lat="49.44705" lon="1.02086">
        <ele>134.24</ele>
        <time>2018-07-07T15:56:11Z</time>
      </trkpt>
      <trkpt lat="49.44698" lon="1.02079">
        <ele>134.24</ele>
        <time>2018-07-07T15:56:14Z</time>
      </trkpt>
      <trkpt lat="49.44695" lon="1.02063">
        <ele>133.76</ele>
        <time>2018-07-07T15:56:17Z</time>
      </trkpt>
      <trkpt lat="49.44685" lon="1.02013">
        <ele>133.76</ele>
        <time>2018-07-07T15:56:27Z</time>
      </trkpt>
      <trkpt lat="49.44659" lon="1.01949">
        <ele>132.8</ele>
        <time>2018-07-07T15:56:36Z</time>
      </trkpt>
      <trkpt lat="49.44655" lon="1.01918">
        <ele>132.32</ele>
        <time>2018-07-07T15:56:40Z</time>
      </trkpt>
      <trkpt lat="49.44654" lon="1.01902">
        <ele>132.32</ele>
        <time>2018-07-07T15:56:42Z</time>
      </trkpt>
      <trkpt lat="49.44646" lon="1.01868">
        <ele>130.88</ele>
        <time>2018-07-07T15:56:47Z</time>
      </trkpt>
      <trkpt lat="49.44637" lon="1.01844">
        <ele>130.88</ele>
        <time>2018-07-07T15:56:50Z</time>
      </trkpt>
      <trkpt lat="49.44622" lon="1.01788">
        <ele>128.47</ele>
        <time>2018-07-07T15:56:56Z</time>
      </trkpt>
      <trkpt lat="49.4462" lon="1.01749">
        <ele>127.99</ele>
        <time>2018-07-07T15:57:00Z</time>
      </trkpt>
      <trkpt lat="49.44614" lon="1.01722">
        <ele>127.03</ele>
        <time>2018-07-07T15:57:03Z</time>
      </trkpt>
      <trkpt lat="49.44601" lon="1.01684">
        <ele>126.07</ele>
        <time>2018-07-07T15:57:07Z</time>
      </trkpt>
      <trkpt lat="49.44596" lon="1.01663">
        <ele>125.11</ele>
        <time>2018-07-07T15:57:09Z</time>
      </trkpt>
      <trkpt lat="49.44589" lon="1.01621">
        <ele>123.67</ele>
        <time>2018-07-07T15:57:13Z</time>
      </trkpt>
      <trkpt lat="49.44582" lon="1.016">
        <ele>123.19</ele>
        <time>2018-07-07T15:57:15Z</time>
      </trkpt>
      <trkpt lat="49.44578" lon="1.01591">
        <ele>123.19</ele>
        <time>2018-07-07T15:57:16Z</time>
      </trkpt>
      <trkpt lat="49.44567" lon="1.01548">
        <ele>121.26</ele>
        <time>2018-07-07T15:57:20Z</time>
      </trkpt>
      <trkpt lat="49.44553" lon="1.01479">
        <ele>118.38</ele>
        <time>2018-07-07T15:57:27Z</time>
      </trkpt>
      <trkpt lat="49.44552" lon="1.0147">
        <ele>118.38</ele>
        <time>2018-07-07T15:57:28Z</time>
      </trkpt>
      <trkpt lat="49.44545" lon="1.01432">
        <ele>116.94</ele>
        <time>2018-07-07T15:57:32Z</time>
      </trkpt>
      <trkpt lat="49.44541" lon="1.01393">
        <ele>115.5</ele>
        <time>2018-07-07T15:57:36Z</time>
      </trkpt>
      <trkpt lat="49.4454" lon="1.01348">
        <ele>115.01</ele>
        <time>2018-07-07T15:57:41Z</time>
      </trkpt>
      <trkpt lat="49.44533" lon="1.01318">
        <ele>114.05</ele>
        <time>2018-07-07T15:57:45Z</time>
      </trkpt>
      <trkpt lat="49.4453" lon="1.01302">
        <ele>114.05</ele>
        <time>2018-07-07T15:57:47Z</time>
      </trkpt>
      <trkpt lat="49.44528" lon="1.01286">
        <ele>113.09</ele>
        <time>2018-07-07T15:57:49Z</time>
      </trkpt>
      <trkpt lat="49.4453" lon="1.0124">
        <ele>113.09</ele>
        <time>2018-07-07T15:57:55Z</time>
      </trkpt>
      <trkpt lat="49.4453" lon="1.01154">
        <ele>112.13</ele>
        <time>2018-07-07T15:58:04Z</time>
      </trkpt>
      <trkpt lat="49.44526" lon="1.01047">
        <ele>111.17</ele>
        <time>2018-07-07T15:58:17Z</time>
      </trkpt>
      <trkpt lat="49.44526" lon="1.01039">
        <ele>111.17</ele>
        <time>2018-07-07T15:58:18Z</time>
      </trkpt>
      <trkpt lat="49.44527" lon="1.01023">
        <ele>111.17</ele>
        <time>2018-07-07T15:58:20Z</time>
      </trkpt>
      <trkpt lat="49.44527" lon="1.01015">
        <ele>111.17</ele>
        <time>2018-07-07T15:58:21Z</time>
      </trkpt>
      <trkpt lat="49.44527" lon="1.01006">
        <ele>111.17</ele>
        <time>2018-07-07T15:58:22Z</time>
      </trkpt>
      <trkpt lat="49.44526" lon="1.0099">
        <ele>111.17</ele>
        <time>2018-07-07T15:58:24Z</time>
      </trkpt>
      <trkpt lat="49.44526" lon="1.00982">
        <ele>111.17</ele>
        <time>2018-07-07T15:58:25Z</time>
      </trkpt>
      <trkpt lat="49.44526" lon="1.00975">
        <ele>111.17</ele>
        <time>2018-07-07T15:58:26Z</time>
      </trkpt>
      <trkpt lat="49.44528" lon="1.00969">
        <ele>111.17</ele>
        <time>2018-07-07T15:58:27Z</time>
      </trkpt>
      <trkpt lat="49.44529" lon="1.00964">
        <ele>111.17</ele>
        <time>2018-07-07T15:58:28Z</time>
      </trkpt>
      <trkpt lat="49.44527" lon="1.0096">
        <ele>111.17</ele>
        <time>2018-07-07T15:58:29Z</time>
      </trkpt>
      <trkpt lat="49.44525" lon="1.00956">
        <ele>110.69</ele>
        <time>2018-07-07T15:58:30Z</time>
      </trkpt>
      <trkpt lat="49.44523" lon="1.00951">
        <ele>110.21</ele>
        <time>2018-07-07T15:58:31Z</time>
      </trkpt>
      <trkpt lat="49.44522" lon="1.00947">
        <ele>110.21</ele>
        <time>2018-07-07T15:58:32Z</time>
      </trkpt>
      <trkpt lat="49.44523" lon="1.00941">
        <ele>110.21</ele>
        <time>2018-07-07T15:58:33Z</time>
      </trkpt>
      <trkpt lat="49.44524" lon="1.00934">
        <ele>110.21</ele>
        <time>2018-07-07T15:58:34Z</time>
      </trkpt>
      <trkpt lat="49.44525" lon="1.00926">
        <ele>110.21</ele>
        <time>2018-07-07T15:58:35Z</time>
      </trkpt>
      <trkpt lat="49.44527" lon="1.00901">
        <ele>110.21</ele>
        <time>2018-07-07T15:58:38Z</time>
      </trkpt>
      <trkpt lat="49.44528" lon="1.00892">
        <ele>110.21</ele>
        <time>2018-07-07T15:58:39Z</time>
      </trkpt>
      <trkpt lat="49.44531" lon="1.00838">
        <ele>110.21</ele>
        <time>2018-07-07T15:58:46Z</time>
      </trkpt>
      <trkpt lat="49.44532" lon="1.0083">
        <ele>110.21</ele>
        <time>2018-07-07T15:58:47Z</time>
      </trkpt>
      <trkpt lat="49.44532" lon="1.00822">
        <ele>110.21</ele>
        <time>2018-07-07T15:58:48Z</time>
      </trkpt>
      <trkpt lat="49.44533" lon="1.00815">
        <ele>110.21</ele>
        <time>2018-07-07T15:58:49Z</time>
      </trkpt>
      <trkpt lat="49.44534" lon="1.00808">
        <ele>109.73</ele>
        <time>2018-07-07T15:58:50Z</time>
      </trkpt>
      <trkpt lat="49.44534" lon="1.008">
        <ele>109.73</ele>
        <time>2018-07-07T15:58:51Z</time>
      </trkpt>
      <trkpt lat="49.44534" lon="1.00793">
        <ele>109.73</ele>
        <time>2018-07-07T15:58:52Z</time>
      </trkpt>
      <trkpt lat="49.44534" lon="1.00785">
        <ele>109.73</ele>
        <time>2018-07-07T15:58:53Z</time>
      </trkpt>
      <trkpt lat="49.44533" lon="1.00777">
        <ele>109.73</ele>
        <time>2018-07-07T15:58:54Z</time>
      </trkpt>
      <trkpt lat="49.44531" lon="1.0077">
        <ele>109.25</ele>
        <time>2018-07-07T15:58:55Z</time>
      </trkpt>
      <trkpt lat="49.44529" lon="1.00755">
        <ele>109.25</ele>
        <time>2018-07-07T15:58:57Z</time>
      </trkpt>
      <trkpt lat="49.44529" lon="1.00748">
        <ele>109.25</ele>
        <time>2018-07-07T15:58:58Z</time>
      </trkpt>
      <trkpt lat="49.44529" lon="1.0074">
        <ele>109.25</ele>
        <time>2018-07-07T15:58:59Z</time>
      </trkpt>
      <trkpt lat="49.44529" lon="1.00733">
        <ele>109.25</ele>
        <time>2018-07-07T15:59:00Z</time>
      </trkpt>
      <trkpt lat="49.44529" lon="1.00726">
        <ele>109.25</ele>
        <time>2018-07-07T15:59:01Z</time>
      </trkpt>
      <trkpt lat="49.44529" lon="1.00718">
        <ele>109.25</ele>
        <time>2018-07-07T15:59:02Z</time>
      </trkpt>
      <trkpt lat="49.4453" lon="1.00711">
        <ele>108.77</ele>
        <time>2018-07-07T15:59:03Z</time>
      </trkpt>
      <trkpt lat="49.44529" lon="1.00702">
        <ele>108.77</ele>
        <time>2018-07-07T15:59:04Z</time>
      </trkpt>
      <trkpt lat="49.44529" lon="1.00696">
        <ele>108.77</ele>
        <time>2018-07-07T15:59:05Z</time>
      </trkpt>
      <trkpt lat="49.44527" lon="1.00657">
        <ele>108.29</ele>
        <time>2018-07-07T15:59:10Z</time>
      </trkpt>
      <trkpt lat="49.44529" lon="1.00643">
        <ele>107.81</ele>
        <time>2018-07-07T15:59:12Z</time>
      </trkpt>
      <trkpt lat="49.44531" lon="1.00636">
        <ele>107.81</ele>
        <time>2018-07-07T15:59:13Z</time>
      </trkpt>
      <trkpt lat="49.44532" lon="1.00629">
        <ele>107.81</ele>
        <time>2018-07-07T15:59:14Z</time>
      </trkpt>
      <trkpt lat="49.44532" lon="1.00622">
        <ele>107.81</ele>
        <time>2018-07-07T15:59:15Z</time>
      </trkpt>
      <trkpt lat="49.44532" lon="1.00615">
        <ele>107.81</ele>
        <time>2018-07-07T15:59:16Z</time>
      </trkpt>
      <trkpt lat="49.44533" lon="1.00601">
        <ele>107.81</ele>
        <time>2018-07-07T15:59:18Z</time>
      </trkpt>
      <trkpt lat="49.44532" lon="1.00594">
        <ele>107.81</ele>
        <time>2018-07-07T15:59:19Z</time>
      </trkpt>
      <trkpt lat="49.44532" lon="1.00588">
        <ele>107.32</ele>
        <time>2018-07-07T15:59:20Z</time>
      </trkpt>
      <trkpt lat="49.44532" lon="1.00581">
        <ele>107.32</ele>
        <time>2018-07-07T15:59:21Z</time>
      </trkpt>
      <trkpt lat="49.44533" lon="1.00575">
        <ele>107.32</ele>
        <time>2018-07-07T15:59:22Z</time>
      </trkpt>
      <trkpt lat="49.44534" lon="1.0056">
        <ele>106.84</ele>
        <time>2018-07-07T15:59:24Z</time>
      </trkpt>
      <trkpt lat="49.44534" lon="1.00552">
        <ele>106.84</ele>
        <time>2018-07-07T15:59:25Z</time>
      </trkpt>
      <trkpt lat="49.44534" lon="1.00545">
        <ele>106.84</ele>
        <time>2018-07-07T15:59:26Z</time>
      </trkpt>
      <trkpt lat="49.44534" lon="1.00538">
        <ele>106.84</ele>
        <time>2018-07-07T15:59:27Z</time>
      </trkpt>
      <trkpt lat="49.44534" lon="1.00532">
        <ele>106.84</ele>
        <time>2018-07-07T15:59:28Z</time>
      </trkpt>
      <trkpt lat="49.44537" lon="1.00495">
        <ele>105.88</ele>
        <time>2018-07-07T15:59:33Z</time>
      </trkpt>
      <trkpt lat="49.44538" lon="1.00479">
        <ele>105.88</ele>
        <time>2018-07-07T15:59:35Z</time>
      </trkpt>
      <trkpt lat="49.44542" lon="1.00449">
        <ele>104.44</ele>
        <time>2018-07-07T15:59:41Z</time>
      </trkpt>
      <trkpt lat="49.4454" lon="1.00427">
        <ele>103.96</ele>
        <time>2018-07-07T15:59:45Z</time>
      </trkpt>
      <trkpt lat="49.44542" lon="1.00397">
        <ele>103.96</ele>
        <time>2018-07-07T15:59:49Z</time>
      </trkpt>
      <trkpt lat="49.4454" lon="1.00338">
        <ele>103.48</ele>
        <time>2018-07-07T15:59:57Z</time>
      </trkpt>
      <trkpt lat="49.44528" lon="1.00249">
        <ele>102.04</ele>
        <time>2018-07-07T16:00:09Z</time>
      </trkpt>
      <trkpt lat="49.44529" lon="1.00196">
        <ele>102.04</ele>
        <time>2018-07-07T16:00:16Z</time>
      </trkpt>
      <trkpt lat="49.44526" lon="1.00165">
        <ele>102.04</ele>
        <time>2018-07-07T16:00:20Z</time>
      </trkpt>
      <trkpt lat="49.44527" lon="1.00101">
        <ele>101.56</ele>
        <time>2018-07-07T16:00:28Z</time>
      </trkpt>
      <trkpt lat="49.44527" lon="1.00092">
        <ele>101.56</ele>
        <time>2018-07-07T16:00:29Z</time>
      </trkpt>
      <trkpt lat="49.44527" lon="1.00084">
        <ele>101.56</ele>
        <time>2018-07-07T16:00:30Z</time>
      </trkpt>
      <trkpt lat="49.44528" lon="1.00069">
        <ele>101.08</ele>
        <time>2018-07-07T16:00:32Z</time>
      </trkpt>
      <trkpt lat="49.44527" lon="1.00062">
        <ele>101.08</ele>
        <time>2018-07-07T16:00:33Z</time>
      </trkpt>
      <trkpt lat="49.44527" lon="1.00049">
        <ele>101.08</ele>
        <time>2018-07-07T16:00:35Z</time>
      </trkpt>
      <trkpt lat="49.44527" lon="1.00041">
        <ele>101.08</ele>
        <time>2018-07-07T16:00:36Z</time>
      </trkpt>
      <trkpt lat="49.44526" lon="1.00034">
        <ele>101.08</ele>
        <time>2018-07-07T16:00:37Z</time>
      </trkpt>
      <trkpt lat="49.44525" lon="1.00028">
        <ele>101.08</ele>
        <time>2018-07-07T16:00:38Z</time>
      </trkpt>
      <trkpt lat="49.44525" lon="1.00022">
        <ele>101.08</ele>
        <time>2018-07-07T16:00:39Z</time>
      </trkpt>
      <trkpt lat="49.44526" lon="1.00015">
        <ele>101.08</ele>
        <time>2018-07-07T16:00:40Z</time>
      </trkpt>
      <trkpt lat="49.44526" lon="1.00008">
        <ele>101.08</ele>
        <time>2018-07-07T16:00:41Z</time>
      </trkpt>
      <trkpt lat="49.44528" lon="0.99996">
        <ele>101.08</ele>
        <time>2018-07-07T16:00:43Z</time>
      </trkpt>
      <trkpt lat="49.44529" lon="0.9999">
        <ele>101.08</ele>
        <time>2018-07-07T16:00:44Z</time>
      </trkpt>
      <trkpt lat="49.4453" lon="0.99984">
        <ele>101.08</ele>
        <time>2018-07-07T16:00:45Z</time>
      </trkpt>
      <trkpt lat="49.4453" lon="0.99979">
        <ele>101.08</ele>
        <time>2018-07-07T16:00:46Z</time>
      </trkpt>
      <trkpt lat="49.44529" lon="0.99973">
        <ele>100.6</ele>
        <time>2018-07-07T16:00:47Z</time>
      </trkpt>
      <trkpt lat="49.44528" lon="0.99968">
        <ele>100.6</ele>
        <time>2018-07-07T16:00:48Z</time>
      </trkpt>
      <trkpt lat="49.44527" lon="0.99962">
        <ele>100.6</ele>
        <time>2018-07-07T16:00:49Z</time>
      </trkpt>
      <trkpt lat="49.44528" lon="0.99956">
        <ele>100.6</ele>
        <time>2018-07-07T16:00:50Z</time>
      </trkpt>
      <trkpt lat="49.44528" lon="0.9995">
        <ele>100.11</ele>
        <time>2018-07-07T16:00:51Z</time>
      </trkpt>
      <trkpt lat="49.4453" lon="0.99925">
        <ele>99.63</ele>
        <time>2018-07-07T16:00:55Z</time>
      </trkpt>
      <trkpt lat="49.44529" lon="0.99918">
        <ele>99.63</ele>
        <time>2018-07-07T16:00:56Z</time>
      </trkpt>
      <trkpt lat="49.44528" lon="0.99911">
        <ele>99.15</ele>
        <time>2018-07-07T16:00:57Z</time>
      </trkpt>
      <trkpt lat="49.44526" lon="0.99891">
        <ele>98.67</ele>
        <time>2018-07-07T16:01:00Z</time>
      </trkpt>
      <trkpt lat="49.44525" lon="0.99884">
        <ele>98.67</ele>
        <time>2018-07-07T16:01:01Z</time>
      </trkpt>
      <trkpt lat="49.44525" lon="0.99877">
        <ele>97.71</ele>
        <time>2018-07-07T16:01:02Z</time>
      </trkpt>
      <trkpt lat="49.44525" lon="0.9987">
        <ele>97.71</ele>
        <time>2018-07-07T16:01:03Z</time>
      </trkpt>
      <trkpt lat="49.44526" lon="0.99863">
        <ele>97.71</ele>
        <time>2018-07-07T16:01:04Z</time>
      </trkpt>
      <trkpt lat="49.44527" lon="0.99855">
        <ele>97.71</ele>
        <time>2018-07-07T16:01:05Z</time>
      </trkpt>
      <trkpt lat="49.44528" lon="0.99848">
        <ele>97.71</ele>
        <time>2018-07-07T16:01:06Z</time>
      </trkpt>
      <trkpt lat="49.44529" lon="0.99841">
        <ele>97.23</ele>
        <time>2018-07-07T16:01:07Z</time>
      </trkpt>
      <trkpt lat="49.44529" lon="0.99835">
        <ele>97.23</ele>
        <time>2018-07-07T16:01:08Z</time>
      </trkpt>
      <trkpt lat="49.4453" lon="0.99828">
        <ele>97.23</ele>
        <time>2018-07-07T16:01:09Z</time>
      </trkpt>
      <trkpt lat="49.4453" lon="0.99822">
        <ele>97.23</ele>
        <time>2018-07-07T16:01:10Z</time>
      </trkpt>
      <trkpt lat="49.4453" lon="0.99815">
        <ele>96.75</ele>
        <time>2018-07-07T16:01:11Z</time>
      </trkpt>
      <trkpt lat="49.4453" lon="0.99808">
        <ele>96.75</ele>
        <time>2018-07-07T16:01:12Z</time>
      </trkpt>
      <trkpt lat="49.4453" lon="0.99802">
        <ele>96.75</ele>
        <time>2018-07-07T16:01:13Z</time>
      </trkpt>
      <trkpt lat="49.4453" lon="0.99795">
        <ele>96.75</ele>
        <time>2018-07-07T16:01:14Z</time>
      </trkpt>
      <trkpt lat="49.4453" lon="0.99789">
        <ele>96.75</ele>
        <time>2018-07-07T16:01:15Z</time>
      </trkpt>
      <trkpt lat="49.4453" lon="0.99782">
        <ele>96.75</ele>
        <time>2018-07-07T16:01:16Z</time>
      </trkpt>
      <trkpt lat="49.4453" lon="0.99763">
        <ele>96.75</ele>
        <time>2018-07-07T16:01:19Z</time>
      </trkpt>
      <trkpt lat="49.4453" lon="0.99724">
        <ele>96.27</ele>
        <time>2018-07-07T16:01:25Z</time>
      </trkpt>
      <trkpt lat="49.44531" lon="0.99717">
        <ele>96.27</ele>
        <time>2018-07-07T16:01:26Z</time>
      </trkpt>
      <trkpt lat="49.44532" lon="0.9971">
        <ele>96.27</ele>
        <time>2018-07-07T16:01:27Z</time>
      </trkpt>
      <trkpt lat="49.44533" lon="0.99703">
        <ele>96.27</ele>
        <time>2018-07-07T16:01:28Z</time>
      </trkpt>
      <trkpt lat="49.44533" lon="0.99697">
        <ele>96.27</ele>
        <time>2018-07-07T16:01:29Z</time>
      </trkpt>
      <trkpt lat="49.44533" lon="0.99691">
        <ele>96.27</ele>
        <time>2018-07-07T16:01:30Z</time>
      </trkpt>
      <trkpt lat="49.44532" lon="0.99685">
        <ele>96.27</ele>
        <time>2018-07-07T16:01:31Z</time>
      </trkpt>
      <trkpt lat="49.44532" lon="0.99678">
        <ele>96.27</ele>
        <time>2018-07-07T16:01:32Z</time>
      </trkpt>
      <trkpt lat="49.44532" lon="0.99671">
        <ele>96.27</ele>
        <time>2018-07-07T16:01:33Z</time>
      </trkpt>
      <trkpt lat="49.44532" lon="0.99664">
        <ele>96.27</ele>
        <time>2018-07-07T16:01:34Z</time>
      </trkpt>
      <trkpt lat="49.44532" lon="0.99656">
        <ele>96.27</ele>
        <time>2018-07-07T16:01:35Z</time>
      </trkpt>
      <trkpt lat="49.44533" lon="0.99641">
        <ele>96.27</ele>
        <time>2018-07-07T16:01:37Z</time>
      </trkpt>
      <trkpt lat="49.44532" lon="0.99635">
        <ele>96.27</ele>
        <time>2018-07-07T16:01:38Z</time>
      </trkpt>
      <trkpt lat="49.4453" lon="0.99615">
        <ele>96.27</ele>
        <time>2018-07-07T16:01:41Z</time>
      </trkpt>
      <trkpt lat="49.44529" lon="0.99609">
        <ele>96.27</ele>
        <time>2018-07-07T16:01:42Z</time>
      </trkpt>
      <trkpt lat="49.44529" lon="0.99603">
        <ele>96.27</ele>
        <time>2018-07-07T16:01:43Z</time>
      </trkpt>
      <trkpt lat="49.44528" lon="0.99596">
        <ele>96.27</ele>
        <time>2018-07-07T16:01:44Z</time>
      </trkpt>
      <trkpt lat="49.44528" lon="0.9959">
        <ele>96.27</ele>
        <time>2018-07-07T16:01:45Z</time>
      </trkpt>
      <trkpt lat="49.44529" lon="0.99583">
        <ele>96.27</ele>
        <time>2018-07-07T16:01:46Z</time>
      </trkpt>
      <trkpt lat="49.4453" lon="0.99577">
        <ele>96.27</ele>
        <time>2018-07-07T16:01:47Z</time>
      </trkpt>
      <trkpt lat="49.44531" lon="0.99572">
        <ele>95.79</ele>
        <time>2018-07-07T16:01:48Z</time>
      </trkpt>
      <trkpt lat="49.44532" lon="0.99566">
        <ele>95.79</ele>
        <time>2018-07-07T16:01:49Z</time>
      </trkpt>
      <trkpt lat="49.44532" lon="0.9956">
        <ele>95.79</ele>
        <time>2018-07-07T16:01:50Z</time>
      </trkpt>
      <trkpt lat="49.44531" lon="0.99553">
        <ele>95.79</ele>
        <time>2018-07-07T16:01:51Z</time>
      </trkpt>
      <trkpt lat="49.4453" lon="0.99547">
        <ele>95.79</ele>
        <time>2018-07-07T16:01:52Z</time>
      </trkpt>
      <trkpt lat="49.44529" lon="0.99542">
        <ele>95.31</ele>
        <time>2018-07-07T16:01:53Z</time>
      </trkpt>
      <trkpt lat="49.44526" lon="0.99537">
        <ele>95.79</ele>
        <time>2018-07-07T16:01:54Z</time>
      </trkpt>
      <trkpt lat="49.44523" lon="0.99533">
        <ele>95.31</ele>
        <time>2018-07-07T16:01:55Z</time>
      </trkpt>
      <trkpt lat="49.44521" lon="0.99529">
        <ele>95.31</ele>
        <time>2018-07-07T16:01:56Z</time>
      </trkpt>
      <trkpt lat="49.44517" lon="0.9952">
        <ele>95.31</ele>
        <time>2018-07-07T16:01:58Z</time>
      </trkpt>
      <trkpt lat="49.44518" lon="0.99515">
        <ele>95.31</ele>
        <time>2018-07-07T16:01:59Z</time>
      </trkpt>
      <trkpt lat="49.44519" lon="0.9951">
        <ele>95.31</ele>
        <time>2018-07-07T16:02:00Z</time>
      </trkpt>
      <trkpt lat="49.44519" lon="0.99505">
        <ele>95.31</ele>
        <time>2018-07-07T16:02:01Z</time>
      </trkpt>
      <trkpt lat="49.44519" lon="0.995">
        <ele>95.31</ele>
        <time>2018-07-07T16:02:02Z</time>
      </trkpt>
      <trkpt lat="49.44522" lon="0.99441">
        <ele>94.83</ele>
        <time>2018-07-07T16:02:13Z</time>
      </trkpt>
      <trkpt lat="49.44523" lon="0.99436">
        <ele>94.35</ele>
        <time>2018-07-07T16:02:14Z</time>
      </trkpt>
      <trkpt lat="49.44524" lon="0.99429">
        <ele>94.35</ele>
        <time>2018-07-07T16:02:15Z</time>
      </trkpt>
      <trkpt lat="49.44525" lon="0.99423">
        <ele>94.35</ele>
        <time>2018-07-07T16:02:16Z</time>
      </trkpt>
      <trkpt lat="49.44525" lon="0.99416">
        <ele>94.35</ele>
        <time>2018-07-07T16:02:17Z</time>
      </trkpt>
      <trkpt lat="49.44525" lon="0.99411">
        <ele>94.35</ele>
        <time>2018-07-07T16:02:18Z</time>
      </trkpt>
      <trkpt lat="49.44528" lon="0.99358">
        <ele>93.39</ele>
        <time>2018-07-07T16:02:27Z</time>
      </trkpt>
      <trkpt lat="49.44528" lon="0.99352">
        <ele>93.39</ele>
        <time>2018-07-07T16:02:28Z</time>
      </trkpt>
      <trkpt lat="49.44531" lon="0.99315">
        <ele>92.9</ele>
        <time>2018-07-07T16:02:34Z</time>
      </trkpt>
      <trkpt lat="49.4453" lon="0.99309">
        <ele>92.9</ele>
        <time>2018-07-07T16:02:35Z</time>
      </trkpt>
      <trkpt lat="49.44529" lon="0.99304">
        <ele>92.9</ele>
        <time>2018-07-07T16:02:36Z</time>
      </trkpt>
      <trkpt lat="49.44528" lon="0.99299">
        <ele>92.9</ele>
        <time>2018-07-07T16:02:37Z</time>
      </trkpt>
      <trkpt lat="49.44528" lon="0.99294">
        <ele>92.42</ele>
        <time>2018-07-07T16:02:38Z</time>
      </trkpt>
      <trkpt lat="49.44527" lon="0.99287">
        <ele>92.42</ele>
        <time>2018-07-07T16:02:39Z</time>
      </trkpt>
      <trkpt lat="49.44527" lon="0.99273">
        <ele>92.42</ele>
        <time>2018-07-07T16:02:41Z</time>
      </trkpt>
      <trkpt lat="49.44529" lon="0.99266">
        <ele>92.42</ele>
        <time>2018-07-07T16:02:42Z</time>
      </trkpt>
      <trkpt lat="49.4453" lon="0.9926">
        <ele>91.94</ele>
        <time>2018-07-07T16:02:43Z</time>
      </trkpt>
      <trkpt lat="49.44529" lon="0.99254">
        <ele>91.94</ele>
        <time>2018-07-07T16:02:44Z</time>
      </trkpt>
      <trkpt lat="49.44527" lon="0.9925">
        <ele>91.94</ele>
        <time>2018-07-07T16:02:45Z</time>
      </trkpt>
      <trkpt lat="49.44526" lon="0.99245">
        <ele>91.94</ele>
        <time>2018-07-07T16:02:46Z</time>
      </trkpt>
      <trkpt lat="49.44527" lon="0.99239">
        <ele>90.98</ele>
        <time>2018-07-07T16:02:47Z</time>
      </trkpt>
      <trkpt lat="49.44536" lon="0.99213">
        <ele>90.02</ele>
        <time>2018-07-07T16:02:52Z</time>
      </trkpt>
      <trkpt lat="49.44538" lon="0.99196">
        <ele>89.54</ele>
        <time>2018-07-07T16:02:56Z</time>
      </trkpt>
      <trkpt lat="49.44536" lon="0.99193">
        <ele>89.54</ele>
        <time>2018-07-07T16:02:57Z</time>
      </trkpt>
      <trkpt lat="49.44534" lon="0.99192">
        <ele>89.54</ele>
        <time>2018-07-07T16:02:58Z</time>
      </trkpt>
      <trkpt lat="49.44531" lon="0.99191">
        <ele>89.54</ele>
        <time>2018-07-07T16:02:59Z</time>
      </trkpt>
      <trkpt lat="49.44527" lon="0.99189">
        <ele>89.54</ele>
        <time>2018-07-07T16:03:00Z</time>
      </trkpt>
      <trkpt lat="49.44524" lon="0.99187">
        <ele>89.54</ele>
        <time>2018-07-07T16:03:01Z</time>
      </trkpt>
      <trkpt lat="49.44513" lon="0.99172">
        <ele>90.98</ele>
        <time>2018-07-07T16:03:05Z</time>
      </trkpt>
      <trkpt lat="49.44514" lon="0.99166">
        <ele>91.46</ele>
        <time>2018-07-07T16:03:06Z</time>
      </trkpt>
      <trkpt lat="49.44517" lon="0.99162">
        <ele>91.46</ele>
        <time>2018-07-07T16:03:07Z</time>
      </trkpt>
      <trkpt lat="49.4452" lon="0.99157">
        <ele>91.46</ele>
        <time>2018-07-07T16:03:08Z</time>
      </trkpt>
      <trkpt lat="49.44523" lon="0.99153">
        <ele>91.46</ele>
        <time>2018-07-07T16:03:09Z</time>
      </trkpt>
      <trkpt lat="49.44557" lon="0.99119">
        <ele>89.54</ele>
        <time>2018-07-07T16:03:16Z</time>
      </trkpt>
      <trkpt lat="49.4457" lon="0.99103">
        <ele>89.54</ele>
        <time>2018-07-07T16:03:19Z</time>
      </trkpt>
      <trkpt lat="49.44574" lon="0.99099">
        <ele>89.54</ele>
        <time>2018-07-07T16:03:20Z</time>
      </trkpt>
      <trkpt lat="49.44579" lon="0.99096">
        <ele>89.54</ele>
        <time>2018-07-07T16:03:21Z</time>
      </trkpt>
      <trkpt lat="49.44589" lon="0.99087">
        <ele>89.54</ele>
        <time>2018-07-07T16:03:24Z</time>
      </trkpt>
      <trkpt lat="49.44591" lon="0.99082">
        <ele>89.54</ele>
        <time>2018-07-07T16:03:25Z</time>
      </trkpt>
      <trkpt lat="49.44593" lon="0.99077">
        <ele>89.54</ele>
        <time>2018-07-07T16:03:26Z</time>
      </trkpt>
      <trkpt lat="49.44597" lon="0.99072">
        <ele>89.54</ele>
        <time>2018-07-07T16:03:27Z</time>
      </trkpt>
      <trkpt lat="49.446" lon="0.99067">
        <ele>89.54</ele>
        <time>2018-07-07T16:03:28Z</time>
      </trkpt>
      <trkpt lat="49.44604" lon="0.99063">
        <ele>89.54</ele>
        <time>2018-07-07T16:03:29Z</time>
      </trkpt>
      <trkpt lat="49.44622" lon="0.9904">
        <ele>89.54</ele>
        <time>2018-07-07T16:03:34Z</time>
      </trkpt>
      <trkpt lat="49.44625" lon="0.99035">
        <ele>89.54</ele>
        <time>2018-07-07T16:03:35Z</time>
      </trkpt>
      <trkpt lat="49.4469" lon="0.98966">
        <ele>88.1</ele>
        <time>2018-07-07T16:03:47Z</time>
      </trkpt>
      <trkpt lat="49.44728" lon="0.98924">
        <ele>88.1</ele>
        <time>2018-07-07T16:03:54Z</time>
      </trkpt>
      <trkpt lat="49.44766" lon="0.98877">
        <ele>90.5</ele>
        <time>2018-07-07T16:04:06Z</time>
      </trkpt>
      <trkpt lat="49.44798" lon="0.98839">
        <ele>92.42</ele>
        <time>2018-07-07T16:04:17Z</time>
      </trkpt>
      <trkpt lat="49.44835" lon="0.98796">
        <ele>94.35</ele>
        <time>2018-07-07T16:04:29Z</time>
      </trkpt>
      <trkpt lat="49.44881" lon="0.98746">
        <ele>95.79</ele>
        <time>2018-07-07T16:04:44Z</time>
      </trkpt>
      <trkpt lat="49.44925" lon="0.98696">
        <ele>97.23</ele>
        <time>2018-07-07T16:04:59Z</time>
      </trkpt>
      <trkpt lat="49.44977" lon="0.9864">
        <ele>98.67</ele>
        <time>2018-07-07T16:05:16Z</time>
      </trkpt>
      <trkpt lat="49.45031" lon="0.98582">
        <ele>99.63</ele>
        <time>2018-07-07T16:05:33Z</time>
      </trkpt>
      <trkpt lat="49.45047" lon="0.98561">
        <ele>99.63</ele>
        <time>2018-07-07T16:05:39Z</time>
      </trkpt>
      <trkpt lat="49.45043" lon="0.98555">
        <ele>99.63</ele>
        <time>2018-07-07T16:05:41Z</time>
      </trkpt>
      <trkpt lat="49.45012" lon="0.98547">
        <ele>100.11</ele>
        <time>2018-07-07T16:05:49Z</time>
      </trkpt>
      <trkpt lat="49.44945" lon="0.9853">
        <ele>100.11</ele>
        <time>2018-07-07T16:06:05Z</time>
      </trkpt>
      <trkpt lat="49.44905" lon="0.98525">
        <ele>100.11</ele>
        <time>2018-07-07T16:06:17Z</time>
      </trkpt>
      <trkpt lat="49.44891" lon="0.98522">
        <ele>100.11</ele>
        <time>2018-07-07T16:06:21Z</time>
      </trkpt>
      <trkpt lat="49.44833" lon="0.98507">
        <ele>98.67</ele>
        <time>2018-07-07T16:06:37Z</time>
      </trkpt>
      <trkpt lat="49.44805" lon="0.98499">
        <ele>98.19</ele>
        <time>2018-07-07T16:06:44Z</time>
      </trkpt>
      <trkpt lat="49.44797" lon="0.98497">
        <ele>98.19</ele>
        <time>2018-07-07T16:06:46Z</time>
      </trkpt>
      <trkpt lat="49.44769" lon="0.9849">
        <ele>97.71</ele>
        <time>2018-07-07T16:06:52Z</time>
      </trkpt>
      <trkpt lat="49.44696" lon="0.98471">
        <ele>94.83</ele>
        <time>2018-07-07T16:07:09Z</time>
      </trkpt>
      <trkpt lat="49.44677" lon="0.98468">
        <ele>94.35</ele>
        <time>2018-07-07T16:07:14Z</time>
      </trkpt>
      <trkpt lat="49.44672" lon="0.9846">
        <ele>94.35</ele>
        <time>2018-07-07T16:07:18Z</time>
      </trkpt>
      <trkpt lat="49.4467" lon="0.98446">
        <ele>94.35</ele>
        <time>2018-07-07T16:07:21Z</time>
      </trkpt>
      <trkpt lat="49.4467" lon="0.98442">
        <ele>94.35</ele>
        <time>2018-07-07T16:07:22Z</time>
      </trkpt>
      <trkpt lat="49.4467" lon="0.98437">
        <ele>94.35</ele>
        <time>2018-07-07T16:07:23Z</time>
      </trkpt>
      <trkpt lat="49.44671" lon="0.98432">
        <ele>94.35</ele>
        <time>2018-07-07T16:07:24Z</time>
      </trkpt>
      <trkpt lat="49.44672" lon="0.98427">
        <ele>94.35</ele>
        <time>2018-07-07T16:07:25Z</time>
      </trkpt>
      <trkpt lat="49.44673" lon="0.98422">
        <ele>94.35</ele>
        <time>2018-07-07T16:07:26Z</time>
      </trkpt>
      <trkpt lat="49.44674" lon="0.98416">
        <ele>94.35</ele>
        <time>2018-07-07T16:07:27Z</time>
      </trkpt>
      <trkpt lat="49.44683" lon="0.98364">
        <ele>95.79</ele>
        <time>2018-07-07T16:07:37Z</time>
      </trkpt>
      <trkpt lat="49.44682" lon="0.98361">
        <ele>95.79</ele>
        <time>2018-07-07T16:07:38Z</time>
      </trkpt>
      <trkpt lat="49.4468" lon="0.98357">
        <ele>95.31</ele>
        <time>2018-07-07T16:07:39Z</time>
      </trkpt>
      <trkpt lat="49.44679" lon="0.98353">
        <ele>95.31</ele>
        <time>2018-07-07T16:07:40Z</time>
      </trkpt>
      <trkpt lat="49.44679" lon="0.98348">
        <ele>95.31</ele>
        <time>2018-07-07T16:07:41Z</time>
      </trkpt>
      <trkpt lat="49.44679" lon="0.98342">
        <ele>95.31</ele>
        <time>2018-07-07T16:07:42Z</time>
      </trkpt>
      <trkpt lat="49.44679" lon="0.98336">
        <ele>95.31</ele>
        <time>2018-07-07T16:07:43Z</time>
      </trkpt>
      <trkpt lat="49.44679" lon="0.98331">
        <ele>95.31</ele>
        <time>2018-07-07T16:07:44Z</time>
      </trkpt>
      <trkpt lat="49.4468" lon="0.98325">
        <ele>95.31</ele>
        <time>2018-07-07T16:07:45Z</time>
      </trkpt>
      <trkpt lat="49.44693" lon="0.98254">
        <ele>95.79</ele>
        <time>2018-07-07T16:07:57Z</time>
      </trkpt>
      <trkpt lat="49.44707" lon="0.98182">
        <ele>96.27</ele>
        <time>2018-07-07T16:08:09Z</time>
      </trkpt>
      <trkpt lat="49.44709" lon="0.98168">
        <ele>95.31</ele>
        <time>2018-07-07T16:08:11Z</time>
      </trkpt>
      <trkpt lat="49.44709" lon="0.98161">
        <ele>95.31</ele>
        <time>2018-07-07T16:08:12Z</time>
      </trkpt>
      <trkpt lat="49.44712" lon="0.98117">
        <ele>94.35</ele>
        <time>2018-07-07T16:08:18Z</time>
      </trkpt>
      <trkpt lat="49.44714" lon="0.98084">
        <ele>93.39</ele>
        <time>2018-07-07T16:08:22Z</time>
      </trkpt>
      <trkpt lat="49.44717" lon="0.98065">
        <ele>92.9</ele>
        <time>2018-07-07T16:08:24Z</time>
      </trkpt>
      <trkpt lat="49.44723" lon="0.98">
        <ele>89.06</ele>
        <time>2018-07-07T16:08:30Z</time>
      </trkpt>
      <trkpt lat="49.4473" lon="0.97924">
        <ele>86.66</ele>
        <time>2018-07-07T16:08:36Z</time>
      </trkpt>
      <trkpt lat="49.44733" lon="0.97899">
        <ele>85.21</ele>
        <time>2018-07-07T16:08:38Z</time>
      </trkpt>
      <trkpt lat="49.44738" lon="0.97863">
        <ele>82.81</ele>
        <time>2018-07-07T16:08:41Z</time>
      </trkpt>
      <trkpt lat="49.44745" lon="0.97816">
        <ele>79.45</ele>
        <time>2018-07-07T16:08:45Z</time>
      </trkpt>
      <trkpt lat="49.44752" lon="0.97772">
        <ele>76.08</ele>
        <time>2018-07-07T16:08:49Z</time>
      </trkpt>
      <trkpt lat="49.44756" lon="0.97744">
        <ele>74.64</ele>
        <time>2018-07-07T16:08:52Z</time>
      </trkpt>
      <trkpt lat="49.44762" lon="0.97705">
        <ele>71.76</ele>
        <time>2018-07-07T16:08:57Z</time>
      </trkpt>
      <trkpt lat="49.44762" lon="0.97698">
        <ele>71.76</ele>
        <time>2018-07-07T16:08:58Z</time>
      </trkpt>
      <trkpt lat="49.44762" lon="0.97654">
        <ele>68.87</ele>
        <time>2018-07-07T16:09:06Z</time>
      </trkpt>
      <trkpt lat="49.44758" lon="0.97593">
        <ele>65.51</ele>
        <time>2018-07-07T16:09:16Z</time>
      </trkpt>
      <trkpt lat="49.44757" lon="0.9758">
        <ele>65.03</ele>
        <time>2018-07-07T16:09:18Z</time>
      </trkpt>
      <trkpt lat="49.44757" lon="0.97573">
        <ele>65.03</ele>
        <time>2018-07-07T16:09:19Z</time>
      </trkpt>
      <trkpt lat="49.44756" lon="0.97525">
        <ele>61.66</ele>
        <time>2018-07-07T16:09:26Z</time>
      </trkpt>
      <trkpt lat="49.44757" lon="0.97476">
        <ele>58.3</ele>
        <time>2018-07-07T16:09:35Z</time>
      </trkpt>
      <trkpt lat="49.44763" lon="0.9742">
        <ele>54.93</ele>
        <time>2018-07-07T16:09:46Z</time>
      </trkpt>
      <trkpt lat="49.44776" lon="0.9738">
        <ele>52.53</ele>
        <time>2018-07-07T16:09:53Z</time>
      </trkpt>
      <trkpt lat="49.44777" lon="0.97374">
        <ele>52.05</ele>
        <time>2018-07-07T16:09:54Z</time>
      </trkpt>
      <trkpt lat="49.44779" lon="0.97367">
        <ele>52.05</ele>
        <time>2018-07-07T16:09:55Z</time>
      </trkpt>
      <trkpt lat="49.4478" lon="0.9736">
        <ele>51.57</ele>
        <time>2018-07-07T16:09:56Z</time>
      </trkpt>
      <trkpt lat="49.44781" lon="0.97354">
        <ele>50.61</ele>
        <time>2018-07-07T16:09:57Z</time>
      </trkpt>
      <trkpt lat="49.44782" lon="0.97348">
        <ele>50.13</ele>
        <time>2018-07-07T16:09:58Z</time>
      </trkpt>
      <trkpt lat="49.44782" lon="0.97343">
        <ele>50.13</ele>
        <time>2018-07-07T16:09:59Z</time>
      </trkpt>
      <trkpt lat="49.44794" lon="0.97296">
        <ele>47.24</ele>
        <time>2018-07-07T16:10:08Z</time>
      </trkpt>
      <trkpt lat="49.44795" lon="0.97294">
        <ele>46.76</ele>
        <time>2018-07-07T16:10:09Z</time>
      </trkpt>
      <trkpt lat="49.44795" lon="0.97293">
        <ele>46.76</ele>
        <time>2018-07-07T16:10:10Z</time>
      </trkpt>
      <trkpt lat="49.44798" lon="0.97284">
        <ele>46.28</ele>
        <time>2018-07-07T16:10:17Z</time>
      </trkpt>
      <trkpt lat="49.44799" lon="0.97281">
        <ele>45.32</ele>
        <time>2018-07-07T16:10:19Z</time>
      </trkpt>
      <trkpt lat="49.448" lon="0.97278">
        <ele>45.8</ele>
        <time>2018-07-07T16:10:20Z</time>
      </trkpt>
      <trkpt lat="49.44806" lon="0.97241">
        <ele>42.92</ele>
        <time>2018-07-07T16:10:30Z</time>
      </trkpt>
      <trkpt lat="49.44807" lon="0.97232">
        <ele>42.44</ele>
        <time>2018-07-07T16:10:32Z</time>
      </trkpt>
      <trkpt lat="49.44808" lon="0.97229">
        <ele>42.44</ele>
        <time>2018-07-07T16:10:33Z</time>
      </trkpt>
      <trkpt lat="49.44809" lon="0.97226">
        <ele>41.95</ele>
        <time>2018-07-07T16:10:34Z</time>
      </trkpt>
      <trkpt lat="49.44809" lon="0.97224">
        <ele>41.95</ele>
        <time>2018-07-07T16:10:35Z</time>
      </trkpt>
      <trkpt lat="49.44807" lon="0.97217">
        <ele>41.47</ele>
        <time>2018-07-07T16:10:43Z</time>
      </trkpt>
      <trkpt lat="49.44805" lon="0.97211">
        <ele>41.47</ele>
        <time>2018-07-07T16:10:58Z</time>
      </trkpt>
      <trkpt lat="49.44806" lon="0.97209">
        <ele>41.47</ele>
        <time>2018-07-07T16:11:10Z</time>
      </trkpt>
      <trkpt lat="49.44806" lon="0.97208">
        <ele>41.47</ele>
        <time>2018-07-07T16:11:14Z</time>
      </trkpt>
      <trkpt lat="49.44806" lon="0.97206">
        <ele>41.47</ele>
        <time>2018-07-07T16:11:15Z</time>
      </trkpt>
      <trkpt lat="49.44806" lon="0.97204">
        <ele>40.99</ele>
        <time>2018-07-07T16:11:16Z</time>
      </trkpt>
      <trkpt lat="49.44806" lon="0.97202">
        <ele>40.99</ele>
        <time>2018-07-07T16:11:17Z</time>
      </trkpt>
      <trkpt lat="49.44807" lon="0.97199">
        <ele>40.99</ele>
        <time>2018-07-07T16:11:18Z</time>
      </trkpt>
      <trkpt lat="49.44809" lon="0.97196">
        <ele>40.51</ele>
        <time>2018-07-07T16:11:19Z</time>
      </trkpt>
      <trkpt lat="49.44813" lon="0.97193">
        <ele>40.51</ele>
        <time>2018-07-07T16:11:20Z</time>
      </trkpt>
      <trkpt lat="49.44816" lon="0.97192">
        <ele>40.51</ele>
        <time>2018-07-07T16:11:21Z</time>
      </trkpt>
      <trkpt lat="49.4482" lon="0.97191">
        <ele>40.03</ele>
        <time>2018-07-07T16:11:22Z</time>
      </trkpt>
      <trkpt lat="49.44824" lon="0.9719">
        <ele>40.03</ele>
        <time>2018-07-07T16:11:23Z</time>
      </trkpt>
      <trkpt lat="49.44829" lon="0.97188">
        <ele>40.03</ele>
        <time>2018-07-07T16:11:24Z</time>
      </trkpt>
      <trkpt lat="49.44843" lon="0.97178">
        <ele>39.55</ele>
        <time>2018-07-07T16:11:27Z</time>
      </trkpt>
      <trkpt lat="49.44848" lon="0.97174">
        <ele>39.55</ele>
        <time>2018-07-07T16:11:28Z</time>
      </trkpt>
      <trkpt lat="49.44853" lon="0.97168">
        <ele>39.07</ele>
        <time>2018-07-07T16:11:29Z</time>
      </trkpt>
      <trkpt lat="49.44857" lon="0.97161">
        <ele>39.07</ele>
        <time>2018-07-07T16:11:30Z</time>
      </trkpt>
      <trkpt lat="49.4486" lon="0.97154">
        <ele>39.07</ele>
        <time>2018-07-07T16:11:31Z</time>
      </trkpt>
      <trkpt lat="49.44863" lon="0.97145">
        <ele>39.07</ele>
        <time>2018-07-07T16:11:32Z</time>
      </trkpt>
      <trkpt lat="49.44866" lon="0.97136">
        <ele>38.59</ele>
        <time>2018-07-07T16:11:33Z</time>
      </trkpt>
      <trkpt lat="49.44869" lon="0.97125">
        <ele>38.59</ele>
        <time>2018-07-07T16:11:34Z</time>
      </trkpt>
      <trkpt lat="49.44871" lon="0.97117">
        <ele>38.11</ele>
        <time>2018-07-07T16:11:35Z</time>
      </trkpt>
      <trkpt lat="49.44872" lon="0.97108">
        <ele>38.11</ele>
        <time>2018-07-07T16:11:36Z</time>
      </trkpt>
      <trkpt lat="49.44873" lon="0.97097">
        <ele>37.63</ele>
        <time>2018-07-07T16:11:37Z</time>
      </trkpt>
      <trkpt lat="49.44874" lon="0.97087">
        <ele>37.63</ele>
        <time>2018-07-07T16:11:38Z</time>
      </trkpt>
      <trkpt lat="49.44874" lon="0.97076">
        <ele>36.67</ele>
        <time>2018-07-07T16:11:39Z</time>
      </trkpt>
      <trkpt lat="49.44873" lon="0.97064">
        <ele>36.67</ele>
        <time>2018-07-07T16:11:40Z</time>
      </trkpt>
      <trkpt lat="49.44869" lon="0.9698">
        <ele>33.3</ele>
        <time>2018-07-07T16:11:47Z</time>
      </trkpt>
      <trkpt lat="49.44884" lon="0.96873">
        <ele>29.46</ele>
        <time>2018-07-07T16:11:55Z</time>
      </trkpt>
      <trkpt lat="49.44895" lon="0.96818">
        <ele>28.02</ele>
        <time>2018-07-07T16:11:59Z</time>
      </trkpt>
      <trkpt lat="49.44921" lon="0.96695">
        <ele>26.57</ele>
        <time>2018-07-07T16:12:10Z</time>
      </trkpt>
      <trkpt lat="49.44928" lon="0.96656">
        <ele>28.02</ele>
        <time>2018-07-07T16:12:15Z</time>
      </trkpt>
      <trkpt lat="49.44931" lon="0.96643">
        <ele>28.02</ele>
        <time>2018-07-07T16:12:17Z</time>
      </trkpt>
      <trkpt lat="49.44964" lon="0.96544">
        <ele>29.46</ele>
        <time>2018-07-07T16:12:34Z</time>
      </trkpt>
      <trkpt lat="49.45026" lon="0.96475">
        <ele>28.98</ele>
        <time>2018-07-07T16:12:52Z</time>
      </trkpt>
      <trkpt lat="49.45094" lon="0.96405">
        <ele>28.98</ele>
        <time>2018-07-07T16:13:11Z</time>
      </trkpt>
      <trkpt lat="49.45162" lon="0.96355">
        <ele>28.98</ele>
        <time>2018-07-07T16:13:29Z</time>
      </trkpt>
      <trkpt lat="49.45191" lon="0.96344">
        <ele>28.98</ele>
        <time>2018-07-07T16:13:36Z</time>
      </trkpt>
      <trkpt lat="49.45236" lon="0.96334">
        <ele>29.46</ele>
        <time>2018-07-07T16:13:50Z</time>
      </trkpt>
      <trkpt lat="49.45286" lon="0.96331">
        <ele>31.38</ele>
        <time>2018-07-07T16:14:10Z</time>
      </trkpt>
      <trkpt lat="49.45336" lon="0.96337">
        <ele>34.26</ele>
        <time>2018-07-07T16:14:30Z</time>
      </trkpt>
      <trkpt lat="49.4538" lon="0.96342">
        <ele>36.67</ele>
        <time>2018-07-07T16:14:48Z</time>
      </trkpt>
      <trkpt lat="49.4542" lon="0.96347">
        <ele>39.07</ele>
        <time>2018-07-07T16:15:04Z</time>
      </trkpt>
      <trkpt lat="49.45463" lon="0.96354">
        <ele>40.99</ele>
        <time>2018-07-07T16:15:21Z</time>
      </trkpt>
      <trkpt lat="49.45501" lon="0.96359">
        <ele>43.4</ele>
        <time>2018-07-07T16:15:37Z</time>
      </trkpt>
      <trkpt lat="49.45538" lon="0.96364">
        <ele>45.32</ele>
        <time>2018-07-07T16:15:52Z</time>
      </trkpt>
      <trkpt lat="49.45544" lon="0.96368">
        <ele>45.32</ele>
        <time>2018-07-07T16:15:55Z</time>
      </trkpt>
      <trkpt lat="49.45546" lon="0.96369">
        <ele>45.32</ele>
        <time>2018-07-07T16:15:56Z</time>
      </trkpt>
      <trkpt lat="49.45565" lon="0.96385">
        <ele>48.68</ele>
        <time>2018-07-07T16:16:09Z</time>
      </trkpt>
      <trkpt lat="49.45585" lon="0.96399">
        <ele>52.05</ele>
        <time>2018-07-07T16:16:24Z</time>
      </trkpt>
      <trkpt lat="49.45602" lon="0.96408">
        <ele>54.45</ele>
        <time>2018-07-07T16:16:37Z</time>
      </trkpt>
      <trkpt lat="49.45619" lon="0.96412">
        <ele>56.37</ele>
        <time>2018-07-07T16:16:49Z</time>
      </trkpt>
      <trkpt lat="49.45639" lon="0.96419">
        <ele>59.74</ele>
        <time>2018-07-07T16:17:03Z</time>
      </trkpt>
      <trkpt lat="49.45654" lon="0.96425">
        <ele>61.66</ele>
        <time>2018-07-07T16:17:13Z</time>
      </trkpt>
      <trkpt lat="49.45655" lon="0.96425">
        <ele>62.14</ele>
        <time>2018-07-07T16:17:14Z</time>
      </trkpt>
      <trkpt lat="49.45657" lon="0.96426">
        <ele>62.14</ele>
        <time>2018-07-07T16:17:15Z</time>
      </trkpt>
      <trkpt lat="49.45677" lon="0.96435">
        <ele>65.51</ele>
        <time>2018-07-07T16:17:29Z</time>
      </trkpt>
      <trkpt lat="49.45701" lon="0.96443">
        <ele>67.91</ele>
        <time>2018-07-07T16:17:43Z</time>
      </trkpt>
      <trkpt lat="49.45729" lon="0.96441">
        <ele>69.83</ele>
        <time>2018-07-07T16:17:59Z</time>
      </trkpt>
      <trkpt lat="49.45759" lon="0.96423">
        <ele>71.27</ele>
        <time>2018-07-07T16:18:14Z</time>
      </trkpt>
      <trkpt lat="49.45796" lon="0.96417">
        <ele>74.16</ele>
        <time>2018-07-07T16:18:33Z</time>
      </trkpt>
      <trkpt lat="49.4583" lon="0.96417">
        <ele>77.52</ele>
        <time>2018-07-07T16:18:52Z</time>
      </trkpt>
      <trkpt lat="49.45841" lon="0.96416">
        <ele>78.97</ele>
        <time>2018-07-07T16:18:58Z</time>
      </trkpt>
      <trkpt lat="49.45842" lon="0.96416">
        <ele>79.45</ele>
        <time>2018-07-07T16:18:59Z</time>
      </trkpt>
      <trkpt lat="49.45844" lon="0.96416">
        <ele>79.45</ele>
        <time>2018-07-07T16:19:00Z</time>
      </trkpt>
      <trkpt lat="49.45845" lon="0.96416">
        <ele>79.45</ele>
        <time>2018-07-07T16:19:01Z</time>
      </trkpt>
      <trkpt lat="49.45847" lon="0.96416">
        <ele>79.45</ele>
        <time>2018-07-07T16:19:02Z</time>
      </trkpt>
      <trkpt lat="49.45849" lon="0.96415">
        <ele>79.93</ele>
        <time>2018-07-07T16:19:03Z</time>
      </trkpt>
      <trkpt lat="49.45869" lon="0.96409">
        <ele>82.81</ele>
        <time>2018-07-07T16:19:16Z</time>
      </trkpt>
      <trkpt lat="49.45871" lon="0.96409">
        <ele>82.33</ele>
        <time>2018-07-07T16:19:17Z</time>
      </trkpt>
      <trkpt lat="49.45873" lon="0.96408">
        <ele>82.81</ele>
        <time>2018-07-07T16:19:18Z</time>
      </trkpt>
      <trkpt lat="49.45903" lon="0.96394">
        <ele>85.21</ele>
        <time>2018-07-07T16:19:34Z</time>
      </trkpt>
      <trkpt lat="49.45926" lon="0.96387">
        <ele>87.62</ele>
        <time>2018-07-07T16:19:48Z</time>
      </trkpt>
      <trkpt lat="49.45947" lon="0.96379">
        <ele>89.54</ele>
        <time>2018-07-07T16:20:01Z</time>
      </trkpt>
      <trkpt lat="49.45972" lon="0.96354">
        <ele>90.98</ele>
        <time>2018-07-07T16:20:14Z</time>
      </trkpt>
      <trkpt lat="49.46013" lon="0.96326">
        <ele>90.5</ele>
        <time>2018-07-07T16:20:26Z</time>
      </trkpt>
      <trkpt lat="49.4606" lon="0.96307">
        <ele>91.94</ele>
        <time>2018-07-07T16:20:42Z</time>
      </trkpt>
      <trkpt lat="49.46081" lon="0.963">
        <ele>93.87</ele>
        <time>2018-07-07T16:20:53Z</time>
      </trkpt>
      <trkpt lat="49.46088" lon="0.96297">
        <ele>94.35</ele>
        <time>2018-07-07T16:20:57Z</time>
      </trkpt>
      <trkpt lat="49.4609" lon="0.96296">
        <ele>94.35</ele>
        <time>2018-07-07T16:20:58Z</time>
      </trkpt>
      <trkpt lat="49.46114" lon="0.96287">
        <ele>97.23</ele>
        <time>2018-07-07T16:21:14Z</time>
      </trkpt>
      <trkpt lat="49.46138" lon="0.96279">
        <ele>99.15</ele>
        <time>2018-07-07T16:21:27Z</time>
      </trkpt>
      <trkpt lat="49.46161" lon="0.96271">
        <ele>101.56</ele>
        <time>2018-07-07T16:21:41Z</time>
      </trkpt>
      <trkpt lat="49.46184" lon="0.96267">
        <ele>104.44</ele>
        <time>2018-07-07T16:21:57Z</time>
      </trkpt>
      <trkpt lat="49.46204" lon="0.96268">
        <ele>107.81</ele>
        <time>2018-07-07T16:22:10Z</time>
      </trkpt>
      <trkpt lat="49.46223" lon="0.96272">
        <ele>110.21</ele>
        <time>2018-07-07T16:22:22Z</time>
      </trkpt>
      <trkpt lat="49.46237" lon="0.96277">
        <ele>112.61</ele>
        <time>2018-07-07T16:22:31Z</time>
      </trkpt>
      <trkpt lat="49.46239" lon="0.96278">
        <ele>112.61</ele>
        <time>2018-07-07T16:22:32Z</time>
      </trkpt>
      <trkpt lat="49.46243" lon="0.96281">
        <ele>113.57</ele>
        <time>2018-07-07T16:22:35Z</time>
      </trkpt>
      <trkpt lat="49.46245" lon="0.96281">
        <ele>113.57</ele>
        <time>2018-07-07T16:22:36Z</time>
      </trkpt>
      <trkpt lat="49.46247" lon="0.96282">
        <ele>114.53</ele>
        <time>2018-07-07T16:22:37Z</time>
      </trkpt>
      <trkpt lat="49.46248" lon="0.96283">
        <ele>114.53</ele>
        <time>2018-07-07T16:22:38Z</time>
      </trkpt>
      <trkpt lat="49.4625" lon="0.96285">
        <ele>114.53</ele>
        <time>2018-07-07T16:22:39Z</time>
      </trkpt>
      <trkpt lat="49.46252" lon="0.96286">
        <ele>115.5</ele>
        <time>2018-07-07T16:22:40Z</time>
      </trkpt>
      <trkpt lat="49.46254" lon="0.96288">
        <ele>115.5</ele>
        <time>2018-07-07T16:22:41Z</time>
      </trkpt>
      <trkpt lat="49.46258" lon="0.96289">
        <ele>115.98</ele>
        <time>2018-07-07T16:22:43Z</time>
      </trkpt>
      <trkpt lat="49.4626" lon="0.9629">
        <ele>115.98</ele>
        <time>2018-07-07T16:22:44Z</time>
      </trkpt>
      <trkpt lat="49.46262" lon="0.96291">
        <ele>115.98</ele>
        <time>2018-07-07T16:22:45Z</time>
      </trkpt>
      <trkpt lat="49.46282" lon="0.96295">
        <ele>119.34</ele>
        <time>2018-07-07T16:22:58Z</time>
      </trkpt>
      <trkpt lat="49.463" lon="0.96299">
        <ele>121.74</ele>
        <time>2018-07-07T16:23:10Z</time>
      </trkpt>
      <trkpt lat="49.46317" lon="0.96306">
        <ele>123.67</ele>
        <time>2018-07-07T16:23:22Z</time>
      </trkpt>
      <trkpt lat="49.46338" lon="0.96305">
        <ele>125.59</ele>
        <time>2018-07-07T16:23:34Z</time>
      </trkpt>
      <trkpt lat="49.46362" lon="0.96296">
        <ele>127.99</ele>
        <time>2018-07-07T16:23:47Z</time>
      </trkpt>
      <trkpt lat="49.46397" lon="0.96279">
        <ele>129.43</ele>
        <time>2018-07-07T16:24:02Z</time>
      </trkpt>
      <trkpt lat="49.46412" lon="0.96251">
        <ele>130.4</ele>
        <time>2018-07-07T16:24:12Z</time>
      </trkpt>
      <trkpt lat="49.46433" lon="0.96208">
        <ele>130.4</ele>
        <time>2018-07-07T16:24:22Z</time>
      </trkpt>
      <trkpt lat="49.46436" lon="0.96204">
        <ele>130.4</ele>
        <time>2018-07-07T16:24:23Z</time>
      </trkpt>
      <trkpt lat="49.4644" lon="0.96201">
        <ele>130.4</ele>
        <time>2018-07-07T16:24:24Z</time>
      </trkpt>
      <trkpt lat="49.46457" lon="0.96189">
        <ele>130.4</ele>
        <time>2018-07-07T16:24:28Z</time>
      </trkpt>
      <trkpt lat="49.46461" lon="0.96185">
        <ele>130.4</ele>
        <time>2018-07-07T16:24:29Z</time>
      </trkpt>
      <trkpt lat="49.46465" lon="0.9618">
        <ele>130.4</ele>
        <time>2018-07-07T16:24:30Z</time>
      </trkpt>
      <trkpt lat="49.46468" lon="0.96176">
        <ele>130.4</ele>
        <time>2018-07-07T16:24:31Z</time>
      </trkpt>
      <trkpt lat="49.46472" lon="0.96172">
        <ele>130.4</ele>
        <time>2018-07-07T16:24:32Z</time>
      </trkpt>
      <trkpt lat="49.46476" lon="0.96169">
        <ele>130.4</ele>
        <time>2018-07-07T16:24:33Z</time>
      </trkpt>
      <trkpt lat="49.46497" lon="0.96156">
        <ele>129.92</ele>
        <time>2018-07-07T16:24:38Z</time>
      </trkpt>
      <trkpt lat="49.46546" lon="0.9614">
        <ele>131.36</ele>
        <time>2018-07-07T16:24:51Z</time>
      </trkpt>
      <trkpt lat="49.4655" lon="0.96138">
        <ele>131.36</ele>
        <time>2018-07-07T16:24:52Z</time>
      </trkpt>
      <trkpt lat="49.46553" lon="0.96134">
        <ele>131.36</ele>
        <time>2018-07-07T16:24:53Z</time>
      </trkpt>
      <trkpt lat="49.46577" lon="0.96106">
        <ele>130.88</ele>
        <time>2018-07-07T16:25:00Z</time>
      </trkpt>
      <trkpt lat="49.46595" lon="0.96075">
        <ele>130.88</ele>
        <time>2018-07-07T16:25:06Z</time>
      </trkpt>
      <trkpt lat="49.46598" lon="0.9607">
        <ele>130.88</ele>
        <time>2018-07-07T16:25:07Z</time>
      </trkpt>
      <trkpt lat="49.46602" lon="0.96067">
        <ele>130.88</ele>
        <time>2018-07-07T16:25:08Z</time>
      </trkpt>
      <trkpt lat="49.46614" lon="0.96058">
        <ele>130.88</ele>
        <time>2018-07-07T16:25:11Z</time>
      </trkpt>
      <trkpt lat="49.46618" lon="0.96054">
        <ele>130.88</ele>
        <time>2018-07-07T16:25:12Z</time>
      </trkpt>
      <trkpt lat="49.46628" lon="0.96042">
        <ele>130.88</ele>
        <time>2018-07-07T16:25:15Z</time>
      </trkpt>
      <trkpt lat="49.46632" lon="0.96037">
        <ele>130.88</ele>
        <time>2018-07-07T16:25:16Z</time>
      </trkpt>
      <trkpt lat="49.4664" lon="0.96026">
        <ele>130.88</ele>
        <time>2018-07-07T16:25:18Z</time>
      </trkpt>
      <trkpt lat="49.46645" lon="0.96021">
        <ele>130.88</ele>
        <time>2018-07-07T16:25:19Z</time>
      </trkpt>
      <trkpt lat="49.4665" lon="0.96018">
        <ele>130.88</ele>
        <time>2018-07-07T16:25:20Z</time>
      </trkpt>
      <trkpt lat="49.46655" lon="0.96015">
        <ele>130.88</ele>
        <time>2018-07-07T16:25:21Z</time>
      </trkpt>
      <trkpt lat="49.4666" lon="0.96013">
        <ele>130.88</ele>
        <time>2018-07-07T16:25:22Z</time>
      </trkpt>
      <trkpt lat="49.46665" lon="0.9601">
        <ele>129.92</ele>
        <time>2018-07-07T16:25:23Z</time>
      </trkpt>
      <trkpt lat="49.46669" lon="0.96007">
        <ele>129.92</ele>
        <time>2018-07-07T16:25:24Z</time>
      </trkpt>
      <trkpt lat="49.46687" lon="0.95997">
        <ele>129.43</ele>
        <time>2018-07-07T16:25:28Z</time>
      </trkpt>
      <trkpt lat="49.46705" lon="0.9599">
        <ele>129.43</ele>
        <time>2018-07-07T16:25:32Z</time>
      </trkpt>
      <trkpt lat="49.46722" lon="0.95979">
        <ele>129.43</ele>
        <time>2018-07-07T16:25:36Z</time>
      </trkpt>
      <trkpt lat="49.46727" lon="0.95977">
        <ele>129.43</ele>
        <time>2018-07-07T16:25:37Z</time>
      </trkpt>
      <trkpt lat="49.46761" lon="0.95952">
        <ele>129.43</ele>
        <time>2018-07-07T16:25:46Z</time>
      </trkpt>
      <trkpt lat="49.46766" lon="0.95949">
        <ele>129.43</ele>
        <time>2018-07-07T16:25:47Z</time>
      </trkpt>
      <trkpt lat="49.4677" lon="0.95947">
        <ele>129.43</ele>
        <time>2018-07-07T16:25:48Z</time>
      </trkpt>
      <trkpt lat="49.46774" lon="0.95944">
        <ele>129.43</ele>
        <time>2018-07-07T16:25:49Z</time>
      </trkpt>
      <trkpt lat="49.46778" lon="0.95942">
        <ele>129.43</ele>
        <time>2018-07-07T16:25:50Z</time>
      </trkpt>
      <trkpt lat="49.46782" lon="0.95939">
        <ele>129.43</ele>
        <time>2018-07-07T16:25:51Z</time>
      </trkpt>
      <trkpt lat="49.46786" lon="0.95938">
        <ele>129.43</ele>
        <time>2018-07-07T16:25:52Z</time>
      </trkpt>
      <trkpt lat="49.46798" lon="0.95935">
        <ele>129.43</ele>
        <time>2018-07-07T16:25:55Z</time>
      </trkpt>
      <trkpt lat="49.46802" lon="0.95933">
        <ele>129.43</ele>
        <time>2018-07-07T16:25:56Z</time>
      </trkpt>
      <trkpt lat="49.46806" lon="0.95932">
        <ele>129.43</ele>
        <time>2018-07-07T16:25:57Z</time>
      </trkpt>
      <trkpt lat="49.4681" lon="0.9593">
        <ele>129.43</ele>
        <time>2018-07-07T16:25:58Z</time>
      </trkpt>
      <trkpt lat="49.46814" lon="0.95927">
        <ele>129.43</ele>
        <time>2018-07-07T16:25:59Z</time>
      </trkpt>
      <trkpt lat="49.46819" lon="0.95925">
        <ele>129.43</ele>
        <time>2018-07-07T16:26:00Z</time>
      </trkpt>
      <trkpt lat="49.46823" lon="0.95925">
        <ele>129.43</ele>
        <time>2018-07-07T16:26:01Z</time>
      </trkpt>
      <trkpt lat="49.46827" lon="0.95926">
        <ele>129.43</ele>
        <time>2018-07-07T16:26:02Z</time>
      </trkpt>
      <trkpt lat="49.4683" lon="0.95926">
        <ele>130.88</ele>
        <time>2018-07-07T16:26:03Z</time>
      </trkpt>
      <trkpt lat="49.46834" lon="0.95927">
        <ele>130.88</ele>
        <time>2018-07-07T16:26:04Z</time>
      </trkpt>
      <trkpt lat="49.4687" lon="0.95916">
        <ele>131.36</ele>
        <time>2018-07-07T16:26:14Z</time>
      </trkpt>
      <trkpt lat="49.46905" lon="0.95894">
        <ele>131.84</ele>
        <time>2018-07-07T16:26:23Z</time>
      </trkpt>
      <trkpt lat="49.46951" lon="0.95875">
        <ele>132.32</ele>
        <time>2018-07-07T16:26:34Z</time>
      </trkpt>
      <trkpt lat="49.46955" lon="0.95874">
        <ele>132.32</ele>
        <time>2018-07-07T16:26:35Z</time>
      </trkpt>
      <trkpt lat="49.4696" lon="0.95873">
        <ele>132.32</ele>
        <time>2018-07-07T16:26:36Z</time>
      </trkpt>
      <trkpt lat="49.46971" lon="0.95871">
        <ele>132.32</ele>
        <time>2018-07-07T16:26:39Z</time>
      </trkpt>
      <trkpt lat="49.46974" lon="0.95867">
        <ele>132.32</ele>
        <time>2018-07-07T16:26:40Z</time>
      </trkpt>
      <trkpt lat="49.46977" lon="0.95863">
        <ele>132.32</ele>
        <time>2018-07-07T16:26:41Z</time>
      </trkpt>
      <trkpt lat="49.46979" lon="0.9586">
        <ele>132.32</ele>
        <time>2018-07-07T16:26:42Z</time>
      </trkpt>
      <trkpt lat="49.46982" lon="0.95857">
        <ele>132.32</ele>
        <time>2018-07-07T16:26:43Z</time>
      </trkpt>
      <trkpt lat="49.46984" lon="0.95854">
        <ele>132.32</ele>
        <time>2018-07-07T16:26:44Z</time>
      </trkpt>
      <trkpt lat="49.47016" lon="0.95845">
        <ele>132.32</ele>
        <time>2018-07-07T16:26:53Z</time>
      </trkpt>
      <trkpt lat="49.47037" lon="0.95836">
        <ele>132.32</ele>
        <time>2018-07-07T16:26:59Z</time>
      </trkpt>
      <trkpt lat="49.4704" lon="0.95832">
        <ele>132.32</ele>
        <time>2018-07-07T16:27:00Z</time>
      </trkpt>
      <trkpt lat="49.47043" lon="0.95828">
        <ele>132.32</ele>
        <time>2018-07-07T16:27:01Z</time>
      </trkpt>
      <trkpt lat="49.47055" lon="0.95809">
        <ele>132.32</ele>
        <time>2018-07-07T16:27:05Z</time>
      </trkpt>
      <trkpt lat="49.47058" lon="0.95804">
        <ele>132.32</ele>
        <time>2018-07-07T16:27:06Z</time>
      </trkpt>
      <trkpt lat="49.47065" lon="0.95796">
        <ele>132.32</ele>
        <time>2018-07-07T16:27:08Z</time>
      </trkpt>
      <trkpt lat="49.47078" lon="0.95784">
        <ele>132.32</ele>
        <time>2018-07-07T16:27:11Z</time>
      </trkpt>
      <trkpt lat="49.47082" lon="0.95781">
        <ele>132.32</ele>
        <time>2018-07-07T16:27:12Z</time>
      </trkpt>
      <trkpt lat="49.47087" lon="0.95778">
        <ele>132.32</ele>
        <time>2018-07-07T16:27:13Z</time>
      </trkpt>
      <trkpt lat="49.47101" lon="0.9577">
        <ele>132.32</ele>
        <time>2018-07-07T16:27:16Z</time>
      </trkpt>
      <trkpt lat="49.47106" lon="0.95768">
        <ele>132.32</ele>
        <time>2018-07-07T16:27:17Z</time>
      </trkpt>
      <trkpt lat="49.47112" lon="0.95767">
        <ele>132.32</ele>
        <time>2018-07-07T16:27:18Z</time>
      </trkpt>
      <trkpt lat="49.47117" lon="0.95765">
        <ele>132.32</ele>
        <time>2018-07-07T16:27:19Z</time>
      </trkpt>
      <trkpt lat="49.47122" lon="0.95762">
        <ele>132.32</ele>
        <time>2018-07-07T16:27:20Z</time>
      </trkpt>
      <trkpt lat="49.47127" lon="0.95759">
        <ele>132.32</ele>
        <time>2018-07-07T16:27:21Z</time>
      </trkpt>
      <trkpt lat="49.47132" lon="0.95756">
        <ele>132.32</ele>
        <time>2018-07-07T16:27:22Z</time>
      </trkpt>
      <trkpt lat="49.47158" lon="0.95739">
        <ele>130.88</ele>
        <time>2018-07-07T16:27:27Z</time>
      </trkpt>
      <trkpt lat="49.47162" lon="0.95734">
        <ele>130.88</ele>
        <time>2018-07-07T16:27:28Z</time>
      </trkpt>
      <trkpt lat="49.4719" lon="0.95688">
        <ele>129.43</ele>
        <time>2018-07-07T16:27:35Z</time>
      </trkpt>
      <trkpt lat="49.47194" lon="0.95681">
        <ele>129.43</ele>
        <time>2018-07-07T16:27:36Z</time>
      </trkpt>
      <trkpt lat="49.47204" lon="0.95659">
        <ele>128.95</ele>
        <time>2018-07-07T16:27:39Z</time>
      </trkpt>
      <trkpt lat="49.47208" lon="0.95652">
        <ele>128.95</ele>
        <time>2018-07-07T16:27:40Z</time>
      </trkpt>
      <trkpt lat="49.47211" lon="0.95644">
        <ele>128.95</ele>
        <time>2018-07-07T16:27:41Z</time>
      </trkpt>
      <trkpt lat="49.47214" lon="0.95635">
        <ele>127.99</ele>
        <time>2018-07-07T16:27:42Z</time>
      </trkpt>
      <trkpt lat="49.47217" lon="0.95626">
        <ele>127.99</ele>
        <time>2018-07-07T16:27:43Z</time>
      </trkpt>
      <trkpt lat="49.47231" lon="0.95578">
        <ele>127.03</ele>
        <time>2018-07-07T16:27:48Z</time>
      </trkpt>
      <trkpt lat="49.47232" lon="0.9557">
        <ele>127.03</ele>
        <time>2018-07-07T16:27:49Z</time>
      </trkpt>
      <trkpt lat="49.47236" lon="0.95546">
        <ele>127.03</ele>
        <time>2018-07-07T16:27:52Z</time>
      </trkpt>
      <trkpt lat="49.47238" lon="0.95538">
        <ele>127.03</ele>
        <time>2018-07-07T16:27:53Z</time>
      </trkpt>
      <trkpt lat="49.47239" lon="0.95531">
        <ele>127.03</ele>
        <time>2018-07-07T16:27:54Z</time>
      </trkpt>
      <trkpt lat="49.47241" lon="0.95524">
        <ele>127.03</ele>
        <time>2018-07-07T16:27:55Z</time>
      </trkpt>
      <trkpt lat="49.47244" lon="0.95519">
        <ele>127.03</ele>
        <time>2018-07-07T16:27:56Z</time>
      </trkpt>
      <trkpt lat="49.47247" lon="0.95513">
        <ele>127.03</ele>
        <time>2018-07-07T16:27:57Z</time>
      </trkpt>
      <trkpt lat="49.47257" lon="0.95488">
        <ele>127.03</ele>
        <time>2018-07-07T16:28:01Z</time>
      </trkpt>
      <trkpt lat="49.4726" lon="0.95482">
        <ele>127.03</ele>
        <time>2018-07-07T16:28:02Z</time>
      </trkpt>
      <trkpt lat="49.47262" lon="0.95476">
        <ele>127.03</ele>
        <time>2018-07-07T16:28:03Z</time>
      </trkpt>
      <trkpt lat="49.47266" lon="0.9547">
        <ele>127.03</ele>
        <time>2018-07-07T16:28:04Z</time>
      </trkpt>
      <trkpt lat="49.47269" lon="0.95465">
        <ele>127.03</ele>
        <time>2018-07-07T16:28:05Z</time>
      </trkpt>
      <trkpt lat="49.47272" lon="0.9546">
        <ele>127.03</ele>
        <time>2018-07-07T16:28:06Z</time>
      </trkpt>
      <trkpt lat="49.47282" lon="0.95444">
        <ele>127.03</ele>
        <time>2018-07-07T16:28:09Z</time>
      </trkpt>
      <trkpt lat="49.47286" lon="0.95438">
        <ele>127.03</ele>
        <time>2018-07-07T16:28:10Z</time>
      </trkpt>
      <trkpt lat="49.4729" lon="0.95432">
        <ele>127.03</ele>
        <time>2018-07-07T16:28:11Z</time>
      </trkpt>
      <trkpt lat="49.47293" lon="0.95426">
        <ele>127.03</ele>
        <time>2018-07-07T16:28:12Z</time>
      </trkpt>
      <trkpt lat="49.47297" lon="0.95421">
        <ele>127.03</ele>
        <time>2018-07-07T16:28:13Z</time>
      </trkpt>
      <trkpt lat="49.473" lon="0.95416">
        <ele>127.03</ele>
        <time>2018-07-07T16:28:14Z</time>
      </trkpt>
      <trkpt lat="49.47304" lon="0.95411">
        <ele>127.03</ele>
        <time>2018-07-07T16:28:15Z</time>
      </trkpt>
      <trkpt lat="49.47309" lon="0.95408">
        <ele>127.03</ele>
        <time>2018-07-07T16:28:16Z</time>
      </trkpt>
      <trkpt lat="49.47313" lon="0.95406">
        <ele>127.03</ele>
        <time>2018-07-07T16:28:17Z</time>
      </trkpt>
      <trkpt lat="49.47317" lon="0.95404">
        <ele>127.03</ele>
        <time>2018-07-07T16:28:18Z</time>
      </trkpt>
      <trkpt lat="49.47336" lon="0.95395">
        <ele>126.55</ele>
        <time>2018-07-07T16:28:22Z</time>
      </trkpt>
      <trkpt lat="49.47341" lon="0.95395">
        <ele>126.55</ele>
        <time>2018-07-07T16:28:23Z</time>
      </trkpt>
      <trkpt lat="49.47346" lon="0.95397">
        <ele>126.55</ele>
        <time>2018-07-07T16:28:24Z</time>
      </trkpt>
      <trkpt lat="49.47359" lon="0.95418">
        <ele>126.07</ele>
        <time>2018-07-07T16:28:28Z</time>
      </trkpt>
      <trkpt lat="49.47362" lon="0.95426">
        <ele>126.07</ele>
        <time>2018-07-07T16:28:29Z</time>
      </trkpt>
      <trkpt lat="49.47364" lon="0.9543">
        <ele>126.07</ele>
        <time>2018-07-07T16:28:30Z</time>
      </trkpt>
      <trkpt lat="49.47365" lon="0.95437">
        <ele>126.07</ele>
        <time>2018-07-07T16:28:31Z</time>
      </trkpt>
      <trkpt lat="49.47367" lon="0.95443">
        <ele>126.07</ele>
        <time>2018-07-07T16:28:32Z</time>
      </trkpt>
      <trkpt lat="49.47368" lon="0.9545">
        <ele>126.07</ele>
        <time>2018-07-07T16:28:33Z</time>
      </trkpt>
      <trkpt lat="49.47383" lon="0.95526">
        <ele>124.15</ele>
        <time>2018-07-07T16:28:42Z</time>
      </trkpt>
      <trkpt lat="49.47383" lon="0.95534">
        <ele>123.19</ele>
        <time>2018-07-07T16:28:43Z</time>
      </trkpt>
      <trkpt lat="49.47384" lon="0.95544">
        <ele>122.71</ele>
        <time>2018-07-07T16:28:44Z</time>
      </trkpt>
      <trkpt lat="49.47385" lon="0.95553">
        <ele>122.71</ele>
        <time>2018-07-07T16:28:45Z</time>
      </trkpt>
      <trkpt lat="49.47387" lon="0.95583">
        <ele>122.71</ele>
        <time>2018-07-07T16:28:48Z</time>
      </trkpt>
      <trkpt lat="49.47391" lon="0.95641">
        <ele>122.71</ele>
        <time>2018-07-07T16:28:58Z</time>
      </trkpt>
      <trkpt lat="49.47404" lon="0.95697">
        <ele>124.63</ele>
        <time>2018-07-07T16:29:10Z</time>
      </trkpt>
      <trkpt lat="49.4742" lon="0.95729">
        <ele>123.19</ele>
        <time>2018-07-07T16:29:17Z</time>
      </trkpt>
      <trkpt lat="49.47423" lon="0.95736">
        <ele>122.71</ele>
        <time>2018-07-07T16:29:18Z</time>
      </trkpt>
      <trkpt lat="49.47426" lon="0.95742">
        <ele>122.71</ele>
        <time>2018-07-07T16:29:19Z</time>
      </trkpt>
      <trkpt lat="49.47427" lon="0.95749">
        <ele>122.71</ele>
        <time>2018-07-07T16:29:20Z</time>
      </trkpt>
      <trkpt lat="49.47428" lon="0.95754">
        <ele>122.71</ele>
        <time>2018-07-07T16:29:21Z</time>
      </trkpt>
      <trkpt lat="49.47427" lon="0.95758">
        <ele>122.71</ele>
        <time>2018-07-07T16:29:22Z</time>
      </trkpt>
      <trkpt lat="49.47431" lon="0.95769">
        <ele>122.71</ele>
        <time>2018-07-07T16:29:29Z</time>
      </trkpt>
      <trkpt lat="49.47436" lon="0.95784">
        <ele>122.71</ele>
        <time>2018-07-07T16:29:35Z</time>
      </trkpt>
      <trkpt lat="49.47437" lon="0.95786">
        <ele>122.71</ele>
        <time>2018-07-07T16:29:36Z</time>
      </trkpt>
      <trkpt lat="49.47437" lon="0.95789">
        <ele>122.71</ele>
        <time>2018-07-07T16:29:37Z</time>
      </trkpt>
      <trkpt lat="49.47437" lon="0.95792">
        <ele>122.71</ele>
        <time>2018-07-07T16:29:38Z</time>
      </trkpt>
      <trkpt lat="49.47438" lon="0.95795">
        <ele>122.71</ele>
        <time>2018-07-07T16:29:39Z</time>
      </trkpt>
      <trkpt lat="49.47439" lon="0.95797">
        <ele>122.71</ele>
        <time>2018-07-07T16:29:40Z</time>
      </trkpt>
      <trkpt lat="49.4744" lon="0.958">
        <ele>122.71</ele>
        <time>2018-07-07T16:29:41Z</time>
      </trkpt>
      <trkpt lat="49.47441" lon="0.95803">
        <ele>124.15</ele>
        <time>2018-07-07T16:29:42Z</time>
      </trkpt>
      <trkpt lat="49.47442" lon="0.95807">
        <ele>124.15</ele>
        <time>2018-07-07T16:29:43Z</time>
      </trkpt>
      <trkpt lat="49.47461" lon="0.95837">
        <ele>127.03</ele>
        <time>2018-07-07T16:29:53Z</time>
      </trkpt>
      <trkpt lat="49.475" lon="0.95847">
        <ele>128.47</ele>
        <time>2018-07-07T16:30:04Z</time>
      </trkpt>
      <trkpt lat="49.47535" lon="0.95874">
        <ele>129.43</ele>
        <time>2018-07-07T16:30:16Z</time>
      </trkpt>
      <trkpt lat="49.47555" lon="0.95902">
        <ele>129.92</ele>
        <time>2018-07-07T16:30:24Z</time>
      </trkpt>
      <trkpt lat="49.4756" lon="0.95903">
        <ele>129.92</ele>
        <time>2018-07-07T16:30:25Z</time>
      </trkpt>
      <trkpt lat="49.47563" lon="0.95904">
        <ele>130.4</ele>
        <time>2018-07-07T16:30:26Z</time>
      </trkpt>
      <trkpt lat="49.47567" lon="0.95903">
        <ele>130.4</ele>
        <time>2018-07-07T16:30:27Z</time>
      </trkpt>
      <trkpt lat="49.47571" lon="0.95902">
        <ele>130.4</ele>
        <time>2018-07-07T16:30:28Z</time>
      </trkpt>
      <trkpt lat="49.47648" lon="0.9588">
        <ele>131.36</ele>
        <time>2018-07-07T16:30:46Z</time>
      </trkpt>
      <trkpt lat="49.47672" lon="0.95876">
        <ele>131.36</ele>
        <time>2018-07-07T16:30:51Z</time>
      </trkpt>
      <trkpt lat="49.47677" lon="0.95876">
        <ele>131.36</ele>
        <time>2018-07-07T16:30:52Z</time>
      </trkpt>
      <trkpt lat="49.47687" lon="0.95878">
        <ele>131.36</ele>
        <time>2018-07-07T16:30:54Z</time>
      </trkpt>
      <trkpt lat="49.47701" lon="0.95884">
        <ele>131.36</ele>
        <time>2018-07-07T16:30:57Z</time>
      </trkpt>
      <trkpt lat="49.47715" lon="0.95893">
        <ele>131.36</ele>
        <time>2018-07-07T16:31:00Z</time>
      </trkpt>
      <trkpt lat="49.47742" lon="0.95914">
        <ele>131.36</ele>
        <time>2018-07-07T16:31:06Z</time>
      </trkpt>
      <trkpt lat="49.47747" lon="0.95916">
        <ele>131.84</ele>
        <time>2018-07-07T16:31:07Z</time>
      </trkpt>
      <trkpt lat="49.47753" lon="0.95918">
        <ele>131.84</ele>
        <time>2018-07-07T16:31:08Z</time>
      </trkpt>
      <trkpt lat="49.47756" lon="0.95919">
        <ele>131.84</ele>
        <time>2018-07-07T16:31:09Z</time>
      </trkpt>
      <trkpt lat="49.47761" lon="0.95919">
        <ele>131.84</ele>
        <time>2018-07-07T16:31:10Z</time>
      </trkpt>
      <trkpt lat="49.47767" lon="0.95919">
        <ele>131.84</ele>
        <time>2018-07-07T16:31:11Z</time>
      </trkpt>
      <trkpt lat="49.47791" lon="0.95915">
        <ele>131.84</ele>
        <time>2018-07-07T16:31:16Z</time>
      </trkpt>
      <trkpt lat="49.47796" lon="0.95912">
        <ele>131.84</ele>
        <time>2018-07-07T16:31:17Z</time>
      </trkpt>
      <trkpt lat="49.4786" lon="0.95848">
        <ele>130.88</ele>
        <time>2018-07-07T16:31:31Z</time>
      </trkpt>
      <trkpt lat="49.47889" lon="0.95809">
        <ele>130.4</ele>
        <time>2018-07-07T16:31:38Z</time>
      </trkpt>
      <trkpt lat="49.47913" lon="0.95779">
        <ele>129.43</ele>
        <time>2018-07-07T16:31:44Z</time>
      </trkpt>
      <trkpt lat="49.47917" lon="0.95775">
        <ele>129.43</ele>
        <time>2018-07-07T16:31:45Z</time>
      </trkpt>
      <trkpt lat="49.47922" lon="0.95769">
        <ele>129.43</ele>
        <time>2018-07-07T16:31:46Z</time>
      </trkpt>
      <trkpt lat="49.47989" lon="0.95681">
        <ele>129.43</ele>
        <time>2018-07-07T16:32:02Z</time>
      </trkpt>
      <trkpt lat="49.4805" lon="0.95598">
        <ele>129.43</ele>
        <time>2018-07-07T16:32:17Z</time>
      </trkpt>
      <trkpt lat="49.48062" lon="0.95582">
        <ele>129.43</ele>
        <time>2018-07-07T16:32:20Z</time>
      </trkpt>
      <trkpt lat="49.48067" lon="0.95577">
        <ele>129.43</ele>
        <time>2018-07-07T16:32:21Z</time>
      </trkpt>
      <trkpt lat="49.4808" lon="0.95564">
        <ele>128.95</ele>
        <time>2018-07-07T16:32:24Z</time>
      </trkpt>
      <trkpt lat="49.48082" lon="0.95558">
        <ele>128.95</ele>
        <time>2018-07-07T16:32:25Z</time>
      </trkpt>
      <trkpt lat="49.48082" lon="0.9555">
        <ele>128.95</ele>
        <time>2018-07-07T16:32:26Z</time>
      </trkpt>
      <trkpt lat="49.48077" lon="0.95526">
        <ele>128.95</ele>
        <time>2018-07-07T16:32:29Z</time>
      </trkpt>
      <trkpt lat="49.48065" lon="0.95469">
        <ele>128.47</ele>
        <time>2018-07-07T16:32:36Z</time>
      </trkpt>
      <trkpt lat="49.48061" lon="0.95463">
        <ele>128.47</ele>
        <time>2018-07-07T16:32:37Z</time>
      </trkpt>
      <trkpt lat="49.48057" lon="0.95456">
        <ele>128.47</ele>
        <time>2018-07-07T16:32:38Z</time>
      </trkpt>
      <trkpt lat="49.48031" lon="0.95411">
        <ele>127.51</ele>
        <time>2018-07-07T16:32:45Z</time>
      </trkpt>
      <trkpt lat="49.4802" lon="0.9539">
        <ele>127.51</ele>
        <time>2018-07-07T16:32:48Z</time>
      </trkpt>
      <trkpt lat="49.48016" lon="0.95383">
        <ele>127.03</ele>
        <time>2018-07-07T16:32:49Z</time>
      </trkpt>
      <trkpt lat="49.48004" lon="0.95361">
        <ele>127.03</ele>
        <time>2018-07-07T16:32:52Z</time>
      </trkpt>
      <trkpt lat="49.47999" lon="0.95354">
        <ele>127.03</ele>
        <time>2018-07-07T16:32:53Z</time>
      </trkpt>
      <trkpt lat="49.47952" lon="0.95271">
        <ele>126.07</ele>
        <time>2018-07-07T16:33:05Z</time>
      </trkpt>
      <trkpt lat="49.4795" lon="0.95263">
        <ele>126.07</ele>
        <time>2018-07-07T16:33:06Z</time>
      </trkpt>
      <trkpt lat="49.47949" lon="0.95253">
        <ele>125.59</ele>
        <time>2018-07-07T16:33:07Z</time>
      </trkpt>
      <trkpt lat="49.4795" lon="0.95244">
        <ele>125.59</ele>
        <time>2018-07-07T16:33:08Z</time>
      </trkpt>
      <trkpt lat="49.47952" lon="0.95235">
        <ele>125.59</ele>
        <time>2018-07-07T16:33:09Z</time>
      </trkpt>
      <trkpt lat="49.47955" lon="0.95226">
        <ele>125.59</ele>
        <time>2018-07-07T16:33:10Z</time>
      </trkpt>
      <trkpt lat="49.47958" lon="0.95218">
        <ele>125.59</ele>
        <time>2018-07-07T16:33:11Z</time>
      </trkpt>
      <trkpt lat="49.47995" lon="0.95126">
        <ele>125.59</ele>
        <time>2018-07-07T16:33:23Z</time>
      </trkpt>
      <trkpt lat="49.47997" lon="0.95119">
        <ele>125.11</ele>
        <time>2018-07-07T16:33:24Z</time>
      </trkpt>
      <trkpt lat="49.48009" lon="0.95075">
        <ele>124.63</ele>
        <time>2018-07-07T16:33:31Z</time>
      </trkpt>
      <trkpt lat="49.48009" lon="0.95073">
        <ele>124.63</ele>
        <time>2018-07-07T16:33:32Z</time>
      </trkpt>
      <trkpt lat="49.48008" lon="0.95068">
        <ele>124.15</ele>
        <time>2018-07-07T16:33:38Z</time>
      </trkpt>
      <trkpt lat="49.48008" lon="0.95066">
        <ele>124.15</ele>
        <time>2018-07-07T16:33:39Z</time>
      </trkpt>
      <trkpt lat="49.48018" lon="0.95017">
        <ele>123.67</ele>
        <time>2018-07-07T16:33:50Z</time>
      </trkpt>
      <trkpt lat="49.48023" lon="0.95005">
        <ele>123.67</ele>
        <time>2018-07-07T16:33:52Z</time>
      </trkpt>
      <trkpt lat="49.48025" lon="0.94999">
        <ele>123.67</ele>
        <time>2018-07-07T16:33:53Z</time>
      </trkpt>
      <trkpt lat="49.48028" lon="0.94994">
        <ele>123.67</ele>
        <time>2018-07-07T16:33:54Z</time>
      </trkpt>
      <trkpt lat="49.48037" lon="0.9497">
        <ele>123.67</ele>
        <time>2018-07-07T16:33:58Z</time>
      </trkpt>
      <trkpt lat="49.48039" lon="0.94965">
        <ele>123.19</ele>
        <time>2018-07-07T16:33:59Z</time>
      </trkpt>
      <trkpt lat="49.48042" lon="0.94958">
        <ele>123.19</ele>
        <time>2018-07-07T16:34:00Z</time>
      </trkpt>
      <trkpt lat="49.48061" lon="0.94902">
        <ele>122.71</ele>
        <time>2018-07-07T16:34:08Z</time>
      </trkpt>
      <trkpt lat="49.48063" lon="0.94895">
        <ele>122.71</ele>
        <time>2018-07-07T16:34:09Z</time>
      </trkpt>
      <trkpt lat="49.48065" lon="0.94887">
        <ele>122.22</ele>
        <time>2018-07-07T16:34:10Z</time>
      </trkpt>
      <trkpt lat="49.48073" lon="0.94804">
        <ele>120.78</ele>
        <time>2018-07-07T16:34:19Z</time>
      </trkpt>
      <trkpt lat="49.48073" lon="0.94748">
        <ele>120.3</ele>
        <time>2018-07-07T16:34:25Z</time>
      </trkpt>
      <trkpt lat="49.48079" lon="0.94708">
        <ele>119.34</ele>
        <time>2018-07-07T16:34:29Z</time>
      </trkpt>
      <trkpt lat="49.48083" lon="0.94687">
        <ele>119.34</ele>
        <time>2018-07-07T16:34:31Z</time>
      </trkpt>
      <trkpt lat="49.48085" lon="0.94677">
        <ele>118.86</ele>
        <time>2018-07-07T16:34:32Z</time>
      </trkpt>
      <trkpt lat="49.48087" lon="0.94667">
        <ele>118.86</ele>
        <time>2018-07-07T16:34:33Z</time>
      </trkpt>
      <trkpt lat="49.4809" lon="0.94658">
        <ele>118.86</ele>
        <time>2018-07-07T16:34:34Z</time>
      </trkpt>
      <trkpt lat="49.48094" lon="0.94651">
        <ele>118.38</ele>
        <time>2018-07-07T16:34:35Z</time>
      </trkpt>
      <trkpt lat="49.48099" lon="0.94644">
        <ele>118.38</ele>
        <time>2018-07-07T16:34:36Z</time>
      </trkpt>
      <trkpt lat="49.48108" lon="0.94632">
        <ele>118.38</ele>
        <time>2018-07-07T16:34:38Z</time>
      </trkpt>
      <trkpt lat="49.48143" lon="0.94595">
        <ele>117.42</ele>
        <time>2018-07-07T16:34:45Z</time>
      </trkpt>
      <trkpt lat="49.48146" lon="0.94589">
        <ele>116.94</ele>
        <time>2018-07-07T16:34:46Z</time>
      </trkpt>
      <trkpt lat="49.48147" lon="0.94583">
        <ele>116.94</ele>
        <time>2018-07-07T16:34:47Z</time>
      </trkpt>
      <trkpt lat="49.48147" lon="0.94577">
        <ele>116.46</ele>
        <time>2018-07-07T16:34:48Z</time>
      </trkpt>
      <trkpt lat="49.48145" lon="0.94572">
        <ele>116.46</ele>
        <time>2018-07-07T16:34:49Z</time>
      </trkpt>
      <trkpt lat="49.48143" lon="0.94566">
        <ele>116.46</ele>
        <time>2018-07-07T16:34:50Z</time>
      </trkpt>
      <trkpt lat="49.48142" lon="0.94558">
        <ele>116.46</ele>
        <time>2018-07-07T16:34:51Z</time>
      </trkpt>
      <trkpt lat="49.4814" lon="0.9455">
        <ele>115.98</ele>
        <time>2018-07-07T16:34:52Z</time>
      </trkpt>
      <trkpt lat="49.48136" lon="0.94534">
        <ele>115.98</ele>
        <time>2018-07-07T16:34:54Z</time>
      </trkpt>
      <trkpt lat="49.48125" lon="0.94491">
        <ele>115.01</ele>
        <time>2018-07-07T16:34:59Z</time>
      </trkpt>
      <trkpt lat="49.48123" lon="0.94481">
        <ele>115.01</ele>
        <time>2018-07-07T16:35:00Z</time>
      </trkpt>
      <trkpt lat="49.48105" lon="0.94424">
        <ele>114.05</ele>
        <time>2018-07-07T16:35:06Z</time>
      </trkpt>
      <trkpt lat="49.48101" lon="0.94415">
        <ele>114.05</ele>
        <time>2018-07-07T16:35:07Z</time>
      </trkpt>
      <trkpt lat="49.48099" lon="0.94407">
        <ele>114.05</ele>
        <time>2018-07-07T16:35:08Z</time>
      </trkpt>
      <trkpt lat="49.48097" lon="0.94397">
        <ele>114.05</ele>
        <time>2018-07-07T16:35:09Z</time>
      </trkpt>
      <trkpt lat="49.48097" lon="0.94389">
        <ele>114.05</ele>
        <time>2018-07-07T16:35:10Z</time>
      </trkpt>
      <trkpt lat="49.48099" lon="0.9438">
        <ele>114.05</ele>
        <time>2018-07-07T16:35:11Z</time>
      </trkpt>
      <trkpt lat="49.48101" lon="0.94373">
        <ele>113.57</ele>
        <time>2018-07-07T16:35:12Z</time>
      </trkpt>
      <trkpt lat="49.4811" lon="0.94342">
        <ele>113.09</ele>
        <time>2018-07-07T16:35:16Z</time>
      </trkpt>
      <trkpt lat="49.48113" lon="0.94324">
        <ele>113.09</ele>
        <time>2018-07-07T16:35:18Z</time>
      </trkpt>
      <trkpt lat="49.48116" lon="0.94308">
        <ele>113.09</ele>
        <time>2018-07-07T16:35:20Z</time>
      </trkpt>
      <trkpt lat="49.4812" lon="0.94295">
        <ele>113.09</ele>
        <time>2018-07-07T16:35:22Z</time>
      </trkpt>
      <trkpt lat="49.48122" lon="0.94287">
        <ele>113.09</ele>
        <time>2018-07-07T16:35:23Z</time>
      </trkpt>
      <trkpt lat="49.48123" lon="0.9428">
        <ele>113.09</ele>
        <time>2018-07-07T16:35:24Z</time>
      </trkpt>
      <trkpt lat="49.48123" lon="0.94273">
        <ele>113.09</ele>
        <time>2018-07-07T16:35:25Z</time>
      </trkpt>
      <trkpt lat="49.48124" lon="0.94266">
        <ele>114.53</ele>
        <time>2018-07-07T16:35:26Z</time>
      </trkpt>
      <trkpt lat="49.48124" lon="0.94258">
        <ele>114.53</ele>
        <time>2018-07-07T16:35:27Z</time>
      </trkpt>
      <trkpt lat="49.48125" lon="0.9425">
        <ele>115.01</ele>
        <time>2018-07-07T16:35:28Z</time>
      </trkpt>
      <trkpt lat="49.48127" lon="0.94243">
        <ele>115.5</ele>
        <time>2018-07-07T16:35:29Z</time>
      </trkpt>
      <trkpt lat="49.48141" lon="0.94196">
        <ele>115.5</ele>
        <time>2018-07-07T16:35:36Z</time>
      </trkpt>
      <trkpt lat="49.48142" lon="0.94189">
        <ele>115.5</ele>
        <time>2018-07-07T16:35:37Z</time>
      </trkpt>
      <trkpt lat="49.48157" lon="0.94126">
        <ele>115.5</ele>
        <time>2018-07-07T16:35:45Z</time>
      </trkpt>
      <trkpt lat="49.48158" lon="0.94118">
        <ele>115.5</ele>
        <time>2018-07-07T16:35:46Z</time>
      </trkpt>
      <trkpt lat="49.48163" lon="0.94081">
        <ele>115.5</ele>
        <time>2018-07-07T16:35:50Z</time>
      </trkpt>
      <trkpt lat="49.48164" lon="0.94073">
        <ele>115.5</ele>
        <time>2018-07-07T16:35:51Z</time>
      </trkpt>
      <trkpt lat="49.48163" lon="0.94063">
        <ele>115.5</ele>
        <time>2018-07-07T16:35:52Z</time>
      </trkpt>
      <trkpt lat="49.48161" lon="0.94053">
        <ele>115.5</ele>
        <time>2018-07-07T16:35:53Z</time>
      </trkpt>
      <trkpt lat="49.48161" lon="0.94044">
        <ele>115.5</ele>
        <time>2018-07-07T16:35:54Z</time>
      </trkpt>
      <trkpt lat="49.48162" lon="0.94035">
        <ele>114.53</ele>
        <time>2018-07-07T16:35:55Z</time>
      </trkpt>
      <trkpt lat="49.48162" lon="0.94026">
        <ele>114.05</ele>
        <time>2018-07-07T16:35:56Z</time>
      </trkpt>
      <trkpt lat="49.48161" lon="0.94019">
        <ele>114.05</ele>
        <time>2018-07-07T16:35:57Z</time>
      </trkpt>
      <trkpt lat="49.48159" lon="0.94011">
        <ele>114.05</ele>
        <time>2018-07-07T16:35:58Z</time>
      </trkpt>
      <trkpt lat="49.48158" lon="0.94002">
        <ele>114.05</ele>
        <time>2018-07-07T16:35:59Z</time>
      </trkpt>
      <trkpt lat="49.48157" lon="0.93993">
        <ele>114.05</ele>
        <time>2018-07-07T16:36:00Z</time>
      </trkpt>
      <trkpt lat="49.48154" lon="0.93956">
        <ele>113.57</ele>
        <time>2018-07-07T16:36:04Z</time>
      </trkpt>
      <trkpt lat="49.48154" lon="0.93946">
        <ele>113.57</ele>
        <time>2018-07-07T16:36:05Z</time>
      </trkpt>
      <trkpt lat="49.48155" lon="0.93937">
        <ele>113.09</ele>
        <time>2018-07-07T16:36:06Z</time>
      </trkpt>
      <trkpt lat="49.48157" lon="0.93928">
        <ele>113.09</ele>
        <time>2018-07-07T16:36:07Z</time>
      </trkpt>
      <trkpt lat="49.48159" lon="0.93918">
        <ele>112.61</ele>
        <time>2018-07-07T16:36:08Z</time>
      </trkpt>
      <trkpt lat="49.48173" lon="0.93852">
        <ele>109.25</ele>
        <time>2018-07-07T16:36:14Z</time>
      </trkpt>
      <trkpt lat="49.48178" lon="0.93821">
        <ele>106.84</ele>
        <time>2018-07-07T16:36:17Z</time>
      </trkpt>
      <trkpt lat="49.48177" lon="0.93814">
        <ele>106.84</ele>
        <time>2018-07-07T16:36:18Z</time>
      </trkpt>
      <trkpt lat="49.48177" lon="0.93808">
        <ele>106.36</ele>
        <time>2018-07-07T16:36:19Z</time>
      </trkpt>
      <trkpt lat="49.48178" lon="0.938">
        <ele>106.36</ele>
        <time>2018-07-07T16:36:20Z</time>
      </trkpt>
      <trkpt lat="49.4818" lon="0.93793">
        <ele>105.4</ele>
        <time>2018-07-07T16:36:21Z</time>
      </trkpt>
      <trkpt lat="49.48182" lon="0.93785">
        <ele>105.4</ele>
        <time>2018-07-07T16:36:22Z</time>
      </trkpt>
      <trkpt lat="49.48184" lon="0.93776">
        <ele>104.44</ele>
        <time>2018-07-07T16:36:23Z</time>
      </trkpt>
      <trkpt lat="49.48185" lon="0.93766">
        <ele>103.48</ele>
        <time>2018-07-07T16:36:24Z</time>
      </trkpt>
      <trkpt lat="49.48186" lon="0.93755">
        <ele>103</ele>
        <time>2018-07-07T16:36:25Z</time>
      </trkpt>
      <trkpt lat="49.48199" lon="0.93634">
        <ele>101.56</ele>
        <time>2018-07-07T16:36:35Z</time>
      </trkpt>
      <trkpt lat="49.48202" lon="0.93623">
        <ele>101.08</ele>
        <time>2018-07-07T16:36:36Z</time>
      </trkpt>
      <trkpt lat="49.48211" lon="0.93602">
        <ele>99.63</ele>
        <time>2018-07-07T16:36:38Z</time>
      </trkpt>
      <trkpt lat="49.48216" lon="0.93592">
        <ele>99.15</ele>
        <time>2018-07-07T16:36:39Z</time>
      </trkpt>
      <trkpt lat="49.48236" lon="0.93553">
        <ele>98.19</ele>
        <time>2018-07-07T16:36:43Z</time>
      </trkpt>
      <trkpt lat="49.48239" lon="0.93542">
        <ele>97.23</ele>
        <time>2018-07-07T16:36:44Z</time>
      </trkpt>
      <trkpt lat="49.48245" lon="0.93509">
        <ele>96.75</ele>
        <time>2018-07-07T16:36:47Z</time>
      </trkpt>
      <trkpt lat="49.4825" lon="0.93498">
        <ele>96.75</ele>
        <time>2018-07-07T16:36:48Z</time>
      </trkpt>
      <trkpt lat="49.4826" lon="0.93477">
        <ele>96.27</ele>
        <time>2018-07-07T16:36:50Z</time>
      </trkpt>
      <trkpt lat="49.48283" lon="0.93434">
        <ele>96.75</ele>
        <time>2018-07-07T16:36:55Z</time>
      </trkpt>
      <trkpt lat="49.48286" lon="0.93427">
        <ele>96.75</ele>
        <time>2018-07-07T16:36:56Z</time>
      </trkpt>
      <trkpt lat="49.4829" lon="0.93421">
        <ele>97.23</ele>
        <time>2018-07-07T16:36:57Z</time>
      </trkpt>
      <trkpt lat="49.48296" lon="0.93409">
        <ele>98.19</ele>
        <time>2018-07-07T16:36:59Z</time>
      </trkpt>
      <trkpt lat="49.48306" lon="0.93384">
        <ele>101.08</ele>
        <time>2018-07-07T16:37:05Z</time>
      </trkpt>
      <trkpt lat="49.48328" lon="0.93352">
        <ele>103</ele>
        <time>2018-07-07T16:37:15Z</time>
      </trkpt>
      <trkpt lat="49.48335" lon="0.93337">
        <ele>103.48</ele>
        <time>2018-07-07T16:37:18Z</time>
      </trkpt>
      <trkpt lat="49.48335" lon="0.93332">
        <ele>103.96</ele>
        <time>2018-07-07T16:37:19Z</time>
      </trkpt>
      <trkpt lat="49.48336" lon="0.93327">
        <ele>103.96</ele>
        <time>2018-07-07T16:37:20Z</time>
      </trkpt>
      <trkpt lat="49.48338" lon="0.93321">
        <ele>103.96</ele>
        <time>2018-07-07T16:37:21Z</time>
      </trkpt>
      <trkpt lat="49.48341" lon="0.93316">
        <ele>103.96</ele>
        <time>2018-07-07T16:37:22Z</time>
      </trkpt>
      <trkpt lat="49.48371" lon="0.93259">
        <ele>105.4</ele>
        <time>2018-07-07T16:37:34Z</time>
      </trkpt>
      <trkpt lat="49.4838" lon="0.9323">
        <ele>105.4</ele>
        <time>2018-07-07T16:37:39Z</time>
      </trkpt>
      <trkpt lat="49.48382" lon="0.93224">
        <ele>105.4</ele>
        <time>2018-07-07T16:37:40Z</time>
      </trkpt>
      <trkpt lat="49.48384" lon="0.93217">
        <ele>105.4</ele>
        <time>2018-07-07T16:37:41Z</time>
      </trkpt>
      <trkpt lat="49.48386" lon="0.9321">
        <ele>105.4</ele>
        <time>2018-07-07T16:37:42Z</time>
      </trkpt>
      <trkpt lat="49.48386" lon="0.93203">
        <ele>103.96</ele>
        <time>2018-07-07T16:37:43Z</time>
      </trkpt>
      <trkpt lat="49.48386" lon="0.93194">
        <ele>103.48</ele>
        <time>2018-07-07T16:37:44Z</time>
      </trkpt>
      <trkpt lat="49.48386" lon="0.93184">
        <ele>102.52</ele>
        <time>2018-07-07T16:37:45Z</time>
      </trkpt>
      <trkpt lat="49.48382" lon="0.93153">
        <ele>100.6</ele>
        <time>2018-07-07T16:37:48Z</time>
      </trkpt>
      <trkpt lat="49.48381" lon="0.93136">
        <ele>99.15</ele>
        <time>2018-07-07T16:37:50Z</time>
      </trkpt>
      <trkpt lat="49.48382" lon="0.93119">
        <ele>97.71</ele>
        <time>2018-07-07T16:37:52Z</time>
      </trkpt>
      <trkpt lat="49.48383" lon="0.93112">
        <ele>96.27</ele>
        <time>2018-07-07T16:37:53Z</time>
      </trkpt>
      <trkpt lat="49.48384" lon="0.93106">
        <ele>95.31</ele>
        <time>2018-07-07T16:37:54Z</time>
      </trkpt>
      <trkpt lat="49.48386" lon="0.93096">
        <ele>94.35</ele>
        <time>2018-07-07T16:37:56Z</time>
      </trkpt>
      <trkpt lat="49.48386" lon="0.93083">
        <ele>92.42</ele>
        <time>2018-07-07T16:38:06Z</time>
      </trkpt>
      <trkpt lat="49.48386" lon="0.93079">
        <ele>92.42</ele>
        <time>2018-07-07T16:38:26Z</time>
      </trkpt>
      <trkpt lat="49.48388" lon="0.93076">
        <ele>91.46</ele>
        <time>2018-07-07T16:38:27Z</time>
      </trkpt>
      <trkpt lat="49.48389" lon="0.9307">
        <ele>90.98</ele>
        <time>2018-07-07T16:38:28Z</time>
      </trkpt>
      <trkpt lat="49.4839" lon="0.93063">
        <ele>90.5</ele>
        <time>2018-07-07T16:38:29Z</time>
      </trkpt>
      <trkpt lat="49.48393" lon="0.93056">
        <ele>90.02</ele>
        <time>2018-07-07T16:38:30Z</time>
      </trkpt>
      <trkpt lat="49.48397" lon="0.93039">
        <ele>87.62</ele>
        <time>2018-07-07T16:38:32Z</time>
      </trkpt>
      <trkpt lat="49.48402" lon="0.93004">
        <ele>84.25</ele>
        <time>2018-07-07T16:38:35Z</time>
      </trkpt>
      <trkpt lat="49.48405" lon="0.92994">
        <ele>83.77</ele>
        <time>2018-07-07T16:38:36Z</time>
      </trkpt>
      <trkpt lat="49.48409" lon="0.92983">
        <ele>82.33</ele>
        <time>2018-07-07T16:38:37Z</time>
      </trkpt>
      <trkpt lat="49.48412" lon="0.92972">
        <ele>81.37</ele>
        <time>2018-07-07T16:38:38Z</time>
      </trkpt>
      <trkpt lat="49.48415" lon="0.9296">
        <ele>81.37</ele>
        <time>2018-07-07T16:38:39Z</time>
      </trkpt>
      <trkpt lat="49.48418" lon="0.92948">
        <ele>80.89</ele>
        <time>2018-07-07T16:38:40Z</time>
      </trkpt>
      <trkpt lat="49.48424" lon="0.92925">
        <ele>79.93</ele>
        <time>2018-07-07T16:38:42Z</time>
      </trkpt>
      <trkpt lat="49.48425" lon="0.92915">
        <ele>79.93</ele>
        <time>2018-07-07T16:38:43Z</time>
      </trkpt>
      <trkpt lat="49.48428" lon="0.92896">
        <ele>79.93</ele>
        <time>2018-07-07T16:38:45Z</time>
      </trkpt>
      <trkpt lat="49.48429" lon="0.92889">
        <ele>81.85</ele>
        <time>2018-07-07T16:38:46Z</time>
      </trkpt>
      <trkpt lat="49.48432" lon="0.92884">
        <ele>81.85</ele>
        <time>2018-07-07T16:38:47Z</time>
      </trkpt>
      <trkpt lat="49.48433" lon="0.92879">
        <ele>81.85</ele>
        <time>2018-07-07T16:38:48Z</time>
      </trkpt>
      <trkpt lat="49.48435" lon="0.92874">
        <ele>81.85</ele>
        <time>2018-07-07T16:38:49Z</time>
      </trkpt>
      <trkpt lat="49.48437" lon="0.92869">
        <ele>81.85</ele>
        <time>2018-07-07T16:38:50Z</time>
      </trkpt>
      <trkpt lat="49.48439" lon="0.92862">
        <ele>81.85</ele>
        <time>2018-07-07T16:38:51Z</time>
      </trkpt>
      <trkpt lat="49.48441" lon="0.92854">
        <ele>80.41</ele>
        <time>2018-07-07T16:38:52Z</time>
      </trkpt>
      <trkpt lat="49.48443" lon="0.92845">
        <ele>79.45</ele>
        <time>2018-07-07T16:38:53Z</time>
      </trkpt>
      <trkpt lat="49.48449" lon="0.92824">
        <ele>77.52</ele>
        <time>2018-07-07T16:38:55Z</time>
      </trkpt>
      <trkpt lat="49.48452" lon="0.92812">
        <ele>77.52</ele>
        <time>2018-07-07T16:38:56Z</time>
      </trkpt>
      <trkpt lat="49.48461" lon="0.92772">
        <ele>75.12</ele>
        <time>2018-07-07T16:39:00Z</time>
      </trkpt>
      <trkpt lat="49.48469" lon="0.92746">
        <ele>72.24</ele>
        <time>2018-07-07T16:39:03Z</time>
      </trkpt>
      <trkpt lat="49.48472" lon="0.9273">
        <ele>70.31</ele>
        <time>2018-07-07T16:39:05Z</time>
      </trkpt>
      <trkpt lat="49.48473" lon="0.92722">
        <ele>68.39</ele>
        <time>2018-07-07T16:39:06Z</time>
      </trkpt>
      <trkpt lat="49.48474" lon="0.92714">
        <ele>67.91</ele>
        <time>2018-07-07T16:39:07Z</time>
      </trkpt>
      <trkpt lat="49.48475" lon="0.92706">
        <ele>66.47</ele>
        <time>2018-07-07T16:39:08Z</time>
      </trkpt>
      <trkpt lat="49.48475" lon="0.92699">
        <ele>65.03</ele>
        <time>2018-07-07T16:39:09Z</time>
      </trkpt>
      <trkpt lat="49.48476" lon="0.92694">
        <ele>63.58</ele>
        <time>2018-07-07T16:39:10Z</time>
      </trkpt>
      <trkpt lat="49.48479" lon="0.92691">
        <ele>63.1</ele>
        <time>2018-07-07T16:39:11Z</time>
      </trkpt>
      <trkpt lat="49.48482" lon="0.9269">
        <ele>62.14</ele>
        <time>2018-07-07T16:39:12Z</time>
      </trkpt>
      <trkpt lat="49.48487" lon="0.9269">
        <ele>61.18</ele>
        <time>2018-07-07T16:39:13Z</time>
      </trkpt>
      <trkpt lat="49.48491" lon="0.92692">
        <ele>60.7</ele>
        <time>2018-07-07T16:39:14Z</time>
      </trkpt>
      <trkpt lat="49.48495" lon="0.92697">
        <ele>59.74</ele>
        <time>2018-07-07T16:39:15Z</time>
      </trkpt>
      <trkpt lat="49.48499" lon="0.92703">
        <ele>59.26</ele>
        <time>2018-07-07T16:39:16Z</time>
      </trkpt>
      <trkpt lat="49.48503" lon="0.9271">
        <ele>59.26</ele>
        <time>2018-07-07T16:39:17Z</time>
      </trkpt>
      <trkpt lat="49.48507" lon="0.92718">
        <ele>58.3</ele>
        <time>2018-07-07T16:39:18Z</time>
      </trkpt>
      <trkpt lat="49.48511" lon="0.92726">
        <ele>57.34</ele>
        <time>2018-07-07T16:39:19Z</time>
      </trkpt>
      <trkpt lat="49.48514" lon="0.92734">
        <ele>56.37</ele>
        <time>2018-07-07T16:39:20Z</time>
      </trkpt>
      <trkpt lat="49.48524" lon="0.92755">
        <ele>52.05</ele>
        <time>2018-07-07T16:39:23Z</time>
      </trkpt>
      <trkpt lat="49.48527" lon="0.92762">
        <ele>51.09</ele>
        <time>2018-07-07T16:39:24Z</time>
      </trkpt>
      <trkpt lat="49.48531" lon="0.92765">
        <ele>50.61</ele>
        <time>2018-07-07T16:39:25Z</time>
      </trkpt>
      <trkpt lat="49.48534" lon="0.92766">
        <ele>50.13</ele>
        <time>2018-07-07T16:39:26Z</time>
      </trkpt>
      <trkpt lat="49.48538" lon="0.92764">
        <ele>49.16</ele>
        <time>2018-07-07T16:39:27Z</time>
      </trkpt>
      <trkpt lat="49.48542" lon="0.9276">
        <ele>48.2</ele>
        <time>2018-07-07T16:39:28Z</time>
      </trkpt>
      <trkpt lat="49.48545" lon="0.92756">
        <ele>47.24</ele>
        <time>2018-07-07T16:39:29Z</time>
      </trkpt>
      <trkpt lat="49.48548" lon="0.92751">
        <ele>46.28</ele>
        <time>2018-07-07T16:39:30Z</time>
      </trkpt>
      <trkpt lat="49.4855" lon="0.92745">
        <ele>45.32</ele>
        <time>2018-07-07T16:39:31Z</time>
      </trkpt>
      <trkpt lat="49.48553" lon="0.92739">
        <ele>43.88</ele>
        <time>2018-07-07T16:39:32Z</time>
      </trkpt>
      <trkpt lat="49.48556" lon="0.92732">
        <ele>42.92</ele>
        <time>2018-07-07T16:39:33Z</time>
      </trkpt>
      <trkpt lat="49.48559" lon="0.92726">
        <ele>41.95</ele>
        <time>2018-07-07T16:39:34Z</time>
      </trkpt>
      <trkpt lat="49.48561" lon="0.92721">
        <ele>40.99</ele>
        <time>2018-07-07T16:39:35Z</time>
      </trkpt>
      <trkpt lat="49.48563" lon="0.92716">
        <ele>40.03</ele>
        <time>2018-07-07T16:39:36Z</time>
      </trkpt>
      <trkpt lat="49.48566" lon="0.9271">
        <ele>39.07</ele>
        <time>2018-07-07T16:39:37Z</time>
      </trkpt>
      <trkpt lat="49.48567" lon="0.92704">
        <ele>38.11</ele>
        <time>2018-07-07T16:39:38Z</time>
      </trkpt>
      <trkpt lat="49.48572" lon="0.92681">
        <ele>34.26</ele>
        <time>2018-07-07T16:39:42Z</time>
      </trkpt>
      <trkpt lat="49.48574" lon="0.92661">
        <ele>30.9</ele>
        <time>2018-07-07T16:39:45Z</time>
      </trkpt>
      <trkpt lat="49.48575" lon="0.92639">
        <ele>27.53</ele>
        <time>2018-07-07T16:39:48Z</time>
      </trkpt>
      <trkpt lat="49.48575" lon="0.92622">
        <ele>24.17</ele>
        <time>2018-07-07T16:39:51Z</time>
      </trkpt>
      <trkpt lat="49.48576" lon="0.9261">
        <ele>22.73</ele>
        <time>2018-07-07T16:39:53Z</time>
      </trkpt>
      <trkpt lat="49.48575" lon="0.92602">
        <ele>22.25</ele>
        <time>2018-07-07T16:39:54Z</time>
      </trkpt>
      <trkpt lat="49.48573" lon="0.92595">
        <ele>22.25</ele>
        <time>2018-07-07T16:39:55Z</time>
      </trkpt>
      <trkpt lat="49.48569" lon="0.92579">
        <ele>22.25</ele>
        <time>2018-07-07T16:39:57Z</time>
      </trkpt>
      <trkpt lat="49.48567" lon="0.9257">
        <ele>21.77</ele>
        <time>2018-07-07T16:39:58Z</time>
      </trkpt>
      <trkpt lat="49.48547" lon="0.92501">
        <ele>19.84</ele>
        <time>2018-07-07T16:40:05Z</time>
      </trkpt>
      <trkpt lat="49.48527" lon="0.92429">
        <ele>16.96</ele>
        <time>2018-07-07T16:40:14Z</time>
      </trkpt>
      <trkpt lat="49.48525" lon="0.92422">
        <ele>16.96</ele>
        <time>2018-07-07T16:40:15Z</time>
      </trkpt>
      <trkpt lat="49.48523" lon="0.92416">
        <ele>16.96</ele>
        <time>2018-07-07T16:40:16Z</time>
      </trkpt>
      <trkpt lat="49.48521" lon="0.92412">
        <ele>16.48</ele>
        <time>2018-07-07T16:40:17Z</time>
      </trkpt>
      <trkpt lat="49.48518" lon="0.92408">
        <ele>16.48</ele>
        <time>2018-07-07T16:40:18Z</time>
      </trkpt>
      <trkpt lat="49.48515" lon="0.92404">
        <ele>16.48</ele>
        <time>2018-07-07T16:40:19Z</time>
      </trkpt>
      <trkpt lat="49.48507" lon="0.92395">
        <ele>16</ele>
        <time>2018-07-07T16:40:21Z</time>
      </trkpt>
      <trkpt lat="49.48498" lon="0.92388">
        <ele>16</ele>
        <time>2018-07-07T16:40:23Z</time>
      </trkpt>
      <trkpt lat="49.48479" lon="0.9238">
        <ele>15.04</ele>
        <time>2018-07-07T16:40:27Z</time>
      </trkpt>
      <trkpt lat="49.48474" lon="0.92376">
        <ele>15.52</ele>
        <time>2018-07-07T16:40:28Z</time>
      </trkpt>
      <trkpt lat="49.48471" lon="0.92372">
        <ele>15.04</ele>
        <time>2018-07-07T16:40:29Z</time>
      </trkpt>
      <trkpt lat="49.48469" lon="0.92366">
        <ele>15.04</ele>
        <time>2018-07-07T16:40:30Z</time>
      </trkpt>
      <trkpt lat="49.48469" lon="0.92359">
        <ele>14.56</ele>
        <time>2018-07-07T16:40:31Z</time>
      </trkpt>
      <trkpt lat="49.4847" lon="0.92353">
        <ele>15.04</ele>
        <time>2018-07-07T16:40:32Z</time>
      </trkpt>
      <trkpt lat="49.48472" lon="0.92347">
        <ele>14.56</ele>
        <time>2018-07-07T16:40:33Z</time>
      </trkpt>
      <trkpt lat="49.48474" lon="0.9234">
        <ele>14.56</ele>
        <time>2018-07-07T16:40:34Z</time>
      </trkpt>
      <trkpt lat="49.48498" lon="0.92224">
        <ele>14.08</ele>
        <time>2018-07-07T16:40:49Z</time>
      </trkpt>
      <trkpt lat="49.48524" lon="0.92127">
        <ele>17.44</ele>
        <time>2018-07-07T16:41:05Z</time>
      </trkpt>
      <trkpt lat="49.48533" lon="0.9211">
        <ele>20.81</ele>
        <time>2018-07-07T16:41:13Z</time>
      </trkpt>
      <trkpt lat="49.48545" lon="0.9209">
        <ele>23.69</ele>
        <time>2018-07-07T16:41:24Z</time>
      </trkpt>
      <trkpt lat="49.48562" lon="0.9208">
        <ele>27.53</ele>
        <time>2018-07-07T16:41:38Z</time>
      </trkpt>
      <trkpt lat="49.48569" lon="0.92092">
        <ele>28.98</ele>
        <time>2018-07-07T16:41:46Z</time>
      </trkpt>
      <trkpt lat="49.48569" lon="0.92094">
        <ele>28.98</ele>
        <time>2018-07-07T16:41:47Z</time>
      </trkpt>
      <trkpt lat="49.48571" lon="0.92121">
        <ele>31.86</ele>
        <time>2018-07-07T16:42:00Z</time>
      </trkpt>
      <trkpt lat="49.48574" lon="0.92145">
        <ele>35.23</ele>
        <time>2018-07-07T16:42:12Z</time>
      </trkpt>
      <trkpt lat="49.48582" lon="0.92167">
        <ele>38.11</ele>
        <time>2018-07-07T16:42:24Z</time>
      </trkpt>
      <trkpt lat="49.48587" lon="0.92176">
        <ele>39.55</ele>
        <time>2018-07-07T16:42:37Z</time>
      </trkpt>
      <trkpt lat="49.48595" lon="0.92188">
        <ele>40.99</ele>
        <time>2018-07-07T16:42:50Z</time>
      </trkpt>
      <trkpt lat="49.48601" lon="0.92198">
        <ele>41.95</ele>
        <time>2018-07-07T16:43:05Z</time>
      </trkpt>
      <trkpt lat="49.48606" lon="0.92203">
        <ele>42.44</ele>
        <time>2018-07-07T16:43:11Z</time>
      </trkpt>
      <trkpt lat="49.48607" lon="0.92203">
        <ele>42.92</ele>
        <time>2018-07-07T16:43:12Z</time>
      </trkpt>
      <trkpt lat="49.48622" lon="0.92213">
        <ele>45.8</ele>
        <time>2018-07-07T16:43:25Z</time>
      </trkpt>
      <trkpt lat="49.48634" lon="0.92232">
        <ele>48.2</ele>
        <time>2018-07-07T16:43:38Z</time>
      </trkpt>
      <trkpt lat="49.48648" lon="0.92257">
        <ele>50.61</ele>
        <time>2018-07-07T16:43:52Z</time>
      </trkpt>
      <trkpt lat="49.48663" lon="0.92275">
        <ele>52.53</ele>
        <time>2018-07-07T16:44:04Z</time>
      </trkpt>
      <trkpt lat="49.48683" lon="0.92294">
        <ele>54.45</ele>
        <time>2018-07-07T16:44:20Z</time>
      </trkpt>
      <trkpt lat="49.48692" lon="0.92307">
        <ele>55.41</ele>
        <time>2018-07-07T16:44:27Z</time>
      </trkpt>
      <trkpt lat="49.48713" lon="0.92318">
        <ele>58.3</ele>
        <time>2018-07-07T16:44:42Z</time>
      </trkpt>
      <trkpt lat="49.48734" lon="0.92329">
        <ele>60.7</ele>
        <time>2018-07-07T16:44:55Z</time>
      </trkpt>
      <trkpt lat="49.48758" lon="0.92347">
        <ele>63.1</ele>
        <time>2018-07-07T16:45:09Z</time>
      </trkpt>
      <trkpt lat="49.48777" lon="0.92361">
        <ele>65.99</ele>
        <time>2018-07-07T16:45:23Z</time>
      </trkpt>
      <trkpt lat="49.48793" lon="0.92372">
        <ele>68.39</ele>
        <time>2018-07-07T16:45:35Z</time>
      </trkpt>
      <trkpt lat="49.48812" lon="0.92386">
        <ele>71.27</ele>
        <time>2018-07-07T16:45:49Z</time>
      </trkpt>
      <trkpt lat="49.48829" lon="0.92401">
        <ele>74.64</ele>
        <time>2018-07-07T16:46:03Z</time>
      </trkpt>
      <trkpt lat="49.48842" lon="0.92409">
        <ele>77.04</ele>
        <time>2018-07-07T16:46:14Z</time>
      </trkpt>
      <trkpt lat="49.4885" lon="0.92415">
        <ele>78</ele>
        <time>2018-07-07T16:46:24Z</time>
      </trkpt>
      <trkpt lat="49.48857" lon="0.92422">
        <ele>79.45</ele>
        <time>2018-07-07T16:46:38Z</time>
      </trkpt>
      <trkpt lat="49.48867" lon="0.92428">
        <ele>81.85</ele>
        <time>2018-07-07T16:46:51Z</time>
      </trkpt>
      <trkpt lat="49.4887" lon="0.9243">
        <ele>82.33</ele>
        <time>2018-07-07T16:46:53Z</time>
      </trkpt>
      <trkpt lat="49.48871" lon="0.92432">
        <ele>82.33</ele>
        <time>2018-07-07T16:46:54Z</time>
      </trkpt>
      <trkpt lat="49.48883" lon="0.92445">
        <ele>85.69</ele>
        <time>2018-07-07T16:47:04Z</time>
      </trkpt>
      <trkpt lat="49.48901" lon="0.9246">
        <ele>89.06</ele>
        <time>2018-07-07T16:47:19Z</time>
      </trkpt>
      <trkpt lat="49.48915" lon="0.92471">
        <ele>91.46</ele>
        <time>2018-07-07T16:47:31Z</time>
      </trkpt>
      <trkpt lat="49.48916" lon="0.92473">
        <ele>92.42</ele>
        <time>2018-07-07T16:47:33Z</time>
      </trkpt>
      <trkpt lat="49.48918" lon="0.92475">
        <ele>92.42</ele>
        <time>2018-07-07T16:47:34Z</time>
      </trkpt>
      <trkpt lat="49.48919" lon="0.92476">
        <ele>92.42</ele>
        <time>2018-07-07T16:47:35Z</time>
      </trkpt>
      <trkpt lat="49.48927" lon="0.92483">
        <ele>93.87</ele>
        <time>2018-07-07T16:47:41Z</time>
      </trkpt>
      <trkpt lat="49.48939" lon="0.92493">
        <ele>97.23</ele>
        <time>2018-07-07T16:47:51Z</time>
      </trkpt>
      <trkpt lat="49.48953" lon="0.92504">
        <ele>100.11</ele>
        <time>2018-07-07T16:48:04Z</time>
      </trkpt>
      <trkpt lat="49.4897" lon="0.92514">
        <ele>102.52</ele>
        <time>2018-07-07T16:48:17Z</time>
      </trkpt>
      <trkpt lat="49.48987" lon="0.92525">
        <ele>104.92</ele>
        <time>2018-07-07T16:48:30Z</time>
      </trkpt>
      <trkpt lat="49.49005" lon="0.92526">
        <ele>107.32</ele>
        <time>2018-07-07T16:48:45Z</time>
      </trkpt>
      <trkpt lat="49.49025" lon="0.9251">
        <ele>110.21</ele>
        <time>2018-07-07T16:49:01Z</time>
      </trkpt>
      <trkpt lat="49.49047" lon="0.92491">
        <ele>112.13</ele>
        <time>2018-07-07T16:49:17Z</time>
      </trkpt>
      <trkpt lat="49.49068" lon="0.92479">
        <ele>113.57</ele>
        <time>2018-07-07T16:49:31Z</time>
      </trkpt>
      <trkpt lat="49.49092" lon="0.92465">
        <ele>115.01</ele>
        <time>2018-07-07T16:49:45Z</time>
      </trkpt>
      <trkpt lat="49.49116" lon="0.9245">
        <ele>116.46</ele>
        <time>2018-07-07T16:49:58Z</time>
      </trkpt>
      <trkpt lat="49.49132" lon="0.92445">
        <ele>116.46</ele>
        <time>2018-07-07T16:50:05Z</time>
      </trkpt>
      <trkpt lat="49.49135" lon="0.92444">
        <ele>116.94</ele>
        <time>2018-07-07T16:50:06Z</time>
      </trkpt>
      <trkpt lat="49.49137" lon="0.92443">
        <ele>116.94</ele>
        <time>2018-07-07T16:50:07Z</time>
      </trkpt>
      <trkpt lat="49.49181" lon="0.92412">
        <ele>117.9</ele>
        <time>2018-07-07T16:50:22Z</time>
      </trkpt>
      <trkpt lat="49.4922" lon="0.92389">
        <ele>118.38</ele>
        <time>2018-07-07T16:50:35Z</time>
      </trkpt>
      <trkpt lat="49.49278" lon="0.92351">
        <ele>119.34</ele>
        <time>2018-07-07T16:50:52Z</time>
      </trkpt>
      <trkpt lat="49.49347" lon="0.92305">
        <ele>119.82</ele>
        <time>2018-07-07T16:51:09Z</time>
      </trkpt>
      <trkpt lat="49.49377" lon="0.92285">
        <ele>119.82</ele>
        <time>2018-07-07T16:51:16Z</time>
      </trkpt>
      <trkpt lat="49.49419" lon="0.92258">
        <ele>118.38</ele>
        <time>2018-07-07T16:51:27Z</time>
      </trkpt>
      <trkpt lat="49.49432" lon="0.92248">
        <ele>118.38</ele>
        <time>2018-07-07T16:51:30Z</time>
      </trkpt>
      <trkpt lat="49.49476" lon="0.92219">
        <ele>117.9</ele>
        <time>2018-07-07T16:51:40Z</time>
      </trkpt>
      <trkpt lat="49.4948" lon="0.92216">
        <ele>117.9</ele>
        <time>2018-07-07T16:51:41Z</time>
      </trkpt>
      <trkpt lat="49.49563" lon="0.92166">
        <ele>116.94</ele>
        <time>2018-07-07T16:51:58Z</time>
      </trkpt>
      <trkpt lat="49.4964" lon="0.92128">
        <ele>115.98</ele>
        <time>2018-07-07T16:52:12Z</time>
      </trkpt>
      <trkpt lat="49.49723" lon="0.92093">
        <ele>114.05</ele>
        <time>2018-07-07T16:52:27Z</time>
      </trkpt>
      <trkpt lat="49.4975" lon="0.92084">
        <ele>113.57</ele>
        <time>2018-07-07T16:52:36Z</time>
      </trkpt>
      <trkpt lat="49.49752" lon="0.92083">
        <ele>113.57</ele>
        <time>2018-07-07T16:52:45Z</time>
      </trkpt>
      <trkpt lat="49.49754" lon="0.92082">
        <ele>113.57</ele>
        <time>2018-07-07T16:52:46Z</time>
      </trkpt>
      <trkpt lat="49.49756" lon="0.92081">
        <ele>113.57</ele>
        <time>2018-07-07T16:52:47Z</time>
      </trkpt>
      <trkpt lat="49.49758" lon="0.9208">
        <ele>113.57</ele>
        <time>2018-07-07T16:52:48Z</time>
      </trkpt>
      <trkpt lat="49.49761" lon="0.92079">
        <ele>113.57</ele>
        <time>2018-07-07T16:52:49Z</time>
      </trkpt>
      <trkpt lat="49.49764" lon="0.92078">
        <ele>113.09</ele>
        <time>2018-07-07T16:52:50Z</time>
      </trkpt>
      <trkpt lat="49.49769" lon="0.92077">
        <ele>113.09</ele>
        <time>2018-07-07T16:52:51Z</time>
      </trkpt>
      <trkpt lat="49.49774" lon="0.92075">
        <ele>113.09</ele>
        <time>2018-07-07T16:52:52Z</time>
      </trkpt>
      <trkpt lat="49.49779" lon="0.92074">
        <ele>112.61</ele>
        <time>2018-07-07T16:52:53Z</time>
      </trkpt>
      <trkpt lat="49.49859" lon="0.92051">
        <ele>112.61</ele>
        <time>2018-07-07T16:53:08Z</time>
      </trkpt>
      <trkpt lat="49.49885" lon="0.92039">
        <ele>112.13</ele>
        <time>2018-07-07T16:53:13Z</time>
      </trkpt>
      <trkpt lat="49.4989" lon="0.92035">
        <ele>112.13</ele>
        <time>2018-07-07T16:53:14Z</time>
      </trkpt>
      <trkpt lat="49.49894" lon="0.9203">
        <ele>112.13</ele>
        <time>2018-07-07T16:53:15Z</time>
      </trkpt>
      <trkpt lat="49.49898" lon="0.92024">
        <ele>111.65</ele>
        <time>2018-07-07T16:53:16Z</time>
      </trkpt>
      <trkpt lat="49.49901" lon="0.92017">
        <ele>111.65</ele>
        <time>2018-07-07T16:53:17Z</time>
      </trkpt>
      <trkpt lat="49.49902" lon="0.92008">
        <ele>111.17</ele>
        <time>2018-07-07T16:53:18Z</time>
      </trkpt>
      <trkpt lat="49.49902" lon="0.91999">
        <ele>111.17</ele>
        <time>2018-07-07T16:53:19Z</time>
      </trkpt>
      <trkpt lat="49.49902" lon="0.91974">
        <ele>111.17</ele>
        <time>2018-07-07T16:53:22Z</time>
      </trkpt>
      <trkpt lat="49.49897" lon="0.91955">
        <ele>109.73</ele>
        <time>2018-07-07T16:53:26Z</time>
      </trkpt>
      <trkpt lat="49.49898" lon="0.91902">
        <ele>107.81</ele>
        <time>2018-07-07T16:53:39Z</time>
      </trkpt>
      <trkpt lat="49.49912" lon="0.9183">
        <ele>104.44</ele>
        <time>2018-07-07T16:53:52Z</time>
      </trkpt>
      <trkpt lat="49.49921" lon="0.91761">
        <ele>102.52</ele>
        <time>2018-07-07T16:54:04Z</time>
      </trkpt>
      <trkpt lat="49.49937" lon="0.91711">
        <ele>100.6</ele>
        <time>2018-07-07T16:54:13Z</time>
      </trkpt>
      <trkpt lat="49.4994" lon="0.91686">
        <ele>100.11</ele>
        <time>2018-07-07T16:54:17Z</time>
      </trkpt>
      <trkpt lat="49.49942" lon="0.91634">
        <ele>98.67</ele>
        <time>2018-07-07T16:54:28Z</time>
      </trkpt>
      <trkpt lat="49.49942" lon="0.91631">
        <ele>98.67</ele>
        <time>2018-07-07T16:54:29Z</time>
      </trkpt>
      <trkpt lat="49.49942" lon="0.91589">
        <ele>97.71</ele>
        <time>2018-07-07T16:54:39Z</time>
      </trkpt>
      <trkpt lat="49.49942" lon="0.91571">
        <ele>97.23</ele>
        <time>2018-07-07T16:54:42Z</time>
      </trkpt>
      <trkpt lat="49.49942" lon="0.91483">
        <ele>94.83</ele>
        <time>2018-07-07T16:54:56Z</time>
      </trkpt>
      <trkpt lat="49.49945" lon="0.91424">
        <ele>93.39</ele>
        <time>2018-07-07T16:55:08Z</time>
      </trkpt>
      <trkpt lat="49.49948" lon="0.91405">
        <ele>92.9</ele>
        <time>2018-07-07T16:55:12Z</time>
      </trkpt>
      <trkpt lat="49.49964" lon="0.91363">
        <ele>90.02</ele>
        <time>2018-07-07T16:55:21Z</time>
      </trkpt>
      <trkpt lat="49.49975" lon="0.91292">
        <ele>88.1</ele>
        <time>2018-07-07T16:55:34Z</time>
      </trkpt>
      <trkpt lat="49.4998" lon="0.91237">
        <ele>86.66</ele>
        <time>2018-07-07T16:55:41Z</time>
      </trkpt>
      <trkpt lat="49.49979" lon="0.91182">
        <ele>84.73</ele>
        <time>2018-07-07T16:55:48Z</time>
      </trkpt>
      <trkpt lat="49.4998" lon="0.91108">
        <ele>82.81</ele>
        <time>2018-07-07T16:55:58Z</time>
      </trkpt>
      <trkpt lat="49.49988" lon="0.91014">
        <ele>79.93</ele>
        <time>2018-07-07T16:56:12Z</time>
      </trkpt>
      <trkpt lat="49.5001" lon="0.90945">
        <ele>78.48</ele>
        <time>2018-07-07T16:56:25Z</time>
      </trkpt>
      <trkpt lat="49.50038" lon="0.9089">
        <ele>77.04</ele>
        <time>2018-07-07T16:56:37Z</time>
      </trkpt>
      <trkpt lat="49.50045" lon="0.90867">
        <ele>76.08</ele>
        <time>2018-07-07T16:56:40Z</time>
      </trkpt>
      <trkpt lat="49.50049" lon="0.9084">
        <ele>75.12</ele>
        <time>2018-07-07T16:56:43Z</time>
      </trkpt>
      <trkpt lat="49.50057" lon="0.90781">
        <ele>73.68</ele>
        <time>2018-07-07T16:56:49Z</time>
      </trkpt>
      <trkpt lat="49.50075" lon="0.90714">
        <ele>71.27</ele>
        <time>2018-07-07T16:56:56Z</time>
      </trkpt>
      <trkpt lat="49.50103" lon="0.90642">
        <ele>68.39</ele>
        <time>2018-07-07T16:57:04Z</time>
      </trkpt>
      <trkpt lat="49.50135" lon="0.90532">
        <ele>65.51</ele>
        <time>2018-07-07T16:57:14Z</time>
      </trkpt>
      <trkpt lat="49.5014" lon="0.90509">
        <ele>64.55</ele>
        <time>2018-07-07T16:57:16Z</time>
      </trkpt>
      <trkpt lat="49.50147" lon="0.90474">
        <ele>63.58</ele>
        <time>2018-07-07T16:57:19Z</time>
      </trkpt>
      <trkpt lat="49.50153" lon="0.90452">
        <ele>62.14</ele>
        <time>2018-07-07T16:57:21Z</time>
      </trkpt>
      <trkpt lat="49.50167" lon="0.90395">
        <ele>60.22</ele>
        <time>2018-07-07T16:57:26Z</time>
      </trkpt>
      <trkpt lat="49.50172" lon="0.90372">
        <ele>59.26</ele>
        <time>2018-07-07T16:57:28Z</time>
      </trkpt>
      <trkpt lat="49.50177" lon="0.90336">
        <ele>57.34</ele>
        <time>2018-07-07T16:57:31Z</time>
      </trkpt>
      <trkpt lat="49.502" lon="0.90221">
        <ele>54.45</ele>
        <time>2018-07-07T16:57:41Z</time>
      </trkpt>
      <trkpt lat="49.50225" lon="0.90136">
        <ele>51.09</ele>
        <time>2018-07-07T16:57:49Z</time>
      </trkpt>
      <trkpt lat="49.50231" lon="0.90121">
        <ele>50.13</ele>
        <time>2018-07-07T16:57:51Z</time>
      </trkpt>
      <trkpt lat="49.50242" lon="0.90096">
        <ele>47.72</ele>
        <time>2018-07-07T16:57:55Z</time>
      </trkpt>
      <trkpt lat="49.50251" lon="0.90081">
        <ele>46.28</ele>
        <time>2018-07-07T16:57:58Z</time>
      </trkpt>
      <trkpt lat="49.50285" lon="0.90062">
        <ele>44.36</ele>
        <time>2018-07-07T16:58:09Z</time>
      </trkpt>
      <trkpt lat="49.5032" lon="0.90072">
        <ele>41.95</ele>
        <time>2018-07-07T16:58:23Z</time>
      </trkpt>
      <trkpt lat="49.50354" lon="0.90084">
        <ele>40.51</ele>
        <time>2018-07-07T16:58:37Z</time>
      </trkpt>
      <trkpt lat="49.50408" lon="0.90089">
        <ele>37.15</ele>
        <time>2018-07-07T16:58:56Z</time>
      </trkpt>
      <trkpt lat="49.50444" lon="0.90071">
        <ele>35.71</ele>
        <time>2018-07-07T16:59:12Z</time>
      </trkpt>
      <trkpt lat="49.50475" lon="0.90041">
        <ele>34.26</ele>
        <time>2018-07-07T16:59:29Z</time>
      </trkpt>
      <trkpt lat="49.50497" lon="0.90017">
        <ele>33.3</ele>
        <time>2018-07-07T16:59:43Z</time>
      </trkpt>
      <trkpt lat="49.50526" lon="0.89978">
        <ele>31.38</ele>
        <time>2018-07-07T16:59:58Z</time>
      </trkpt>
      <trkpt lat="49.50547" lon="0.89942">
        <ele>28.02</ele>
        <time>2018-07-07T17:00:07Z</time>
      </trkpt>
      <trkpt lat="49.50566" lon="0.89901">
        <ele>24.65</ele>
        <time>2018-07-07T17:00:16Z</time>
      </trkpt>
      <trkpt lat="49.50575" lon="0.89882">
        <ele>22.73</ele>
        <time>2018-07-07T17:00:20Z</time>
      </trkpt>
      <trkpt lat="49.50582" lon="0.89868">
        <ele>20.81</ele>
        <time>2018-07-07T17:00:23Z</time>
      </trkpt>
      <trkpt lat="49.50584" lon="0.89866">
        <ele>20.81</ele>
        <time>2018-07-07T17:00:24Z</time>
      </trkpt>
      <trkpt lat="49.50585" lon="0.89862">
        <ele>19.36</ele>
        <time>2018-07-07T17:00:36Z</time>
      </trkpt>
      <trkpt lat="49.50587" lon="0.8986">
        <ele>19.36</ele>
        <time>2018-07-07T17:00:58Z</time>
      </trkpt>
      <trkpt lat="49.50588" lon="0.89861">
        <ele>19.36</ele>
        <time>2018-07-07T17:00:59Z</time>
      </trkpt>
      <trkpt lat="49.50593" lon="0.89869">
        <ele>19.36</ele>
        <time>2018-07-07T17:01:05Z</time>
      </trkpt>
      <trkpt lat="49.50595" lon="0.89874">
        <ele>19.36</ele>
        <time>2018-07-07T17:01:07Z</time>
      </trkpt>
      <trkpt lat="49.50605" lon="0.89897">
        <ele>20.32</ele>
        <time>2018-07-07T17:01:13Z</time>
      </trkpt>
      <trkpt lat="49.50621" lon="0.89932">
        <ele>20.32</ele>
        <time>2018-07-07T17:01:20Z</time>
      </trkpt>
      <trkpt lat="49.50635" lon="0.89962">
        <ele>18.88</ele>
        <time>2018-07-07T17:01:25Z</time>
      </trkpt>
      <trkpt lat="49.50674" lon="0.90046">
        <ele>18.88</ele>
        <time>2018-07-07T17:01:38Z</time>
      </trkpt>
      <trkpt lat="49.50696" lon="0.90086">
        <ele>20.32</ele>
        <time>2018-07-07T17:01:47Z</time>
      </trkpt>
      <trkpt lat="49.50743" lon="0.90153">
        <ele>24.17</ele>
        <time>2018-07-07T17:02:05Z</time>
      </trkpt>
      <trkpt lat="49.50789" lon="0.90221">
        <ele>25.61</ele>
        <time>2018-07-07T17:02:23Z</time>
      </trkpt>
      <trkpt lat="49.50809" lon="0.90305">
        <ele>27.53</ele>
        <time>2018-07-07T17:02:39Z</time>
      </trkpt>
      <trkpt lat="49.50812" lon="0.90325">
        <ele>27.53</ele>
        <time>2018-07-07T17:02:42Z</time>
      </trkpt>
      <trkpt lat="49.50823" lon="0.90386">
        <ele>26.57</ele>
        <time>2018-07-07T17:02:50Z</time>
      </trkpt>
      <trkpt lat="49.50837" lon="0.90471">
        <ele>24.65</ele>
        <time>2018-07-07T17:03:00Z</time>
      </trkpt>
      <trkpt lat="49.50843" lon="0.90612">
        <ele>21.77</ele>
        <time>2018-07-07T17:03:14Z</time>
      </trkpt>
      <trkpt lat="49.50856" lon="0.90776">
        <ele>18.88</ele>
        <time>2018-07-07T17:03:30Z</time>
      </trkpt>
      <trkpt lat="49.50867" lon="0.90908">
        <ele>19.84</ele>
        <time>2018-07-07T17:03:47Z</time>
      </trkpt>
      <trkpt lat="49.50872" lon="0.90936">
        <ele>20.32</ele>
        <time>2018-07-07T17:03:52Z</time>
      </trkpt>
      <trkpt lat="49.50876" lon="0.90936">
        <ele>20.81</ele>
        <time>2018-07-07T17:03:54Z</time>
      </trkpt>
      <trkpt lat="49.50882" lon="0.90933">
        <ele>20.81</ele>
        <time>2018-07-07T17:03:55Z</time>
      </trkpt>
      <trkpt lat="49.50886" lon="0.90932">
        <ele>20.81</ele>
        <time>2018-07-07T17:03:56Z</time>
      </trkpt>
      <trkpt lat="49.5089" lon="0.90932">
        <ele>20.81</ele>
        <time>2018-07-07T17:03:57Z</time>
      </trkpt>
      <trkpt lat="49.50895" lon="0.90932">
        <ele>20.81</ele>
        <time>2018-07-07T17:03:58Z</time>
      </trkpt>
      <trkpt lat="49.50939" lon="0.90925">
        <ele>21.29</ele>
        <time>2018-07-07T17:04:07Z</time>
      </trkpt>
      <trkpt lat="49.50944" lon="0.90923">
        <ele>21.29</ele>
        <time>2018-07-07T17:04:08Z</time>
      </trkpt>
      <trkpt lat="49.50956" lon="0.90916">
        <ele>21.29</ele>
        <time>2018-07-07T17:04:10Z</time>
      </trkpt>
      <trkpt lat="49.50974" lon="0.90901">
        <ele>21.29</ele>
        <time>2018-07-07T17:04:14Z</time>
      </trkpt>
      <trkpt lat="49.50978" lon="0.90897">
        <ele>21.77</ele>
        <time>2018-07-07T17:04:15Z</time>
      </trkpt>
      <trkpt lat="49.50981" lon="0.90894">
        <ele>22.25</ele>
        <time>2018-07-07T17:04:16Z</time>
      </trkpt>
      <trkpt lat="49.50983" lon="0.90891">
        <ele>22.25</ele>
        <time>2018-07-07T17:04:17Z</time>
      </trkpt>
      <trkpt lat="49.50985" lon="0.90888">
        <ele>22.73</ele>
        <time>2018-07-07T17:04:18Z</time>
      </trkpt>
      <trkpt lat="49.50987" lon="0.90885">
        <ele>22.73</ele>
        <time>2018-07-07T17:04:19Z</time>
      </trkpt>
      <trkpt lat="49.50988" lon="0.90881">
        <ele>22.73</ele>
        <time>2018-07-07T17:04:20Z</time>
      </trkpt>
      <trkpt lat="49.50988" lon="0.90877">
        <ele>22.73</ele>
        <time>2018-07-07T17:04:21Z</time>
      </trkpt>
      <trkpt lat="49.50988" lon="0.90874">
        <ele>22.73</ele>
        <time>2018-07-07T17:04:22Z</time>
      </trkpt>
      <trkpt lat="49.50988" lon="0.90871">
        <ele>22.73</ele>
        <time>2018-07-07T17:04:23Z</time>
      </trkpt>
      <trkpt lat="49.50989" lon="0.90867">
        <ele>22.73</ele>
        <time>2018-07-07T17:04:24Z</time>
      </trkpt>
      <trkpt lat="49.50996" lon="0.90827">
        <ele>26.09</ele>
        <time>2018-07-07T17:04:38Z</time>
      </trkpt>
      <trkpt lat="49.51002" lon="0.90797">
        <ele>28.98</ele>
        <time>2018-07-07T17:04:50Z</time>
      </trkpt>
      <trkpt lat="49.51009" lon="0.90758">
        <ele>32.34</ele>
        <time>2018-07-07T17:05:05Z</time>
      </trkpt>
      <trkpt lat="49.51021" lon="0.90726">
        <ele>35.71</ele>
        <time>2018-07-07T17:05:19Z</time>
      </trkpt>
      <trkpt lat="49.51032" lon="0.90703">
        <ele>39.07</ele>
        <time>2018-07-07T17:05:31Z</time>
      </trkpt>
      <trkpt lat="49.51042" lon="0.90682">
        <ele>42.44</ele>
        <time>2018-07-07T17:05:42Z</time>
      </trkpt>
      <trkpt lat="49.51052" lon="0.90661">
        <ele>45.32</ele>
        <time>2018-07-07T17:05:53Z</time>
      </trkpt>
      <trkpt lat="49.51068" lon="0.90633">
        <ele>48.68</ele>
        <time>2018-07-07T17:06:08Z</time>
      </trkpt>
      <trkpt lat="49.5107" lon="0.9063">
        <ele>49.16</ele>
        <time>2018-07-07T17:06:10Z</time>
      </trkpt>
      <trkpt lat="49.51071" lon="0.90628">
        <ele>49.16</ele>
        <time>2018-07-07T17:06:11Z</time>
      </trkpt>
      <trkpt lat="49.51086" lon="0.90602">
        <ele>52.53</ele>
        <time>2018-07-07T17:06:25Z</time>
      </trkpt>
      <trkpt lat="49.51088" lon="0.90598">
        <ele>52.53</ele>
        <time>2018-07-07T17:06:27Z</time>
      </trkpt>
      <trkpt lat="49.51088" lon="0.90596">
        <ele>52.53</ele>
        <time>2018-07-07T17:06:28Z</time>
      </trkpt>
      <trkpt lat="49.51088" lon="0.90594">
        <ele>52.53</ele>
        <time>2018-07-07T17:06:29Z</time>
      </trkpt>
      <trkpt lat="49.51088" lon="0.90592">
        <ele>52.53</ele>
        <time>2018-07-07T17:06:30Z</time>
      </trkpt>
      <trkpt lat="49.51087" lon="0.90589">
        <ele>52.53</ele>
        <time>2018-07-07T17:06:31Z</time>
      </trkpt>
      <trkpt lat="49.51087" lon="0.90587">
        <ele>52.53</ele>
        <time>2018-07-07T17:06:32Z</time>
      </trkpt>
      <trkpt lat="49.51088" lon="0.90584">
        <ele>52.53</ele>
        <time>2018-07-07T17:06:33Z</time>
      </trkpt>
      <trkpt lat="49.51088" lon="0.9058">
        <ele>51.57</ele>
        <time>2018-07-07T17:06:34Z</time>
      </trkpt>
      <trkpt lat="49.51073" lon="0.90563">
        <ele>49.16</ele>
        <time>2018-07-07T17:06:40Z</time>
      </trkpt>
      <trkpt lat="49.51058" lon="0.9054">
        <ele>46.76</ele>
        <time>2018-07-07T17:06:46Z</time>
      </trkpt>
      <trkpt lat="49.5105" lon="0.90509">
        <ele>44.84</ele>
        <time>2018-07-07T17:06:52Z</time>
      </trkpt>
      <trkpt lat="49.51032" lon="0.90455">
        <ele>40.51</ele>
        <time>2018-07-07T17:06:57Z</time>
      </trkpt>
      <trkpt lat="49.51025" lon="0.90435">
        <ele>38.59</ele>
        <time>2018-07-07T17:06:59Z</time>
      </trkpt>
      <trkpt lat="49.51013" lon="0.90392">
        <ele>34.26</ele>
        <time>2018-07-07T17:07:04Z</time>
      </trkpt>
      <trkpt lat="49.51009" lon="0.90378">
        <ele>32.34</ele>
        <time>2018-07-07T17:07:06Z</time>
      </trkpt>
      <trkpt lat="49.50994" lon="0.90334">
        <ele>28.5</ele>
        <time>2018-07-07T17:07:12Z</time>
      </trkpt>
      <trkpt lat="49.50982" lon="0.90301">
        <ele>25.61</ele>
        <time>2018-07-07T17:07:16Z</time>
      </trkpt>
      <trkpt lat="49.50975" lon="0.90284">
        <ele>25.13</ele>
        <time>2018-07-07T17:07:18Z</time>
      </trkpt>
      <trkpt lat="49.50952" lon="0.90237">
        <ele>23.69</ele>
        <time>2018-07-07T17:07:25Z</time>
      </trkpt>
      <trkpt lat="49.50944" lon="0.9022">
        <ele>22.73</ele>
        <time>2018-07-07T17:07:28Z</time>
      </trkpt>
      <trkpt lat="49.50935" lon="0.90198">
        <ele>21.77</ele>
        <time>2018-07-07T17:07:31Z</time>
      </trkpt>
      <trkpt lat="49.50916" lon="0.90181">
        <ele>19.84</ele>
        <time>2018-07-07T17:07:35Z</time>
      </trkpt>
      <trkpt lat="49.50903" lon="0.90178">
        <ele>19.36</ele>
        <time>2018-07-07T17:07:39Z</time>
      </trkpt>
      <trkpt lat="49.50898" lon="0.9015">
        <ele>18.88</ele>
        <time>2018-07-07T17:07:44Z</time>
      </trkpt>
      <trkpt lat="49.50896" lon="0.90087">
        <ele>18.4</ele>
        <time>2018-07-07T17:07:56Z</time>
      </trkpt>
      <trkpt lat="49.50889" lon="0.90035">
        <ele>18.4</ele>
        <time>2018-07-07T17:08:06Z</time>
      </trkpt>
      <trkpt lat="49.50883" lon="0.90006">
        <ele>18.4</ele>
        <time>2018-07-07T17:08:11Z</time>
      </trkpt>
      <trkpt lat="49.50859" lon="0.89916">
        <ele>17.92</ele>
        <time>2018-07-07T17:08:26Z</time>
      </trkpt>
      <trkpt lat="49.50831" lon="0.89842">
        <ele>17.44</ele>
        <time>2018-07-07T17:08:41Z</time>
      </trkpt>
      <trkpt lat="49.50794" lon="0.89768">
        <ele>17.44</ele>
        <time>2018-07-07T17:08:57Z</time>
      </trkpt>
      <trkpt lat="49.50784" lon="0.89751">
        <ele>17.44</ele>
        <time>2018-07-07T17:09:01Z</time>
      </trkpt>
      <trkpt lat="49.50773" lon="0.89732">
        <ele>17.44</ele>
        <time>2018-07-07T17:09:05Z</time>
      </trkpt>
      <trkpt lat="49.5076" lon="0.89714">
        <ele>17.44</ele>
        <time>2018-07-07T17:09:09Z</time>
      </trkpt>
      <trkpt lat="49.50718" lon="0.89659">
        <ele>17.44</ele>
        <time>2018-07-07T17:09:22Z</time>
      </trkpt>
      <trkpt lat="49.50664" lon="0.89611">
        <ele>17.44</ele>
        <time>2018-07-07T17:09:36Z</time>
      </trkpt>
      <trkpt lat="49.50618" lon="0.89567">
        <ele>18.88</ele>
        <time>2018-07-07T17:09:50Z</time>
      </trkpt>
      <trkpt lat="49.50582" lon="0.89539">
        <ele>18.88</ele>
        <time>2018-07-07T17:10:01Z</time>
      </trkpt>
      <trkpt lat="49.50512" lon="0.89499">
        <ele>18.4</ele>
        <time>2018-07-07T17:10:16Z</time>
      </trkpt>
      <trkpt lat="49.5043" lon="0.89468">
        <ele>18.4</ele>
        <time>2018-07-07T17:10:32Z</time>
      </trkpt>
      <trkpt lat="49.50357" lon="0.89448">
        <ele>18.4</ele>
        <time>2018-07-07T17:10:46Z</time>
      </trkpt>
      <trkpt lat="49.50327" lon="0.89438">
        <ele>16.96</ele>
        <time>2018-07-07T17:10:51Z</time>
      </trkpt>
      <trkpt lat="49.50314" lon="0.89436">
        <ele>16.96</ele>
        <time>2018-07-07T17:10:53Z</time>
      </trkpt>
      <trkpt lat="49.50224" lon="0.89444">
        <ele>16.48</ele>
        <time>2018-07-07T17:11:07Z</time>
      </trkpt>
      <trkpt lat="49.50114" lon="0.89456">
        <ele>16</ele>
        <time>2018-07-07T17:11:24Z</time>
      </trkpt>
      <trkpt lat="49.50011" lon="0.89448">
        <ele>16</ele>
        <time>2018-07-07T17:11:40Z</time>
      </trkpt>
      <trkpt lat="49.49944" lon="0.89428">
        <ele>16.96</ele>
        <time>2018-07-07T17:11:51Z</time>
      </trkpt>
      <trkpt lat="49.4992" lon="0.89423">
        <ele>17.44</ele>
        <time>2018-07-07T17:11:56Z</time>
      </trkpt>
      <trkpt lat="49.49915" lon="0.89419">
        <ele>17.44</ele>
        <time>2018-07-07T17:11:57Z</time>
      </trkpt>
      <trkpt lat="49.49825" lon="0.89354">
        <ele>16</ele>
        <time>2018-07-07T17:12:13Z</time>
      </trkpt>
      <trkpt lat="49.49809" lon="0.8934">
        <ele>16</ele>
        <time>2018-07-07T17:12:16Z</time>
      </trkpt>
      <trkpt lat="49.49768" lon="0.89294">
        <ele>15.52</ele>
        <time>2018-07-07T17:12:24Z</time>
      </trkpt>
      <trkpt lat="49.49719" lon="0.89223">
        <ele>15.52</ele>
        <time>2018-07-07T17:12:35Z</time>
      </trkpt>
      <trkpt lat="49.49658" lon="0.89118">
        <ele>14.56</ele>
        <time>2018-07-07T17:12:50Z</time>
      </trkpt>
      <trkpt lat="49.49599" lon="0.89017">
        <ele>14.08</ele>
        <time>2018-07-07T17:13:05Z</time>
      </trkpt>
      <trkpt lat="49.49534" lon="0.8891">
        <ele>15.04</ele>
        <time>2018-07-07T17:13:24Z</time>
      </trkpt>
      <trkpt lat="49.49494" lon="0.88831">
        <ele>15.52</ele>
        <time>2018-07-07T17:13:38Z</time>
      </trkpt>
      <trkpt lat="49.49459" lon="0.88727">
        <ele>16</ele>
        <time>2018-07-07T17:13:54Z</time>
      </trkpt>
      <trkpt lat="49.49435" lon="0.8863">
        <ele>16.48</ele>
        <time>2018-07-07T17:14:08Z</time>
      </trkpt>
      <trkpt lat="49.49432" lon="0.8861">
        <ele>16.48</ele>
        <time>2018-07-07T17:14:11Z</time>
      </trkpt>
      <trkpt lat="49.49428" lon="0.88578">
        <ele>17.92</ele>
        <time>2018-07-07T17:14:16Z</time>
      </trkpt>
      <trkpt lat="49.49418" lon="0.88501">
        <ele>17.92</ele>
        <time>2018-07-07T17:14:27Z</time>
      </trkpt>
      <trkpt lat="49.49401" lon="0.88368">
        <ele>17.92</ele>
        <time>2018-07-07T17:14:44Z</time>
      </trkpt>
      <trkpt lat="49.49407" lon="0.88333">
        <ele>17.92</ele>
        <time>2018-07-07T17:14:49Z</time>
      </trkpt>
      <trkpt lat="49.49411" lon="0.88315">
        <ele>17.92</ele>
        <time>2018-07-07T17:14:52Z</time>
      </trkpt>
      <trkpt lat="49.49406" lon="0.88287">
        <ele>17.92</ele>
        <time>2018-07-07T17:14:56Z</time>
      </trkpt>
      <trkpt lat="49.49398" lon="0.88264">
        <ele>17.92</ele>
        <time>2018-07-07T17:14:59Z</time>
      </trkpt>
      <trkpt lat="49.49391" lon="0.88208">
        <ele>16.96</ele>
        <time>2018-07-07T17:15:06Z</time>
      </trkpt>
      <trkpt lat="49.49384" lon="0.8818">
        <ele>16.96</ele>
        <time>2018-07-07T17:15:10Z</time>
      </trkpt>
      <trkpt lat="49.49376" lon="0.88155">
        <ele>18.4</ele>
        <time>2018-07-07T17:15:15Z</time>
      </trkpt>
      <trkpt lat="49.49369" lon="0.88148">
        <ele>18.4</ele>
        <time>2018-07-07T17:15:17Z</time>
      </trkpt>
      <trkpt lat="49.49357" lon="0.88135">
        <ele>18.88</ele>
        <time>2018-07-07T17:15:20Z</time>
      </trkpt>
      <trkpt lat="49.49313" lon="0.88067">
        <ele>17.44</ele>
        <time>2018-07-07T17:15:30Z</time>
      </trkpt>
      <trkpt lat="49.4929" lon="0.88035">
        <ele>16</ele>
        <time>2018-07-07T17:15:34Z</time>
      </trkpt>
      <trkpt lat="49.49251" lon="0.87991">
        <ele>17.44</ele>
        <time>2018-07-07T17:15:41Z</time>
      </trkpt>
      <trkpt lat="49.49232" lon="0.87971">
        <ele>18.88</ele>
        <time>2018-07-07T17:15:45Z</time>
      </trkpt>
      <trkpt lat="49.49217" lon="0.87957">
        <ele>19.84</ele>
        <time>2018-07-07T17:15:48Z</time>
      </trkpt>
      <trkpt lat="49.49189" lon="0.87934">
        <ele>19.84</ele>
        <time>2018-07-07T17:15:53Z</time>
      </trkpt>
      <trkpt lat="49.49168" lon="0.8791">
        <ele>18.4</ele>
        <time>2018-07-07T17:15:57Z</time>
      </trkpt>
      <trkpt lat="49.49163" lon="0.87904">
        <ele>17.92</ele>
        <time>2018-07-07T17:15:58Z</time>
      </trkpt>
      <trkpt lat="49.49128" lon="0.87884">
        <ele>16</ele>
        <time>2018-07-07T17:16:03Z</time>
      </trkpt>
      <trkpt lat="49.49079" lon="0.87803">
        <ele>14.08</ele>
        <time>2018-07-07T17:16:12Z</time>
      </trkpt>
      <trkpt lat="49.49011" lon="0.87674">
        <ele>13.6</ele>
        <time>2018-07-07T17:16:27Z</time>
      </trkpt>
      <trkpt lat="49.48977" lon="0.87627">
        <ele>13.6</ele>
        <time>2018-07-07T17:16:34Z</time>
      </trkpt>
      <trkpt lat="49.48926" lon="0.87585">
        <ele>13.6</ele>
        <time>2018-07-07T17:16:43Z</time>
      </trkpt>
      <trkpt lat="49.48852" lon="0.87559">
        <ele>13.6</ele>
        <time>2018-07-07T17:16:55Z</time>
      </trkpt>
      <trkpt lat="49.48846" lon="0.87559">
        <ele>13.6</ele>
        <time>2018-07-07T17:16:56Z</time>
      </trkpt>
      <trkpt lat="49.48752" lon="0.87579">
        <ele>13.6</ele>
        <time>2018-07-07T17:17:10Z</time>
      </trkpt>
      <trkpt lat="49.48746" lon="0.87579">
        <ele>13.6</ele>
        <time>2018-07-07T17:17:11Z</time>
      </trkpt>
      <trkpt lat="49.48739" lon="0.87577">
        <ele>13.6</ele>
        <time>2018-07-07T17:17:12Z</time>
      </trkpt>
      <trkpt lat="49.48731" lon="0.87573">
        <ele>13.6</ele>
        <time>2018-07-07T17:17:13Z</time>
      </trkpt>
      <trkpt lat="49.48724" lon="0.8757">
        <ele>13.6</ele>
        <time>2018-07-07T17:17:14Z</time>
      </trkpt>
      <trkpt lat="49.48622" lon="0.87513">
        <ele>13.6</ele>
        <time>2018-07-07T17:17:29Z</time>
      </trkpt>
      <trkpt lat="49.48604" lon="0.87502">
        <ele>13.6</ele>
        <time>2018-07-07T17:17:32Z</time>
      </trkpt>
      <trkpt lat="49.48599" lon="0.87497">
        <ele>13.6</ele>
        <time>2018-07-07T17:17:33Z</time>
      </trkpt>
      <trkpt lat="49.48585" lon="0.87482">
        <ele>13.6</ele>
        <time>2018-07-07T17:17:36Z</time>
      </trkpt>
      <trkpt lat="49.48581" lon="0.87477">
        <ele>13.6</ele>
        <time>2018-07-07T17:17:37Z</time>
      </trkpt>
      <trkpt lat="49.48576" lon="0.87472">
        <ele>13.6</ele>
        <time>2018-07-07T17:17:38Z</time>
      </trkpt>
      <trkpt lat="49.4855" lon="0.87432">
        <ele>13.6</ele>
        <time>2018-07-07T17:17:50Z</time>
      </trkpt>
      <trkpt lat="49.48548" lon="0.87428">
        <ele>13.6</ele>
        <time>2018-07-07T17:18:02Z</time>
      </trkpt>
      <trkpt lat="49.48548" lon="0.87426">
        <ele>13.6</ele>
        <time>2018-07-07T17:18:03Z</time>
      </trkpt>
      <trkpt lat="49.48547" lon="0.87423">
        <ele>13.6</ele>
        <time>2018-07-07T17:18:04Z</time>
      </trkpt>
      <trkpt lat="49.48548" lon="0.8742">
        <ele>13.6</ele>
        <time>2018-07-07T17:18:05Z</time>
      </trkpt>
      <trkpt lat="49.48549" lon="0.87415">
        <ele>13.6</ele>
        <time>2018-07-07T17:18:06Z</time>
      </trkpt>
      <trkpt lat="49.4855" lon="0.87413">
        <ele>13.6</ele>
        <time>2018-07-07T17:18:07Z</time>
      </trkpt>
      <trkpt lat="49.48552" lon="0.87409">
        <ele>13.6</ele>
        <time>2018-07-07T17:18:08Z</time>
      </trkpt>
      <trkpt lat="49.48553" lon="0.87404">
        <ele>13.6</ele>
        <time>2018-07-07T17:18:09Z</time>
      </trkpt>
      <trkpt lat="49.48553" lon="0.87398">
        <ele>13.6</ele>
        <time>2018-07-07T17:18:10Z</time>
      </trkpt>
      <trkpt lat="49.48552" lon="0.87393">
        <ele>13.6</ele>
        <time>2018-07-07T17:18:11Z</time>
      </trkpt>
      <trkpt lat="49.4855" lon="0.8738">
        <ele>14.56</ele>
        <time>2018-07-07T17:18:13Z</time>
      </trkpt>
      <trkpt lat="49.48549" lon="0.87367">
        <ele>14.56</ele>
        <time>2018-07-07T17:18:15Z</time>
      </trkpt>
      <trkpt lat="49.48546" lon="0.87361">
        <ele>14.56</ele>
        <time>2018-07-07T17:18:16Z</time>
      </trkpt>
      <trkpt lat="49.48541" lon="0.87357">
        <ele>14.56</ele>
        <time>2018-07-07T17:18:17Z</time>
      </trkpt>
      <trkpt lat="49.48535" lon="0.87355">
        <ele>14.56</ele>
        <time>2018-07-07T17:18:18Z</time>
      </trkpt>
      <trkpt lat="49.48531" lon="0.87354">
        <ele>13.12</ele>
        <time>2018-07-07T17:18:19Z</time>
      </trkpt>
      <trkpt lat="49.48526" lon="0.87351">
        <ele>12.63</ele>
        <time>2018-07-07T17:18:20Z</time>
      </trkpt>
      <trkpt lat="49.48521" lon="0.87343">
        <ele>12.63</ele>
        <time>2018-07-07T17:18:21Z</time>
      </trkpt>
      <trkpt lat="49.48518" lon="0.87334">
        <ele>12.63</ele>
        <time>2018-07-07T17:18:22Z</time>
      </trkpt>
      <trkpt lat="49.48502" lon="0.87264">
        <ele>12.15</ele>
        <time>2018-07-07T17:18:30Z</time>
      </trkpt>
      <trkpt lat="49.485" lon="0.87256">
        <ele>12.15</ele>
        <time>2018-07-07T17:18:31Z</time>
      </trkpt>
      <trkpt lat="49.48488" lon="0.87226">
        <ele>12.15</ele>
        <time>2018-07-07T17:18:35Z</time>
      </trkpt>
      <trkpt lat="49.48485" lon="0.87219">
        <ele>12.15</ele>
        <time>2018-07-07T17:18:36Z</time>
      </trkpt>
      <trkpt lat="49.48483" lon="0.87213">
        <ele>12.15</ele>
        <time>2018-07-07T17:18:37Z</time>
      </trkpt>
      <trkpt lat="49.48476" lon="0.87184">
        <ele>12.15</ele>
        <time>2018-07-07T17:18:43Z</time>
      </trkpt>
      <trkpt lat="49.48473" lon="0.87176">
        <ele>14.08</ele>
        <time>2018-07-07T17:18:54Z</time>
      </trkpt>
      <trkpt lat="49.4847" lon="0.8715">
        <ele>16.48</ele>
        <time>2018-07-07T17:19:08Z</time>
      </trkpt>
      <trkpt lat="49.48465" lon="0.87126">
        <ele>18.88</ele>
        <time>2018-07-07T17:19:20Z</time>
      </trkpt>
      <trkpt lat="49.48464" lon="0.87124">
        <ele>19.36</ele>
        <time>2018-07-07T17:19:21Z</time>
      </trkpt>
      <trkpt lat="49.48464" lon="0.87122">
        <ele>19.84</ele>
        <time>2018-07-07T17:19:22Z</time>
      </trkpt>
      <trkpt lat="49.48463" lon="0.8712">
        <ele>19.84</ele>
        <time>2018-07-07T17:19:23Z</time>
      </trkpt>
      <trkpt lat="49.48458" lon="0.87096">
        <ele>22.73</ele>
        <time>2018-07-07T17:19:34Z</time>
      </trkpt>
      <trkpt lat="49.48445" lon="0.87062">
        <ele>25.61</ele>
        <time>2018-07-07T17:19:48Z</time>
      </trkpt>
      <trkpt lat="49.48434" lon="0.87038">
        <ele>28.02</ele>
        <time>2018-07-07T17:20:00Z</time>
      </trkpt>
      <trkpt lat="49.48429" lon="0.87028">
        <ele>28.5</ele>
        <time>2018-07-07T17:20:05Z</time>
      </trkpt>
      <trkpt lat="49.48428" lon="0.87027">
        <ele>29.46</ele>
        <time>2018-07-07T17:20:06Z</time>
      </trkpt>
      <trkpt lat="49.48427" lon="0.87025">
        <ele>29.46</ele>
        <time>2018-07-07T17:20:07Z</time>
      </trkpt>
      <trkpt lat="49.48426" lon="0.87024">
        <ele>29.94</ele>
        <time>2018-07-07T17:20:08Z</time>
      </trkpt>
      <trkpt lat="49.48425" lon="0.87022">
        <ele>29.94</ele>
        <time>2018-07-07T17:20:09Z</time>
      </trkpt>
      <trkpt lat="49.48424" lon="0.8702">
        <ele>30.42</ele>
        <time>2018-07-07T17:20:10Z</time>
      </trkpt>
      <trkpt lat="49.48423" lon="0.87019">
        <ele>29.94</ele>
        <time>2018-07-07T17:20:11Z</time>
      </trkpt>
      <trkpt lat="49.48411" lon="0.87001">
        <ele>32.82</ele>
        <time>2018-07-07T17:20:23Z</time>
      </trkpt>
      <trkpt lat="49.48408" lon="0.86994">
        <ele>34.26</ele>
        <time>2018-07-07T17:20:27Z</time>
      </trkpt>
      <trkpt lat="49.48406" lon="0.86993">
        <ele>34.26</ele>
        <time>2018-07-07T17:20:28Z</time>
      </trkpt>
      <trkpt lat="49.48405" lon="0.86992">
        <ele>34.26</ele>
        <time>2018-07-07T17:20:29Z</time>
      </trkpt>
      <trkpt lat="49.48404" lon="0.8699">
        <ele>34.74</ele>
        <time>2018-07-07T17:20:30Z</time>
      </trkpt>
      <trkpt lat="49.48403" lon="0.86988">
        <ele>35.23</ele>
        <time>2018-07-07T17:20:31Z</time>
      </trkpt>
      <trkpt lat="49.48402" lon="0.86987">
        <ele>35.23</ele>
        <time>2018-07-07T17:20:32Z</time>
      </trkpt>
      <trkpt lat="49.48401" lon="0.86985">
        <ele>35.71</ele>
        <time>2018-07-07T17:20:33Z</time>
      </trkpt>
      <trkpt lat="49.484" lon="0.86983">
        <ele>35.71</ele>
        <time>2018-07-07T17:20:34Z</time>
      </trkpt>
      <trkpt lat="49.48399" lon="0.86982">
        <ele>36.19</ele>
        <time>2018-07-07T17:20:35Z</time>
      </trkpt>
      <trkpt lat="49.48398" lon="0.86981">
        <ele>36.19</ele>
        <time>2018-07-07T17:20:36Z</time>
      </trkpt>
      <trkpt lat="49.48387" lon="0.86965">
        <ele>39.07</ele>
        <time>2018-07-07T17:20:47Z</time>
      </trkpt>
      <trkpt lat="49.48386" lon="0.86964">
        <ele>39.07</ele>
        <time>2018-07-07T17:20:48Z</time>
      </trkpt>
      <trkpt lat="49.48385" lon="0.86962">
        <ele>39.55</ele>
        <time>2018-07-07T17:20:49Z</time>
      </trkpt>
      <trkpt lat="49.48381" lon="0.86954">
        <ele>40.51</ele>
        <time>2018-07-07T17:20:54Z</time>
      </trkpt>
      <trkpt lat="49.4838" lon="0.86952">
        <ele>40.99</ele>
        <time>2018-07-07T17:20:55Z</time>
      </trkpt>
      <trkpt lat="49.48379" lon="0.86951">
        <ele>40.99</ele>
        <time>2018-07-07T17:20:56Z</time>
      </trkpt>
      <trkpt lat="49.4837" lon="0.86935">
        <ele>43.88</ele>
        <time>2018-07-07T17:21:08Z</time>
      </trkpt>
      <trkpt lat="49.48368" lon="0.86932">
        <ele>43.88</ele>
        <time>2018-07-07T17:21:10Z</time>
      </trkpt>
      <trkpt lat="49.48363" lon="0.86925">
        <ele>45.8</ele>
        <time>2018-07-07T17:21:16Z</time>
      </trkpt>
      <trkpt lat="49.48351" lon="0.86922">
        <ele>48.68</ele>
        <time>2018-07-07T17:21:26Z</time>
      </trkpt>
      <trkpt lat="49.48344" lon="0.86919">
        <ele>50.13</ele>
        <time>2018-07-07T17:21:33Z</time>
      </trkpt>
      <trkpt lat="49.4833" lon="0.86915">
        <ele>52.05</ele>
        <time>2018-07-07T17:21:43Z</time>
      </trkpt>
      <trkpt lat="49.48314" lon="0.86902">
        <ele>55.41</ele>
        <time>2018-07-07T17:21:54Z</time>
      </trkpt>
      <trkpt lat="49.48299" lon="0.86886">
        <ele>58.78</ele>
        <time>2018-07-07T17:22:05Z</time>
      </trkpt>
      <trkpt lat="49.48296" lon="0.86882">
        <ele>59.26</ele>
        <time>2018-07-07T17:22:07Z</time>
      </trkpt>
      <trkpt lat="49.48286" lon="0.86868">
        <ele>62.14</ele>
        <time>2018-07-07T17:22:17Z</time>
      </trkpt>
      <trkpt lat="49.48273" lon="0.86856">
        <ele>65.03</ele>
        <time>2018-07-07T17:22:30Z</time>
      </trkpt>
      <trkpt lat="49.48253" lon="0.86833">
        <ele>68.39</ele>
        <time>2018-07-07T17:22:45Z</time>
      </trkpt>
      <trkpt lat="49.48237" lon="0.86801">
        <ele>70.31</ele>
        <time>2018-07-07T17:23:00Z</time>
      </trkpt>
      <trkpt lat="49.4823" lon="0.86768">
        <ele>73.2</ele>
        <time>2018-07-07T17:23:15Z</time>
      </trkpt>
      <trkpt lat="49.4823" lon="0.86731">
        <ele>76.08</ele>
        <time>2018-07-07T17:23:31Z</time>
      </trkpt>
      <trkpt lat="49.48237" lon="0.86692">
        <ele>79.45</ele>
        <time>2018-07-07T17:23:47Z</time>
      </trkpt>
      <trkpt lat="49.48241" lon="0.86671">
        <ele>81.37</ele>
        <time>2018-07-07T17:23:54Z</time>
      </trkpt>
      <trkpt lat="49.4824" lon="0.86668">
        <ele>81.37</ele>
        <time>2018-07-07T17:23:55Z</time>
      </trkpt>
      <trkpt lat="49.48239" lon="0.86666">
        <ele>81.37</ele>
        <time>2018-07-07T17:23:56Z</time>
      </trkpt>
      <trkpt lat="49.48237" lon="0.86663">
        <ele>81.37</ele>
        <time>2018-07-07T17:23:57Z</time>
      </trkpt>
      <trkpt lat="49.48235" lon="0.86661">
        <ele>81.85</ele>
        <time>2018-07-07T17:23:58Z</time>
      </trkpt>
      <trkpt lat="49.48232" lon="0.86659">
        <ele>81.37</ele>
        <time>2018-07-07T17:23:59Z</time>
      </trkpt>
      <trkpt lat="49.48202" lon="0.86619">
        <ele>81.37</ele>
        <time>2018-07-07T17:24:12Z</time>
      </trkpt>
      <trkpt lat="49.48173" lon="0.86559">
        <ele>81.37</ele>
        <time>2018-07-07T17:24:25Z</time>
      </trkpt>
      <trkpt lat="49.48169" lon="0.86546">
        <ele>81.37</ele>
        <time>2018-07-07T17:24:27Z</time>
      </trkpt>
      <trkpt lat="49.48145" lon="0.86469">
        <ele>81.85</ele>
        <time>2018-07-07T17:24:39Z</time>
      </trkpt>
      <trkpt lat="49.48144" lon="0.8646">
        <ele>81.85</ele>
        <time>2018-07-07T17:24:40Z</time>
      </trkpt>
      <trkpt lat="49.48143" lon="0.86451">
        <ele>81.85</ele>
        <time>2018-07-07T17:24:41Z</time>
      </trkpt>
      <trkpt lat="49.48143" lon="0.86442">
        <ele>81.85</ele>
        <time>2018-07-07T17:24:42Z</time>
      </trkpt>
      <trkpt lat="49.48144" lon="0.86434">
        <ele>81.85</ele>
        <time>2018-07-07T17:24:43Z</time>
      </trkpt>
      <trkpt lat="49.48145" lon="0.86425">
        <ele>81.85</ele>
        <time>2018-07-07T17:24:44Z</time>
      </trkpt>
      <trkpt lat="49.4815" lon="0.86377">
        <ele>81.85</ele>
        <time>2018-07-07T17:24:50Z</time>
      </trkpt>
      <trkpt lat="49.48149" lon="0.8637">
        <ele>81.85</ele>
        <time>2018-07-07T17:24:51Z</time>
      </trkpt>
      <trkpt lat="49.48148" lon="0.86362">
        <ele>81.85</ele>
        <time>2018-07-07T17:24:52Z</time>
      </trkpt>
      <trkpt lat="49.48139" lon="0.86338">
        <ele>80.89</ele>
        <time>2018-07-07T17:24:55Z</time>
      </trkpt>
      <trkpt lat="49.48135" lon="0.86331">
        <ele>80.41</ele>
        <time>2018-07-07T17:24:56Z</time>
      </trkpt>
      <trkpt lat="49.48127" lon="0.86317">
        <ele>78.97</ele>
        <time>2018-07-07T17:24:58Z</time>
      </trkpt>
      <trkpt lat="49.48116" lon="0.86305">
        <ele>77.04</ele>
        <time>2018-07-07T17:25:01Z</time>
      </trkpt>
      <trkpt lat="49.48113" lon="0.86305">
        <ele>77.04</ele>
        <time>2018-07-07T17:25:02Z</time>
      </trkpt>
      <trkpt lat="49.48111" lon="0.86309">
        <ele>76.08</ele>
        <time>2018-07-07T17:25:03Z</time>
      </trkpt>
      <trkpt lat="49.48109" lon="0.86313">
        <ele>76.08</ele>
        <time>2018-07-07T17:25:04Z</time>
      </trkpt>
      <trkpt lat="49.48106" lon="0.8632">
        <ele>75.6</ele>
        <time>2018-07-07T17:25:05Z</time>
      </trkpt>
      <trkpt lat="49.48102" lon="0.86325">
        <ele>74.64</ele>
        <time>2018-07-07T17:25:06Z</time>
      </trkpt>
      <trkpt lat="49.48096" lon="0.86327">
        <ele>74.64</ele>
        <time>2018-07-07T17:25:07Z</time>
      </trkpt>
      <trkpt lat="49.48091" lon="0.86325">
        <ele>74.64</ele>
        <time>2018-07-07T17:25:08Z</time>
      </trkpt>
      <trkpt lat="49.48087" lon="0.86322">
        <ele>74.64</ele>
        <time>2018-07-07T17:25:09Z</time>
      </trkpt>
      <trkpt lat="49.48083" lon="0.86319">
        <ele>74.64</ele>
        <time>2018-07-07T17:25:10Z</time>
      </trkpt>
      <trkpt lat="49.48069" lon="0.86308">
        <ele>78</ele>
        <time>2018-07-07T17:25:14Z</time>
      </trkpt>
      <trkpt lat="49.48048" lon="0.86274">
        <ele>81.37</ele>
        <time>2018-07-07T17:25:24Z</time>
      </trkpt>
      <trkpt lat="49.48022" lon="0.86197">
        <ele>82.81</ele>
        <time>2018-07-07T17:25:41Z</time>
      </trkpt>
      <trkpt lat="49.47987" lon="0.86109">
        <ele>84.73</ele>
        <time>2018-07-07T17:25:59Z</time>
      </trkpt>
      <trkpt lat="49.47985" lon="0.86104">
        <ele>84.73</ele>
        <time>2018-07-07T17:26:00Z</time>
      </trkpt>
      <trkpt lat="49.4797" lon="0.86066">
        <ele>84.73</ele>
        <time>2018-07-07T17:26:08Z</time>
      </trkpt>
      <trkpt lat="49.47966" lon="0.86064">
        <ele>84.73</ele>
        <time>2018-07-07T17:26:09Z</time>
      </trkpt>
      <trkpt lat="49.47962" lon="0.86066">
        <ele>84.73</ele>
        <time>2018-07-07T17:26:10Z</time>
      </trkpt>
      <trkpt lat="49.47959" lon="0.8607">
        <ele>84.73</ele>
        <time>2018-07-07T17:26:11Z</time>
      </trkpt>
      <trkpt lat="49.47956" lon="0.86074">
        <ele>84.73</ele>
        <time>2018-07-07T17:26:12Z</time>
      </trkpt>
      <trkpt lat="49.47942" lon="0.86089">
        <ele>84.73</ele>
        <time>2018-07-07T17:26:16Z</time>
      </trkpt>
      <trkpt lat="49.47938" lon="0.86092">
        <ele>84.73</ele>
        <time>2018-07-07T17:26:17Z</time>
      </trkpt>
      <trkpt lat="49.47933" lon="0.86093">
        <ele>84.73</ele>
        <time>2018-07-07T17:26:18Z</time>
      </trkpt>
      <trkpt lat="49.47929" lon="0.86093">
        <ele>83.77</ele>
        <time>2018-07-07T17:26:19Z</time>
      </trkpt>
      <trkpt lat="49.47924" lon="0.86091">
        <ele>83.77</ele>
        <time>2018-07-07T17:26:20Z</time>
      </trkpt>
      <trkpt lat="49.4792" lon="0.86088">
        <ele>83.77</ele>
        <time>2018-07-07T17:26:21Z</time>
      </trkpt>
      <trkpt lat="49.47916" lon="0.86084">
        <ele>83.77</ele>
        <time>2018-07-07T17:26:22Z</time>
      </trkpt>
      <trkpt lat="49.47911" lon="0.8608">
        <ele>83.77</ele>
        <time>2018-07-07T17:26:23Z</time>
      </trkpt>
      <trkpt lat="49.47893" lon="0.86065">
        <ele>83.77</ele>
        <time>2018-07-07T17:26:27Z</time>
      </trkpt>
      <trkpt lat="49.47884" lon="0.86056">
        <ele>83.29</ele>
        <time>2018-07-07T17:26:29Z</time>
      </trkpt>
      <trkpt lat="49.47879" lon="0.86052">
        <ele>83.29</ele>
        <time>2018-07-07T17:26:30Z</time>
      </trkpt>
      <trkpt lat="49.47874" lon="0.86048">
        <ele>82.81</ele>
        <time>2018-07-07T17:26:31Z</time>
      </trkpt>
      <trkpt lat="49.47855" lon="0.86032">
        <ele>82.33</ele>
        <time>2018-07-07T17:26:35Z</time>
      </trkpt>
      <trkpt lat="49.4785" lon="0.86027">
        <ele>82.33</ele>
        <time>2018-07-07T17:26:36Z</time>
      </trkpt>
      <trkpt lat="49.47841" lon="0.86017">
        <ele>81.85</ele>
        <time>2018-07-07T17:26:38Z</time>
      </trkpt>
      <trkpt lat="49.47837" lon="0.86016">
        <ele>81.85</ele>
        <time>2018-07-07T17:26:39Z</time>
      </trkpt>
      <trkpt lat="49.47832" lon="0.86016">
        <ele>81.85</ele>
        <time>2018-07-07T17:26:40Z</time>
      </trkpt>
      <trkpt lat="49.47827" lon="0.86016">
        <ele>81.37</ele>
        <time>2018-07-07T17:26:41Z</time>
      </trkpt>
      <trkpt lat="49.47823" lon="0.86016">
        <ele>81.37</ele>
        <time>2018-07-07T17:26:42Z</time>
      </trkpt>
      <trkpt lat="49.47818" lon="0.86015">
        <ele>81.37</ele>
        <time>2018-07-07T17:26:43Z</time>
      </trkpt>
      <trkpt lat="49.47813" lon="0.86015">
        <ele>80.89</ele>
        <time>2018-07-07T17:26:44Z</time>
      </trkpt>
      <trkpt lat="49.47808" lon="0.86015">
        <ele>80.89</ele>
        <time>2018-07-07T17:26:45Z</time>
      </trkpt>
      <trkpt lat="49.47793" lon="0.86019">
        <ele>79.93</ele>
        <time>2018-07-07T17:26:48Z</time>
      </trkpt>
      <trkpt lat="49.47751" lon="0.86042">
        <ele>76.56</ele>
        <time>2018-07-07T17:26:56Z</time>
      </trkpt>
      <trkpt lat="49.47747" lon="0.86043">
        <ele>75.6</ele>
        <time>2018-07-07T17:26:57Z</time>
      </trkpt>
      <trkpt lat="49.47736" lon="0.86043">
        <ele>74.16</ele>
        <time>2018-07-07T17:27:05Z</time>
      </trkpt>
      <trkpt lat="49.47736" lon="0.86043">
        <ele>74.16</ele>
        <time>2018-07-07T17:27:07Z</time>
      </trkpt>
      <trkpt lat="49.47714" lon="0.8604">
        <ele>70.31</ele>
        <time>2018-07-07T17:27:15Z</time>
      </trkpt>
      <trkpt lat="49.47695" lon="0.86044">
        <ele>65.51</ele>
        <time>2018-07-07T17:27:20Z</time>
      </trkpt>
      <trkpt lat="49.47679" lon="0.86052">
        <ele>62.62</ele>
        <time>2018-07-07T17:27:23Z</time>
      </trkpt>
      <trkpt lat="49.47658" lon="0.8607">
        <ele>58.78</ele>
        <time>2018-07-07T17:27:28Z</time>
      </trkpt>
      <trkpt lat="49.47649" lon="0.86073">
        <ele>57.34</ele>
        <time>2018-07-07T17:27:30Z</time>
      </trkpt>
      <trkpt lat="49.47635" lon="0.8608">
        <ele>54.93</ele>
        <time>2018-07-07T17:27:33Z</time>
      </trkpt>
      <trkpt lat="49.47611" lon="0.86086">
        <ele>51.09</ele>
        <time>2018-07-07T17:27:38Z</time>
      </trkpt>
      <trkpt lat="49.4759" lon="0.86084">
        <ele>47.72</ele>
        <time>2018-07-07T17:27:42Z</time>
      </trkpt>
      <trkpt lat="49.47572" lon="0.86091">
        <ele>44.36</ele>
        <time>2018-07-07T17:27:46Z</time>
      </trkpt>
      <trkpt lat="49.47554" lon="0.86083">
        <ele>41.47</ele>
        <time>2018-07-07T17:27:49Z</time>
      </trkpt>
      <trkpt lat="49.47548" lon="0.86082">
        <ele>40.99</ele>
        <time>2018-07-07T17:27:50Z</time>
      </trkpt>
      <trkpt lat="49.47543" lon="0.86082">
        <ele>40.51</ele>
        <time>2018-07-07T17:27:51Z</time>
      </trkpt>
      <trkpt lat="49.47536" lon="0.86083">
        <ele>39.55</ele>
        <time>2018-07-07T17:27:52Z</time>
      </trkpt>
      <trkpt lat="49.47531" lon="0.86081">
        <ele>38.59</ele>
        <time>2018-07-07T17:27:53Z</time>
      </trkpt>
      <trkpt lat="49.47526" lon="0.8608">
        <ele>38.11</ele>
        <time>2018-07-07T17:27:54Z</time>
      </trkpt>
      <trkpt lat="49.47499" lon="0.8607">
        <ele>35.71</ele>
        <time>2018-07-07T17:27:58Z</time>
      </trkpt>
      <trkpt lat="49.47454" lon="0.86056">
        <ele>31.38</ele>
        <time>2018-07-07T17:28:03Z</time>
      </trkpt>
      <trkpt lat="49.47415" lon="0.86044">
        <ele>28.98</ele>
        <time>2018-07-07T17:28:07Z</time>
      </trkpt>
      <trkpt lat="49.47406" lon="0.8604">
        <ele>26.57</ele>
        <time>2018-07-07T17:28:08Z</time>
      </trkpt>
      <trkpt lat="49.47398" lon="0.86036">
        <ele>26.57</ele>
        <time>2018-07-07T17:28:09Z</time>
      </trkpt>
      <trkpt lat="49.47381" lon="0.86026">
        <ele>25.61</ele>
        <time>2018-07-07T17:28:11Z</time>
      </trkpt>
      <trkpt lat="49.47366" lon="0.86012">
        <ele>24.65</ele>
        <time>2018-07-07T17:28:13Z</time>
      </trkpt>
      <trkpt lat="49.47358" lon="0.86002">
        <ele>23.69</ele>
        <time>2018-07-07T17:28:14Z</time>
      </trkpt>
      <trkpt lat="49.47352" lon="0.85992">
        <ele>23.69</ele>
        <time>2018-07-07T17:28:15Z</time>
      </trkpt>
      <trkpt lat="49.47346" lon="0.8598">
        <ele>22.25</ele>
        <time>2018-07-07T17:28:16Z</time>
      </trkpt>
      <trkpt lat="49.47341" lon="0.85969">
        <ele>22.25</ele>
        <time>2018-07-07T17:28:17Z</time>
      </trkpt>
      <trkpt lat="49.47336" lon="0.8596">
        <ele>21.77</ele>
        <time>2018-07-07T17:28:18Z</time>
      </trkpt>
      <trkpt lat="49.47329" lon="0.85952">
        <ele>21.77</ele>
        <time>2018-07-07T17:28:19Z</time>
      </trkpt>
      <trkpt lat="49.47324" lon="0.85947">
        <ele>21.77</ele>
        <time>2018-07-07T17:28:20Z</time>
      </trkpt>
      <trkpt lat="49.47317" lon="0.85941">
        <ele>21.29</ele>
        <time>2018-07-07T17:28:21Z</time>
      </trkpt>
      <trkpt lat="49.47311" lon="0.85934">
        <ele>21.29</ele>
        <time>2018-07-07T17:28:22Z</time>
      </trkpt>
      <trkpt lat="49.47305" lon="0.85928">
        <ele>21.29</ele>
        <time>2018-07-07T17:28:23Z</time>
      </trkpt>
      <trkpt lat="49.47299" lon="0.85919">
        <ele>21.29</ele>
        <time>2018-07-07T17:28:24Z</time>
      </trkpt>
      <trkpt lat="49.47239" lon="0.85829">
        <ele>19.36</ele>
        <time>2018-07-07T17:28:37Z</time>
      </trkpt>
      <trkpt lat="49.47215" lon="0.85796">
        <ele>19.36</ele>
        <time>2018-07-07T17:28:43Z</time>
      </trkpt>
      <trkpt lat="49.47212" lon="0.85791">
        <ele>19.36</ele>
        <time>2018-07-07T17:28:44Z</time>
      </trkpt>
      <trkpt lat="49.47201" lon="0.85778">
        <ele>20.81</ele>
        <time>2018-07-07T17:28:47Z</time>
      </trkpt>
      <trkpt lat="49.47175" lon="0.85742">
        <ele>22.25</ele>
        <time>2018-07-07T17:28:56Z</time>
      </trkpt>
      <trkpt lat="49.47171" lon="0.85739">
        <ele>22.25</ele>
        <time>2018-07-07T17:28:57Z</time>
      </trkpt>
      <trkpt lat="49.47167" lon="0.85736">
        <ele>21.77</ele>
        <time>2018-07-07T17:28:58Z</time>
      </trkpt>
      <trkpt lat="49.47164" lon="0.85732">
        <ele>22.25</ele>
        <time>2018-07-07T17:28:59Z</time>
      </trkpt>
      <trkpt lat="49.47161" lon="0.85728">
        <ele>21.77</ele>
        <time>2018-07-07T17:29:00Z</time>
      </trkpt>
      <trkpt lat="49.47154" lon="0.8572">
        <ele>21.77</ele>
        <time>2018-07-07T17:29:02Z</time>
      </trkpt>
      <trkpt lat="49.47142" lon="0.85702">
        <ele>22.25</ele>
        <time>2018-07-07T17:29:06Z</time>
      </trkpt>
      <trkpt lat="49.47097" lon="0.85634">
        <ele>23.21</ele>
        <time>2018-07-07T17:29:22Z</time>
      </trkpt>
      <trkpt lat="49.47045" lon="0.8556">
        <ele>24.17</ele>
        <time>2018-07-07T17:29:39Z</time>
      </trkpt>
      <trkpt lat="49.47042" lon="0.85556">
        <ele>24.17</ele>
        <time>2018-07-07T17:29:40Z</time>
      </trkpt>
      <trkpt lat="49.47031" lon="0.85537">
        <ele>24.65</ele>
        <time>2018-07-07T17:29:44Z</time>
      </trkpt>
      <trkpt lat="49.4701" lon="0.85499">
        <ele>23.21</ele>
        <time>2018-07-07T17:29:53Z</time>
      </trkpt>
      <trkpt lat="49.46996" lon="0.85524">
        <ele>21.29</ele>
        <time>2018-07-07T17:30:00Z</time>
      </trkpt>
      <trkpt lat="49.46996" lon="0.85533">
        <ele>20.32</ele>
        <time>2018-07-07T17:30:01Z</time>
      </trkpt>
      <trkpt lat="49.46992" lon="0.85564">
        <ele>19.36</ele>
        <time>2018-07-07T17:30:04Z</time>
      </trkpt>
      <trkpt lat="49.46982" lon="0.85595">
        <ele>17.44</ele>
        <time>2018-07-07T17:30:07Z</time>
      </trkpt>
      <trkpt lat="49.46978" lon="0.85607">
        <ele>16.48</ele>
        <time>2018-07-07T17:30:08Z</time>
      </trkpt>
      <trkpt lat="49.46933" lon="0.85691">
        <ele>13.12</ele>
        <time>2018-07-07T17:30:16Z</time>
      </trkpt>
      <trkpt lat="49.46924" lon="0.8571">
        <ele>12.63</ele>
        <time>2018-07-07T17:30:18Z</time>
      </trkpt>
      <trkpt lat="49.46921" lon="0.85719">
        <ele>12.15</ele>
        <time>2018-07-07T17:30:19Z</time>
      </trkpt>
      <trkpt lat="49.4691" lon="0.85741">
        <ele>11.19</ele>
        <time>2018-07-07T17:30:23Z</time>
      </trkpt>
      <trkpt lat="49.46907" lon="0.85741">
        <ele>11.19</ele>
        <time>2018-07-07T17:30:24Z</time>
      </trkpt>
      <trkpt lat="49.46887" lon="0.85727">
        <ele>11.19</ele>
        <time>2018-07-07T17:30:30Z</time>
      </trkpt>
      <trkpt lat="49.46883" lon="0.85726">
        <ele>11.19</ele>
        <time>2018-07-07T17:30:31Z</time>
      </trkpt>
      <trkpt lat="49.46879" lon="0.85727">
        <ele>11.19</ele>
        <time>2018-07-07T17:30:32Z</time>
      </trkpt>
      <trkpt lat="49.46875" lon="0.85729">
        <ele>11.19</ele>
        <time>2018-07-07T17:30:33Z</time>
      </trkpt>
      <trkpt lat="49.46871" lon="0.85733">
        <ele>11.19</ele>
        <time>2018-07-07T17:30:34Z</time>
      </trkpt>
      <trkpt lat="49.46868" lon="0.85738">
        <ele>11.19</ele>
        <time>2018-07-07T17:30:35Z</time>
      </trkpt>
      <trkpt lat="49.46865" lon="0.85743">
        <ele>11.19</ele>
        <time>2018-07-07T17:30:36Z</time>
      </trkpt>
      <trkpt lat="49.46862" lon="0.85748">
        <ele>11.19</ele>
        <time>2018-07-07T17:30:37Z</time>
      </trkpt>
      <trkpt lat="49.46858" lon="0.85752">
        <ele>11.19</ele>
        <time>2018-07-07T17:30:38Z</time>
      </trkpt>
      <trkpt lat="49.46853" lon="0.85752">
        <ele>11.19</ele>
        <time>2018-07-07T17:30:39Z</time>
      </trkpt>
      <trkpt lat="49.46849" lon="0.8575">
        <ele>11.19</ele>
        <time>2018-07-07T17:30:40Z</time>
      </trkpt>
      <trkpt lat="49.46845" lon="0.85746">
        <ele>11.19</ele>
        <time>2018-07-07T17:30:41Z</time>
      </trkpt>
      <trkpt lat="49.46841" lon="0.85742">
        <ele>11.19</ele>
        <time>2018-07-07T17:30:42Z</time>
      </trkpt>
      <trkpt lat="49.46813" lon="0.85713">
        <ele>12.15</ele>
        <time>2018-07-07T17:30:49Z</time>
      </trkpt>
      <trkpt lat="49.46809" lon="0.8571">
        <ele>12.15</ele>
        <time>2018-07-07T17:30:50Z</time>
      </trkpt>
      <trkpt lat="49.46804" lon="0.85709">
        <ele>12.15</ele>
        <time>2018-07-07T17:30:51Z</time>
      </trkpt>
      <trkpt lat="49.46799" lon="0.85708">
        <ele>12.63</ele>
        <time>2018-07-07T17:30:52Z</time>
      </trkpt>
      <trkpt lat="49.46795" lon="0.85707">
        <ele>12.63</ele>
        <time>2018-07-07T17:30:53Z</time>
      </trkpt>
      <trkpt lat="49.4679" lon="0.85706">
        <ele>12.63</ele>
        <time>2018-07-07T17:30:54Z</time>
      </trkpt>
      <trkpt lat="49.46722" lon="0.85678">
        <ele>14.08</ele>
        <time>2018-07-07T17:31:09Z</time>
      </trkpt>
      <trkpt lat="49.46718" lon="0.85676">
        <ele>14.56</ele>
        <time>2018-07-07T17:31:10Z</time>
      </trkpt>
      <trkpt lat="49.46715" lon="0.85674">
        <ele>14.56</ele>
        <time>2018-07-07T17:31:11Z</time>
      </trkpt>
      <trkpt lat="49.46656" lon="0.85639">
        <ele>17.44</ele>
        <time>2018-07-07T17:31:28Z</time>
      </trkpt>
      <trkpt lat="49.4662" lon="0.85617">
        <ele>19.84</ele>
        <time>2018-07-07T17:31:43Z</time>
      </trkpt>
      <trkpt lat="49.46595" lon="0.85599">
        <ele>22.25</ele>
        <time>2018-07-07T17:31:57Z</time>
      </trkpt>
      <trkpt lat="49.46573" lon="0.85582">
        <ele>25.61</ele>
        <time>2018-07-07T17:32:10Z</time>
      </trkpt>
      <trkpt lat="49.46549" lon="0.85568">
        <ele>28.5</ele>
        <time>2018-07-07T17:32:23Z</time>
      </trkpt>
      <trkpt lat="49.46533" lon="0.85557">
        <ele>30.42</ele>
        <time>2018-07-07T17:32:32Z</time>
      </trkpt>
      <trkpt lat="49.46532" lon="0.85556">
        <ele>30.42</ele>
        <time>2018-07-07T17:32:33Z</time>
      </trkpt>
      <trkpt lat="49.4653" lon="0.85555">
        <ele>30.42</ele>
        <time>2018-07-07T17:32:34Z</time>
      </trkpt>
      <trkpt lat="49.46528" lon="0.85554">
        <ele>31.38</ele>
        <time>2018-07-07T17:32:35Z</time>
      </trkpt>
      <trkpt lat="49.46527" lon="0.85552">
        <ele>31.38</ele>
        <time>2018-07-07T17:32:36Z</time>
      </trkpt>
      <trkpt lat="49.46525" lon="0.85551">
        <ele>31.86</ele>
        <time>2018-07-07T17:32:37Z</time>
      </trkpt>
      <trkpt lat="49.46523" lon="0.85549">
        <ele>31.86</ele>
        <time>2018-07-07T17:32:38Z</time>
      </trkpt>
      <trkpt lat="49.46522" lon="0.85548">
        <ele>31.86</ele>
        <time>2018-07-07T17:32:39Z</time>
      </trkpt>
      <trkpt lat="49.46498" lon="0.85524">
        <ele>34.26</ele>
        <time>2018-07-07T17:32:53Z</time>
      </trkpt>
      <trkpt lat="49.46467" lon="0.85489">
        <ele>36.19</ele>
        <time>2018-07-07T17:33:07Z</time>
      </trkpt>
      <trkpt lat="49.46426" lon="0.85462">
        <ele>34.74</ele>
        <time>2018-07-07T17:33:18Z</time>
      </trkpt>
      <trkpt lat="49.46372" lon="0.85444">
        <ele>31.86</ele>
        <time>2018-07-07T17:33:25Z</time>
      </trkpt>
      <trkpt lat="49.46308" lon="0.85382">
        <ele>29.94</ele>
        <time>2018-07-07T17:33:35Z</time>
      </trkpt>
      <trkpt lat="49.46304" lon="0.85378">
        <ele>29.94</ele>
        <time>2018-07-07T17:33:36Z</time>
      </trkpt>
      <trkpt lat="49.46286" lon="0.85351">
        <ele>31.38</ele>
        <time>2018-07-07T17:33:46Z</time>
      </trkpt>
      <trkpt lat="49.4627" lon="0.85327">
        <ele>33.78</ele>
        <time>2018-07-07T17:33:58Z</time>
      </trkpt>
      <trkpt lat="49.46251" lon="0.853">
        <ele>34.74</ele>
        <time>2018-07-07T17:34:09Z</time>
      </trkpt>
      <trkpt lat="49.46248" lon="0.85294">
        <ele>35.23</ele>
        <time>2018-07-07T17:34:12Z</time>
      </trkpt>
      <trkpt lat="49.46234" lon="0.85278">
        <ele>36.67</ele>
        <time>2018-07-07T17:34:21Z</time>
      </trkpt>
      <trkpt lat="49.46223" lon="0.85264">
        <ele>38.11</ele>
        <time>2018-07-07T17:34:29Z</time>
      </trkpt>
      <trkpt lat="49.46208" lon="0.85257">
        <ele>39.55</ele>
        <time>2018-07-07T17:34:38Z</time>
      </trkpt>
      <trkpt lat="49.46199" lon="0.85252">
        <ele>40.99</ele>
        <time>2018-07-07T17:34:43Z</time>
      </trkpt>
      <trkpt lat="49.46181" lon="0.85235">
        <ele>42.92</ele>
        <time>2018-07-07T17:34:55Z</time>
      </trkpt>
      <trkpt lat="49.46174" lon="0.85229">
        <ele>43.4</ele>
        <time>2018-07-07T17:34:59Z</time>
      </trkpt>
      <trkpt lat="49.46154" lon="0.85203">
        <ele>44.84</ele>
        <time>2018-07-07T17:35:12Z</time>
      </trkpt>
      <trkpt lat="49.46153" lon="0.85202">
        <ele>45.8</ele>
        <time>2018-07-07T17:35:13Z</time>
      </trkpt>
      <trkpt lat="49.46131" lon="0.8518">
        <ele>46.76</ele>
        <time>2018-07-07T17:35:26Z</time>
      </trkpt>
      <trkpt lat="49.46106" lon="0.85166">
        <ele>48.2</ele>
        <time>2018-07-07T17:35:39Z</time>
      </trkpt>
      <trkpt lat="49.46089" lon="0.85158">
        <ele>50.13</ele>
        <time>2018-07-07T17:35:50Z</time>
      </trkpt>
      <trkpt lat="49.46078" lon="0.85155">
        <ele>50.61</ele>
        <time>2018-07-07T17:35:55Z</time>
      </trkpt>
      <trkpt lat="49.46069" lon="0.85151">
        <ele>51.09</ele>
        <time>2018-07-07T17:36:00Z</time>
      </trkpt>
      <trkpt lat="49.46045" lon="0.85141">
        <ele>53.49</ele>
        <time>2018-07-07T17:36:14Z</time>
      </trkpt>
      <trkpt lat="49.4604" lon="0.85138">
        <ele>53.97</ele>
        <time>2018-07-07T17:36:17Z</time>
      </trkpt>
      <trkpt lat="49.46019" lon="0.85128">
        <ele>56.37</ele>
        <time>2018-07-07T17:36:30Z</time>
      </trkpt>
      <trkpt lat="49.45994" lon="0.85106">
        <ele>58.3</ele>
        <time>2018-07-07T17:36:45Z</time>
      </trkpt>
      <trkpt lat="49.4597" lon="0.85085">
        <ele>59.74</ele>
        <time>2018-07-07T17:36:57Z</time>
      </trkpt>
      <trkpt lat="49.45943" lon="0.85061">
        <ele>61.66</ele>
        <time>2018-07-07T17:37:10Z</time>
      </trkpt>
      <trkpt lat="49.45909" lon="0.85056">
        <ele>64.07</ele>
        <time>2018-07-07T17:37:23Z</time>
      </trkpt>
      <trkpt lat="49.45874" lon="0.85048">
        <ele>65.99</ele>
        <time>2018-07-07T17:37:37Z</time>
      </trkpt>
      <trkpt lat="49.45844" lon="0.85027">
        <ele>68.39</ele>
        <time>2018-07-07T17:37:51Z</time>
      </trkpt>
      <trkpt lat="49.45819" lon="0.85009">
        <ele>69.83</ele>
        <time>2018-07-07T17:38:03Z</time>
      </trkpt>
      <trkpt lat="49.45791" lon="0.84989">
        <ele>70.79</ele>
        <time>2018-07-07T17:38:15Z</time>
      </trkpt>
      <trkpt lat="49.45768" lon="0.84974">
        <ele>70.79</ele>
        <time>2018-07-07T17:38:23Z</time>
      </trkpt>
      <trkpt lat="49.45766" lon="0.84972">
        <ele>71.76</ele>
        <time>2018-07-07T17:38:24Z</time>
      </trkpt>
      <trkpt lat="49.45723" lon="0.84938">
        <ele>71.76</ele>
        <time>2018-07-07T17:38:39Z</time>
      </trkpt>
      <trkpt lat="49.45692" lon="0.84903">
        <ele>72.24</ele>
        <time>2018-07-07T17:38:49Z</time>
      </trkpt>
      <trkpt lat="49.45652" lon="0.84859">
        <ele>72.24</ele>
        <time>2018-07-07T17:39:01Z</time>
      </trkpt>
      <trkpt lat="49.45641" lon="0.84847">
        <ele>72.24</ele>
        <time>2018-07-07T17:39:04Z</time>
      </trkpt>
      <trkpt lat="49.45637" lon="0.84843">
        <ele>72.24</ele>
        <time>2018-07-07T17:39:05Z</time>
      </trkpt>
      <trkpt lat="49.45598" lon="0.84798">
        <ele>72.24</ele>
        <time>2018-07-07T17:39:18Z</time>
      </trkpt>
      <trkpt lat="49.4556" lon="0.84759">
        <ele>72.72</ele>
        <time>2018-07-07T17:39:31Z</time>
      </trkpt>
      <trkpt lat="49.4553" lon="0.84721">
        <ele>72.72</ele>
        <time>2018-07-07T17:39:40Z</time>
      </trkpt>
      <trkpt lat="49.45527" lon="0.84717">
        <ele>72.72</ele>
        <time>2018-07-07T17:39:41Z</time>
      </trkpt>
      <trkpt lat="49.45523" lon="0.84712">
        <ele>72.72</ele>
        <time>2018-07-07T17:39:42Z</time>
      </trkpt>
      <trkpt lat="49.4552" lon="0.84708">
        <ele>73.2</ele>
        <time>2018-07-07T17:39:43Z</time>
      </trkpt>
      <trkpt lat="49.45516" lon="0.84704">
        <ele>73.2</ele>
        <time>2018-07-07T17:39:44Z</time>
      </trkpt>
      <trkpt lat="49.45494" lon="0.84672">
        <ele>73.2</ele>
        <time>2018-07-07T17:39:51Z</time>
      </trkpt>
      <trkpt lat="49.45481" lon="0.84646">
        <ele>73.68</ele>
        <time>2018-07-07T17:39:56Z</time>
      </trkpt>
      <trkpt lat="49.45444" lon="0.84593">
        <ele>74.64</ele>
        <time>2018-07-07T17:40:09Z</time>
      </trkpt>
      <trkpt lat="49.45408" lon="0.84553">
        <ele>74.64</ele>
        <time>2018-07-07T17:40:21Z</time>
      </trkpt>
      <trkpt lat="49.45375" lon="0.84514">
        <ele>75.12</ele>
        <time>2018-07-07T17:40:32Z</time>
      </trkpt>
      <trkpt lat="49.45369" lon="0.84505">
        <ele>75.12</ele>
        <time>2018-07-07T17:40:34Z</time>
      </trkpt>
      <trkpt lat="49.45366" lon="0.84501">
        <ele>75.12</ele>
        <time>2018-07-07T17:40:35Z</time>
      </trkpt>
      <trkpt lat="49.4533" lon="0.8445">
        <ele>75.12</ele>
        <time>2018-07-07T17:40:46Z</time>
      </trkpt>
      <trkpt lat="49.45323" lon="0.84439">
        <ele>75.6</ele>
        <time>2018-07-07T17:40:48Z</time>
      </trkpt>
      <trkpt lat="49.45314" lon="0.84424">
        <ele>75.6</ele>
        <time>2018-07-07T17:40:51Z</time>
      </trkpt>
      <trkpt lat="49.4531" lon="0.84419">
        <ele>75.6</ele>
        <time>2018-07-07T17:40:52Z</time>
      </trkpt>
      <trkpt lat="49.45257" lon="0.84361">
        <ele>75.6</ele>
        <time>2018-07-07T17:41:05Z</time>
      </trkpt>
      <trkpt lat="49.45253" lon="0.84358">
        <ele>75.6</ele>
        <time>2018-07-07T17:41:06Z</time>
      </trkpt>
      <trkpt lat="49.45223" lon="0.84333">
        <ele>75.6</ele>
        <time>2018-07-07T17:41:13Z</time>
      </trkpt>
      <trkpt lat="49.45193" lon="0.84306">
        <ele>75.6</ele>
        <time>2018-07-07T17:41:20Z</time>
      </trkpt>
      <trkpt lat="49.45189" lon="0.84302">
        <ele>75.6</ele>
        <time>2018-07-07T17:41:21Z</time>
      </trkpt>
      <trkpt lat="49.45185" lon="0.84298">
        <ele>75.6</ele>
        <time>2018-07-07T17:41:22Z</time>
      </trkpt>
      <trkpt lat="49.45181" lon="0.84294">
        <ele>75.6</ele>
        <time>2018-07-07T17:41:23Z</time>
      </trkpt>
      <trkpt lat="49.45177" lon="0.8429">
        <ele>75.6</ele>
        <time>2018-07-07T17:41:24Z</time>
      </trkpt>
      <trkpt lat="49.45174" lon="0.84286">
        <ele>75.6</ele>
        <time>2018-07-07T17:41:25Z</time>
      </trkpt>
      <trkpt lat="49.45134" lon="0.84243">
        <ele>75.6</ele>
        <time>2018-07-07T17:41:37Z</time>
      </trkpt>
      <trkpt lat="49.45079" lon="0.84195">
        <ele>75.6</ele>
        <time>2018-07-07T17:41:51Z</time>
      </trkpt>
      <trkpt lat="49.44976" lon="0.84133">
        <ele>74.64</ele>
        <time>2018-07-07T17:42:12Z</time>
      </trkpt>
      <trkpt lat="49.44953" lon="0.84116">
        <ele>73.68</ele>
        <time>2018-07-07T17:42:17Z</time>
      </trkpt>
      <trkpt lat="49.44923" lon="0.84095">
        <ele>72.72</ele>
        <time>2018-07-07T17:42:24Z</time>
      </trkpt>
      <trkpt lat="49.44918" lon="0.84093">
        <ele>72.72</ele>
        <time>2018-07-07T17:42:25Z</time>
      </trkpt>
      <trkpt lat="49.44912" lon="0.84092">
        <ele>72.72</ele>
        <time>2018-07-07T17:42:26Z</time>
      </trkpt>
      <trkpt lat="49.44852" lon="0.84077">
        <ele>72.24</ele>
        <time>2018-07-07T17:42:36Z</time>
      </trkpt>
      <trkpt lat="49.44841" lon="0.84075">
        <ele>73.68</ele>
        <time>2018-07-07T17:42:38Z</time>
      </trkpt>
      <trkpt lat="49.44756" lon="0.84052">
        <ele>73.68</ele>
        <time>2018-07-07T17:42:54Z</time>
      </trkpt>
      <trkpt lat="49.44751" lon="0.8405">
        <ele>73.68</ele>
        <time>2018-07-07T17:42:55Z</time>
      </trkpt>
      <trkpt lat="49.44723" lon="0.84033">
        <ele>72.72</ele>
        <time>2018-07-07T17:43:00Z</time>
      </trkpt>
      <trkpt lat="49.44653" lon="0.83984">
        <ele>69.35</ele>
        <time>2018-07-07T17:43:13Z</time>
      </trkpt>
      <trkpt lat="49.44592" lon="0.8393">
        <ele>66.95</ele>
        <time>2018-07-07T17:43:24Z</time>
      </trkpt>
      <trkpt lat="49.44586" lon="0.83926">
        <ele>66.95</ele>
        <time>2018-07-07T17:43:25Z</time>
      </trkpt>
      <trkpt lat="49.44573" lon="0.8392">
        <ele>65.99</ele>
        <time>2018-07-07T17:43:27Z</time>
      </trkpt>
      <trkpt lat="49.44525" lon="0.83872">
        <ele>62.14</ele>
        <time>2018-07-07T17:43:35Z</time>
      </trkpt>
      <trkpt lat="49.44508" lon="0.8385">
        <ele>61.18</ele>
        <time>2018-07-07T17:43:38Z</time>
      </trkpt>
      <trkpt lat="49.44482" lon="0.83806">
        <ele>58.3</ele>
        <time>2018-07-07T17:43:43Z</time>
      </trkpt>
      <trkpt lat="49.4446" lon="0.83771">
        <ele>54.93</ele>
        <time>2018-07-07T17:43:47Z</time>
      </trkpt>
      <trkpt lat="49.44448" lon="0.83756">
        <ele>53.97</ele>
        <time>2018-07-07T17:43:49Z</time>
      </trkpt>
      <trkpt lat="49.44436" lon="0.8374">
        <ele>53.01</ele>
        <time>2018-07-07T17:43:51Z</time>
      </trkpt>
      <trkpt lat="49.44408" lon="0.83698">
        <ele>49.65</ele>
        <time>2018-07-07T17:43:56Z</time>
      </trkpt>
      <trkpt lat="49.44381" lon="0.83655">
        <ele>46.28</ele>
        <time>2018-07-07T17:44:01Z</time>
      </trkpt>
      <trkpt lat="49.44376" lon="0.83647">
        <ele>46.28</ele>
        <time>2018-07-07T17:44:02Z</time>
      </trkpt>
      <trkpt lat="49.44351" lon="0.83604">
        <ele>42.44</ele>
        <time>2018-07-07T17:44:07Z</time>
      </trkpt>
      <trkpt lat="49.44347" lon="0.83597">
        <ele>42.44</ele>
        <time>2018-07-07T17:44:08Z</time>
      </trkpt>
      <trkpt lat="49.4433" lon="0.83567">
        <ele>40.51</ele>
        <time>2018-07-07T17:44:12Z</time>
      </trkpt>
      <trkpt lat="49.44272" lon="0.83487">
        <ele>39.07</ele>
        <time>2018-07-07T17:44:25Z</time>
      </trkpt>
      <trkpt lat="49.44268" lon="0.83482">
        <ele>39.07</ele>
        <time>2018-07-07T17:44:26Z</time>
      </trkpt>
      <trkpt lat="49.44232" lon="0.83422">
        <ele>40.99</ele>
        <time>2018-07-07T17:44:39Z</time>
      </trkpt>
      <trkpt lat="49.44199" lon="0.83361">
        <ele>43.4</ele>
        <time>2018-07-07T17:44:53Z</time>
      </trkpt>
      <trkpt lat="49.44159" lon="0.83285">
        <ele>45.8</ele>
        <time>2018-07-07T17:45:11Z</time>
      </trkpt>
      <trkpt lat="49.44122" lon="0.83253">
        <ele>46.76</ele>
        <time>2018-07-07T17:45:24Z</time>
      </trkpt>
      <trkpt lat="49.44069" lon="0.83271">
        <ele>46.76</ele>
        <time>2018-07-07T17:45:37Z</time>
      </trkpt>
      <trkpt lat="49.44047" lon="0.83277">
        <ele>47.24</ele>
        <time>2018-07-07T17:45:42Z</time>
      </trkpt>
      <trkpt lat="49.43973" lon="0.833">
        <ele>47.24</ele>
        <time>2018-07-07T17:45:59Z</time>
      </trkpt>
      <trkpt lat="49.43911" lon="0.83319">
        <ele>47.72</ele>
        <time>2018-07-07T17:46:14Z</time>
      </trkpt>
      <trkpt lat="49.4384" lon="0.83345">
        <ele>47.24</ele>
        <time>2018-07-07T17:46:31Z</time>
      </trkpt>
      <trkpt lat="49.43836" lon="0.83343">
        <ele>47.24</ele>
        <time>2018-07-07T17:46:32Z</time>
      </trkpt>
      <trkpt lat="49.43833" lon="0.83339">
        <ele>47.24</ele>
        <time>2018-07-07T17:46:33Z</time>
      </trkpt>
      <trkpt lat="49.4383" lon="0.83334">
        <ele>47.72</ele>
        <time>2018-07-07T17:46:34Z</time>
      </trkpt>
      <trkpt lat="49.43827" lon="0.83329">
        <ele>47.72</ele>
        <time>2018-07-07T17:46:35Z</time>
      </trkpt>
      <trkpt lat="49.43825" lon="0.83324">
        <ele>47.72</ele>
        <time>2018-07-07T17:46:36Z</time>
      </trkpt>
      <trkpt lat="49.43822" lon="0.83319">
        <ele>47.72</ele>
        <time>2018-07-07T17:46:37Z</time>
      </trkpt>
      <trkpt lat="49.4382" lon="0.83313">
        <ele>47.72</ele>
        <time>2018-07-07T17:46:38Z</time>
      </trkpt>
      <trkpt lat="49.4379" lon="0.83265">
        <ele>48.2</ele>
        <time>2018-07-07T17:46:50Z</time>
      </trkpt>
      <trkpt lat="49.43786" lon="0.83261">
        <ele>48.2</ele>
        <time>2018-07-07T17:46:51Z</time>
      </trkpt>
      <trkpt lat="49.43746" lon="0.83222">
        <ele>48.68</ele>
        <time>2018-07-07T17:47:03Z</time>
      </trkpt>
      <trkpt lat="49.43705" lon="0.83175">
        <ele>49.16</ele>
        <time>2018-07-07T17:47:14Z</time>
      </trkpt>
      <trkpt lat="49.43668" lon="0.83113">
        <ele>49.65</ele>
        <time>2018-07-07T17:47:25Z</time>
      </trkpt>
      <trkpt lat="49.43637" lon="0.83075">
        <ele>49.65</ele>
        <time>2018-07-07T17:47:33Z</time>
      </trkpt>
      <trkpt lat="49.43633" lon="0.8307">
        <ele>49.65</ele>
        <time>2018-07-07T17:47:34Z</time>
      </trkpt>
      <trkpt lat="49.43598" lon="0.83028">
        <ele>49.65</ele>
        <time>2018-07-07T17:47:43Z</time>
      </trkpt>
      <trkpt lat="49.43595" lon="0.83025">
        <ele>49.65</ele>
        <time>2018-07-07T17:47:44Z</time>
      </trkpt>
      <trkpt lat="49.43561" lon="0.82968">
        <ele>49.65</ele>
        <time>2018-07-07T17:47:58Z</time>
      </trkpt>
      <trkpt lat="49.43546" lon="0.82934">
        <ele>49.65</ele>
        <time>2018-07-07T17:48:08Z</time>
      </trkpt>
      <trkpt lat="49.43545" lon="0.82935">
        <ele>49.65</ele>
        <time>2018-07-07T17:48:09Z</time>
      </trkpt>
      <trkpt lat="49.43547" lon="0.82944">
        <ele>49.16</ele>
        <time>2018-07-07T17:48:12Z</time>
      </trkpt>
      <trkpt lat="49.4355" lon="0.82947">
        <ele>49.16</ele>
        <time>2018-07-07T17:48:13Z</time>
      </trkpt>
      <trkpt lat="49.43552" lon="0.8295">
        <ele>49.16</ele>
        <time>2018-07-07T17:48:14Z</time>
      </trkpt>
      <trkpt lat="49.43553" lon="0.82954">
        <ele>49.16</ele>
        <time>2018-07-07T17:48:15Z</time>
      </trkpt>
      <trkpt lat="49.43555" lon="0.82959">
        <ele>49.16</ele>
        <time>2018-07-07T17:48:16Z</time>
      </trkpt>
      <trkpt lat="49.43557" lon="0.82964">
        <ele>49.16</ele>
        <time>2018-07-07T17:48:17Z</time>
      </trkpt>
      <trkpt lat="49.43567" lon="0.82989">
        <ele>49.16</ele>
        <time>2018-07-07T17:48:22Z</time>
      </trkpt>
      <trkpt lat="49.43568" lon="0.82995">
        <ele>49.65</ele>
        <time>2018-07-07T17:48:23Z</time>
      </trkpt>
      <trkpt lat="49.43567" lon="0.83001">
        <ele>49.65</ele>
        <time>2018-07-07T17:48:24Z</time>
      </trkpt>
      <trkpt lat="49.43564" lon="0.83006">
        <ele>49.65</ele>
        <time>2018-07-07T17:48:25Z</time>
      </trkpt>
      <trkpt lat="49.43561" lon="0.83011">
        <ele>49.65</ele>
        <time>2018-07-07T17:48:26Z</time>
      </trkpt>
      <trkpt lat="49.43557" lon="0.83014">
        <ele>49.65</ele>
        <time>2018-07-07T17:48:27Z</time>
      </trkpt>
      <trkpt lat="49.43553" lon="0.83017">
        <ele>49.65</ele>
        <time>2018-07-07T17:48:28Z</time>
      </trkpt>
      <trkpt lat="49.43548" lon="0.83019">
        <ele>49.65</ele>
        <time>2018-07-07T17:48:29Z</time>
      </trkpt>
      <trkpt lat="49.43482" lon="0.8306">
        <ele>50.13</ele>
        <time>2018-07-07T17:48:44Z</time>
      </trkpt>
      <trkpt lat="49.43441" lon="0.83085">
        <ele>50.13</ele>
        <time>2018-07-07T17:48:53Z</time>
      </trkpt>
      <trkpt lat="49.43437" lon="0.83088">
        <ele>50.13</ele>
        <time>2018-07-07T17:48:54Z</time>
      </trkpt>
      <trkpt lat="49.43432" lon="0.8309">
        <ele>50.13</ele>
        <time>2018-07-07T17:48:55Z</time>
      </trkpt>
      <trkpt lat="49.43367" lon="0.83136">
        <ele>51.09</ele>
        <time>2018-07-07T17:49:09Z</time>
      </trkpt>
      <trkpt lat="49.43336" lon="0.83157">
        <ele>51.09</ele>
        <time>2018-07-07T17:49:16Z</time>
      </trkpt>
      <trkpt lat="49.43331" lon="0.8316">
        <ele>51.09</ele>
        <time>2018-07-07T17:49:17Z</time>
      </trkpt>
      <trkpt lat="49.43269" lon="0.83202">
        <ele>51.57</ele>
        <time>2018-07-07T17:49:31Z</time>
      </trkpt>
      <trkpt lat="49.43264" lon="0.83204">
        <ele>51.57</ele>
        <time>2018-07-07T17:49:32Z</time>
      </trkpt>
      <trkpt lat="49.43259" lon="0.83207">
        <ele>51.57</ele>
        <time>2018-07-07T17:49:33Z</time>
      </trkpt>
      <trkpt lat="49.43255" lon="0.8321">
        <ele>51.57</ele>
        <time>2018-07-07T17:49:34Z</time>
      </trkpt>
      <trkpt lat="49.43236" lon="0.83221">
        <ele>51.57</ele>
        <time>2018-07-07T17:49:38Z</time>
      </trkpt>
      <trkpt lat="49.43164" lon="0.83269">
        <ele>51.57</ele>
        <time>2018-07-07T17:49:53Z</time>
      </trkpt>
      <trkpt lat="49.43123" lon="0.83297">
        <ele>51.57</ele>
        <time>2018-07-07T17:50:01Z</time>
      </trkpt>
      <trkpt lat="49.43117" lon="0.83298">
        <ele>51.57</ele>
        <time>2018-07-07T17:50:02Z</time>
      </trkpt>
      <trkpt lat="49.43112" lon="0.83295">
        <ele>51.57</ele>
        <time>2018-07-07T17:50:03Z</time>
      </trkpt>
      <trkpt lat="49.43109" lon="0.8329">
        <ele>51.57</ele>
        <time>2018-07-07T17:50:04Z</time>
      </trkpt>
      <trkpt lat="49.43107" lon="0.83283">
        <ele>51.57</ele>
        <time>2018-07-07T17:50:05Z</time>
      </trkpt>
      <trkpt lat="49.43106" lon="0.83277">
        <ele>51.57</ele>
        <time>2018-07-07T17:50:06Z</time>
      </trkpt>
      <trkpt lat="49.43106" lon="0.83271">
        <ele>51.57</ele>
        <time>2018-07-07T17:50:07Z</time>
      </trkpt>
      <trkpt lat="49.43106" lon="0.83265">
        <ele>51.57</ele>
        <time>2018-07-07T17:50:08Z</time>
      </trkpt>
      <trkpt lat="49.43101" lon="0.83213">
        <ele>51.57</ele>
        <time>2018-07-07T17:50:15Z</time>
      </trkpt>
      <trkpt lat="49.431" lon="0.83205">
        <ele>51.57</ele>
        <time>2018-07-07T17:50:16Z</time>
      </trkpt>
      <trkpt lat="49.43098" lon="0.83197">
        <ele>51.57</ele>
        <time>2018-07-07T17:50:17Z</time>
      </trkpt>
      <trkpt lat="49.43096" lon="0.83191">
        <ele>51.57</ele>
        <time>2018-07-07T17:50:18Z</time>
      </trkpt>
      <trkpt lat="49.43093" lon="0.83185">
        <ele>51.57</ele>
        <time>2018-07-07T17:50:19Z</time>
      </trkpt>
      <trkpt lat="49.43089" lon="0.8318">
        <ele>51.57</ele>
        <time>2018-07-07T17:50:20Z</time>
      </trkpt>
      <trkpt lat="49.43086" lon="0.83175">
        <ele>51.57</ele>
        <time>2018-07-07T17:50:21Z</time>
      </trkpt>
      <trkpt lat="49.43082" lon="0.83171">
        <ele>51.57</ele>
        <time>2018-07-07T17:50:22Z</time>
      </trkpt>
      <trkpt lat="49.43072" lon="0.83164">
        <ele>51.57</ele>
        <time>2018-07-07T17:50:24Z</time>
      </trkpt>
      <trkpt lat="49.43067" lon="0.83162">
        <ele>51.57</ele>
        <time>2018-07-07T17:50:25Z</time>
      </trkpt>
      <trkpt lat="49.43062" lon="0.83161">
        <ele>50.61</ele>
        <time>2018-07-07T17:50:26Z</time>
      </trkpt>
      <trkpt lat="49.43056" lon="0.8316">
        <ele>50.61</ele>
        <time>2018-07-07T17:50:27Z</time>
      </trkpt>
      <trkpt lat="49.4297" lon="0.83171">
        <ele>49.65</ele>
        <time>2018-07-07T17:50:42Z</time>
      </trkpt>
      <trkpt lat="49.42925" lon="0.83182">
        <ele>48.68</ele>
        <time>2018-07-07T17:50:49Z</time>
      </trkpt>
      <trkpt lat="49.42838" lon="0.83166">
        <ele>47.24</ele>
        <time>2018-07-07T17:51:03Z</time>
      </trkpt>
      <trkpt lat="49.42734" lon="0.83136">
        <ele>44.36</ele>
        <time>2018-07-07T17:51:20Z</time>
      </trkpt>
      <trkpt lat="49.42638" lon="0.83092">
        <ele>41.95</ele>
        <time>2018-07-07T17:51:36Z</time>
      </trkpt>
      <trkpt lat="49.42549" lon="0.83028">
        <ele>40.03</ele>
        <time>2018-07-07T17:51:52Z</time>
      </trkpt>
      <trkpt lat="49.42518" lon="0.83005">
        <ele>39.07</ele>
        <time>2018-07-07T17:51:58Z</time>
      </trkpt>
      <trkpt lat="49.42515" lon="0.83">
        <ele>38.59</ele>
        <time>2018-07-07T17:51:59Z</time>
      </trkpt>
      <trkpt lat="49.42514" lon="0.82993">
        <ele>38.59</ele>
        <time>2018-07-07T17:52:00Z</time>
      </trkpt>
      <trkpt lat="49.42513" lon="0.82987">
        <ele>38.59</ele>
        <time>2018-07-07T17:52:01Z</time>
      </trkpt>
      <trkpt lat="49.42512" lon="0.8298">
        <ele>38.59</ele>
        <time>2018-07-07T17:52:02Z</time>
      </trkpt>
      <trkpt lat="49.42511" lon="0.82973">
        <ele>38.59</ele>
        <time>2018-07-07T17:52:03Z</time>
      </trkpt>
      <trkpt lat="49.4251" lon="0.82967">
        <ele>38.11</ele>
        <time>2018-07-07T17:52:04Z</time>
      </trkpt>
      <trkpt lat="49.42492" lon="0.82853">
        <ele>36.67</ele>
        <time>2018-07-07T17:52:17Z</time>
      </trkpt>
      <trkpt lat="49.42476" lon="0.82742">
        <ele>32.82</ele>
        <time>2018-07-07T17:52:27Z</time>
      </trkpt>
      <trkpt lat="49.42471" lon="0.82718">
        <ele>32.34</ele>
        <time>2018-07-07T17:52:29Z</time>
      </trkpt>
      <trkpt lat="49.42465" lon="0.82695">
        <ele>31.86</ele>
        <time>2018-07-07T17:52:31Z</time>
      </trkpt>
      <trkpt lat="49.42445" lon="0.82627">
        <ele>28.5</ele>
        <time>2018-07-07T17:52:37Z</time>
      </trkpt>
      <trkpt lat="49.42441" lon="0.8261">
        <ele>27.53</ele>
        <time>2018-07-07T17:52:39Z</time>
      </trkpt>
      <trkpt lat="49.42439" lon="0.82589">
        <ele>26.57</ele>
        <time>2018-07-07T17:52:42Z</time>
      </trkpt>
      <trkpt lat="49.42436" lon="0.82584">
        <ele>26.09</ele>
        <time>2018-07-07T17:52:43Z</time>
      </trkpt>
      <trkpt lat="49.42433" lon="0.82581">
        <ele>25.61</ele>
        <time>2018-07-07T17:52:44Z</time>
      </trkpt>
      <trkpt lat="49.42428" lon="0.82578">
        <ele>25.61</ele>
        <time>2018-07-07T17:52:45Z</time>
      </trkpt>
      <trkpt lat="49.42423" lon="0.82577">
        <ele>25.13</ele>
        <time>2018-07-07T17:52:46Z</time>
      </trkpt>
      <trkpt lat="49.42402" lon="0.82564">
        <ele>24.65</ele>
        <time>2018-07-07T17:52:50Z</time>
      </trkpt>
      <trkpt lat="49.42396" lon="0.82559">
        <ele>24.65</ele>
        <time>2018-07-07T17:52:51Z</time>
      </trkpt>
      <trkpt lat="49.42345" lon="0.82505">
        <ele>21.29</ele>
        <time>2018-07-07T17:53:00Z</time>
      </trkpt>
      <trkpt lat="49.42325" lon="0.82487">
        <ele>20.32</ele>
        <time>2018-07-07T17:53:08Z</time>
      </trkpt>
      <trkpt lat="49.42322" lon="0.82487">
        <ele>20.32</ele>
        <time>2018-07-07T17:53:09Z</time>
      </trkpt>
      <trkpt lat="49.42317" lon="0.8249">
        <ele>19.84</ele>
        <time>2018-07-07T17:53:10Z</time>
      </trkpt>
      <trkpt lat="49.42308" lon="0.82497">
        <ele>19.36</ele>
        <time>2018-07-07T17:53:12Z</time>
      </trkpt>
      <trkpt lat="49.42302" lon="0.82501">
        <ele>19.36</ele>
        <time>2018-07-07T17:53:13Z</time>
      </trkpt>
      <trkpt lat="49.42205" lon="0.82571">
        <ele>18.4</ele>
        <time>2018-07-07T17:53:29Z</time>
      </trkpt>
      <trkpt lat="49.42172" lon="0.8261">
        <ele>17.92</ele>
        <time>2018-07-07T17:53:35Z</time>
      </trkpt>
      <trkpt lat="49.42082" lon="0.82722">
        <ele>16.48</ele>
        <time>2018-07-07T17:53:51Z</time>
      </trkpt>
      <trkpt lat="49.42021" lon="0.82778">
        <ele>16.48</ele>
        <time>2018-07-07T17:54:01Z</time>
      </trkpt>
      <trkpt lat="49.42002" lon="0.82793">
        <ele>16.48</ele>
        <time>2018-07-07T17:54:04Z</time>
      </trkpt>
      <trkpt lat="49.41902" lon="0.82851">
        <ele>14.56</ele>
        <time>2018-07-07T17:54:18Z</time>
      </trkpt>
      <trkpt lat="49.41786" lon="0.82881">
        <ele>11.67</ele>
        <time>2018-07-07T17:54:32Z</time>
      </trkpt>
      <trkpt lat="49.41755" lon="0.82895">
        <ele>11.67</ele>
        <time>2018-07-07T17:54:36Z</time>
      </trkpt>
      <trkpt lat="49.41748" lon="0.82901">
        <ele>11.67</ele>
        <time>2018-07-07T17:54:37Z</time>
      </trkpt>
      <trkpt lat="49.41742" lon="0.82909">
        <ele>11.67</ele>
        <time>2018-07-07T17:54:38Z</time>
      </trkpt>
      <trkpt lat="49.41738" lon="0.82919">
        <ele>11.67</ele>
        <time>2018-07-07T17:54:39Z</time>
      </trkpt>
      <trkpt lat="49.41735" lon="0.82928">
        <ele>11.67</ele>
        <time>2018-07-07T17:54:40Z</time>
      </trkpt>
      <trkpt lat="49.41732" lon="0.82938">
        <ele>11.67</ele>
        <time>2018-07-07T17:54:41Z</time>
      </trkpt>
      <trkpt lat="49.41729" lon="0.82949">
        <ele>11.67</ele>
        <time>2018-07-07T17:54:42Z</time>
      </trkpt>
      <trkpt lat="49.41688" lon="0.831">
        <ele>11.67</ele>
        <time>2018-07-07T17:54:58Z</time>
      </trkpt>
      <trkpt lat="49.41637" lon="0.83252">
        <ele>14.56</ele>
        <time>2018-07-07T17:55:16Z</time>
      </trkpt>
      <trkpt lat="49.41597" lon="0.83385">
        <ele>14.56</ele>
        <time>2018-07-07T17:55:34Z</time>
      </trkpt>
      <trkpt lat="49.41555" lon="0.83499">
        <ele>15.52</ele>
        <time>2018-07-07T17:55:51Z</time>
      </trkpt>
      <trkpt lat="49.41512" lon="0.83637">
        <ele>16.96</ele>
        <time>2018-07-07T17:56:11Z</time>
      </trkpt>
      <trkpt lat="49.41487" lon="0.8375">
        <ele>17.92</ele>
        <time>2018-07-07T17:56:27Z</time>
      </trkpt>
      <trkpt lat="49.41466" lon="0.8384">
        <ele>18.88</ele>
        <time>2018-07-07T17:56:40Z</time>
      </trkpt>
      <trkpt lat="49.41439" lon="0.83967">
        <ele>19.84</ele>
        <time>2018-07-07T17:56:58Z</time>
      </trkpt>
      <trkpt lat="49.41431" lon="0.83994">
        <ele>19.84</ele>
        <time>2018-07-07T17:57:02Z</time>
      </trkpt>
      <trkpt lat="49.41429" lon="0.84">
        <ele>19.84</ele>
        <time>2018-07-07T17:57:03Z</time>
      </trkpt>
      <trkpt lat="49.41389" lon="0.84103">
        <ele>20.81</ele>
        <time>2018-07-07T17:57:19Z</time>
      </trkpt>
      <trkpt lat="49.41341" lon="0.8423">
        <ele>21.29</ele>
        <time>2018-07-07T17:57:38Z</time>
      </trkpt>
      <trkpt lat="49.41299" lon="0.84341">
        <ele>22.73</ele>
        <time>2018-07-07T17:57:55Z</time>
      </trkpt>
      <trkpt lat="49.41297" lon="0.84347">
        <ele>22.73</ele>
        <time>2018-07-07T17:57:56Z</time>
      </trkpt>
      <trkpt lat="49.41285" lon="0.84381">
        <ele>22.73</ele>
        <time>2018-07-07T17:58:02Z</time>
      </trkpt>
      <trkpt lat="49.41244" lon="0.84473">
        <ele>21.29</ele>
        <time>2018-07-07T17:58:17Z</time>
      </trkpt>
      <trkpt lat="49.41228" lon="0.84511">
        <ele>19.84</ele>
        <time>2018-07-07T17:58:22Z</time>
      </trkpt>
      <trkpt lat="49.41183" lon="0.8462">
        <ele>18.88</ele>
        <time>2018-07-07T17:58:36Z</time>
      </trkpt>
      <trkpt lat="49.41179" lon="0.84624">
        <ele>18.4</ele>
        <time>2018-07-07T17:58:37Z</time>
      </trkpt>
      <trkpt lat="49.41174" lon="0.84628">
        <ele>18.4</ele>
        <time>2018-07-07T17:58:38Z</time>
      </trkpt>
      <trkpt lat="49.41169" lon="0.8463">
        <ele>18.4</ele>
        <time>2018-07-07T17:58:39Z</time>
      </trkpt>
      <trkpt lat="49.41164" lon="0.84631">
        <ele>18.4</ele>
        <time>2018-07-07T17:58:40Z</time>
      </trkpt>
      <trkpt lat="49.4116" lon="0.84629">
        <ele>18.4</ele>
        <time>2018-07-07T17:58:41Z</time>
      </trkpt>
      <trkpt lat="49.41156" lon="0.84622">
        <ele>17.92</ele>
        <time>2018-07-07T17:58:42Z</time>
      </trkpt>
      <trkpt lat="49.41155" lon="0.84614">
        <ele>17.92</ele>
        <time>2018-07-07T17:58:43Z</time>
      </trkpt>
      <trkpt lat="49.41156" lon="0.84606">
        <ele>17.92</ele>
        <time>2018-07-07T17:58:44Z</time>
      </trkpt>
      <trkpt lat="49.41157" lon="0.84598">
        <ele>17.92</ele>
        <time>2018-07-07T17:58:45Z</time>
      </trkpt>
      <trkpt lat="49.41158" lon="0.84591">
        <ele>16.96</ele>
        <time>2018-07-07T17:58:46Z</time>
      </trkpt>
      <trkpt lat="49.41158" lon="0.84583">
        <ele>16.96</ele>
        <time>2018-07-07T17:58:47Z</time>
      </trkpt>
      <trkpt lat="49.41156" lon="0.84578">
        <ele>16.96</ele>
        <time>2018-07-07T17:58:48Z</time>
      </trkpt>
      <trkpt lat="49.41152" lon="0.84575">
        <ele>17.44</ele>
        <time>2018-07-07T17:58:49Z</time>
      </trkpt>
      <trkpt lat="49.4115" lon="0.84572">
        <ele>17.44</ele>
        <time>2018-07-07T17:58:50Z</time>
      </trkpt>
      <trkpt lat="49.41148" lon="0.84566">
        <ele>16.96</ele>
        <time>2018-07-07T17:58:51Z</time>
      </trkpt>
      <trkpt lat="49.41147" lon="0.84561">
        <ele>16.96</ele>
        <time>2018-07-07T17:58:52Z</time>
      </trkpt>
      <trkpt lat="49.41147" lon="0.84555">
        <ele>16.96</ele>
        <time>2018-07-07T17:58:53Z</time>
      </trkpt>
      <trkpt lat="49.41147" lon="0.84515">
        <ele>16</ele>
        <time>2018-07-07T17:59:01Z</time>
      </trkpt>
      <trkpt lat="49.41173" lon="0.84444">
        <ele>16.48</ele>
        <time>2018-07-07T17:59:15Z</time>
      </trkpt>
      <trkpt lat="49.41177" lon="0.84436">
        <ele>16</ele>
        <time>2018-07-07T17:59:17Z</time>
      </trkpt>
      <trkpt lat="49.41177" lon="0.84431">
        <ele>16</ele>
        <time>2018-07-07T17:59:18Z</time>
      </trkpt>
      <trkpt lat="49.41171" lon="0.84417">
        <ele>16</ele>
        <time>2018-07-07T17:59:21Z</time>
      </trkpt>
      <trkpt lat="49.41171" lon="0.84411">
        <ele>16</ele>
        <time>2018-07-07T17:59:22Z</time>
      </trkpt>
      <trkpt lat="49.41173" lon="0.84406">
        <ele>16</ele>
        <time>2018-07-07T17:59:23Z</time>
      </trkpt>
      <trkpt lat="49.41178" lon="0.84389">
        <ele>16</ele>
        <time>2018-07-07T17:59:26Z</time>
      </trkpt>
      <trkpt lat="49.41181" lon="0.84384">
        <ele>16</ele>
        <time>2018-07-07T17:59:27Z</time>
      </trkpt>
      <trkpt lat="49.41184" lon="0.84379">
        <ele>16</ele>
        <time>2018-07-07T17:59:28Z</time>
      </trkpt>
      <trkpt lat="49.41185" lon="0.84373">
        <ele>16</ele>
        <time>2018-07-07T17:59:29Z</time>
      </trkpt>
      <trkpt lat="49.41184" lon="0.84367">
        <ele>16</ele>
        <time>2018-07-07T17:59:30Z</time>
      </trkpt>
      <trkpt lat="49.41181" lon="0.84362">
        <ele>16</ele>
        <time>2018-07-07T17:59:31Z</time>
      </trkpt>
      <trkpt lat="49.4118" lon="0.84359">
        <ele>16</ele>
        <time>2018-07-07T17:59:32Z</time>
      </trkpt>
      <trkpt lat="49.41177" lon="0.84355">
        <ele>16</ele>
        <time>2018-07-07T17:59:33Z</time>
      </trkpt>
      <trkpt lat="49.41126" lon="0.84258">
        <ele>15.04</ele>
        <time>2018-07-07T17:59:50Z</time>
      </trkpt>
      <trkpt lat="49.41114" lon="0.84232">
        <ele>13.6</ele>
        <time>2018-07-07T17:59:54Z</time>
      </trkpt>
      <trkpt lat="49.41112" lon="0.84226">
        <ele>13.6</ele>
        <time>2018-07-07T17:59:55Z</time>
      </trkpt>
      <trkpt lat="49.4111" lon="0.8422">
        <ele>13.6</ele>
        <time>2018-07-07T17:59:56Z</time>
      </trkpt>
      <trkpt lat="49.4111" lon="0.84215">
        <ele>13.6</ele>
        <time>2018-07-07T17:59:57Z</time>
      </trkpt>
      <trkpt lat="49.4111" lon="0.8421">
        <ele>13.6</ele>
        <time>2018-07-07T17:59:58Z</time>
      </trkpt>
      <trkpt lat="49.41111" lon="0.84206">
        <ele>13.12</ele>
        <time>2018-07-07T17:59:59Z</time>
      </trkpt>
      <trkpt lat="49.41111" lon="0.84202">
        <ele>13.12</ele>
        <time>2018-07-07T18:00:00Z</time>
      </trkpt>
      <trkpt lat="49.41111" lon="0.84199">
        <ele>13.12</ele>
        <time>2018-07-07T18:00:01Z</time>
      </trkpt>
      <trkpt lat="49.41111" lon="0.84195">
        <ele>13.12</ele>
        <time>2018-07-07T18:00:02Z</time>
      </trkpt>
      <trkpt lat="49.41111" lon="0.84192">
        <ele>13.12</ele>
        <time>2018-07-07T18:00:03Z</time>
      </trkpt>
      <trkpt lat="49.4111" lon="0.84188">
        <ele>13.12</ele>
        <time>2018-07-07T18:00:04Z</time>
      </trkpt>
      <trkpt lat="49.41108" lon="0.84184">
        <ele>12.15</ele>
        <time>2018-07-07T18:00:05Z</time>
      </trkpt>
      <trkpt lat="49.41105" lon="0.84178">
        <ele>11.19</ele>
        <time>2018-07-07T18:00:06Z</time>
      </trkpt>
      <trkpt lat="49.41087" lon="0.84163">
        <ele>7.83</ele>
        <time>2018-07-07T18:00:10Z</time>
      </trkpt>
      <trkpt lat="49.41075" lon="0.84172">
        <ele>6.87</ele>
        <time>2018-07-07T18:00:13Z</time>
      </trkpt>
      <trkpt lat="49.41039" lon="0.84221">
        <ele>6.87</ele>
        <time>2018-07-07T18:00:27Z</time>
      </trkpt>
      <trkpt lat="49.41035" lon="0.84238">
        <ele>6.87</ele>
        <time>2018-07-07T18:00:39Z</time>
      </trkpt>
      <trkpt lat="49.41037" lon="0.8424">
        <ele>6.39</ele>
        <time>2018-07-07T18:01:02Z</time>
      </trkpt>
      <trkpt lat="49.41039" lon="0.84243">
        <ele>6.39</ele>
        <time>2018-07-07T18:01:24Z</time>
      </trkpt>
      <trkpt lat="49.41037" lon="0.84241">
        <ele>6.39</ele>
        <time>2018-07-07T18:01:27Z</time>
      </trkpt>
      <trkpt lat="49.41033" lon="0.84238">
        <ele>5.91</ele>
        <time>2018-07-07T18:01:36Z</time>
      </trkpt>
      <trkpt lat="49.41033" lon="0.84238">
        <ele>5.42</ele>
        <time>2018-07-07T18:02:06Z</time>
      </trkpt>
      <trkpt lat="49.41033" lon="0.84237">
        <ele>5.42</ele>
        <time>2018-07-07T18:02:30Z</time>
      </trkpt>
      <trkpt lat="49.41033" lon="0.84239">
        <ele>5.42</ele>
        <time>2018-07-07T18:02:58Z</time>
      </trkpt>
      <trkpt lat="49.41034" lon="0.84239">
        <ele>5.42</ele>
        <time>2018-07-07T18:03:28Z</time>
      </trkpt>
      <trkpt lat="49.41035" lon="0.8424">
        <ele>4.94</ele>
        <time>2018-07-07T18:03:49Z</time>
      </trkpt>
      <trkpt lat="49.41033" lon="0.84236">
        <ele>4.94</ele>
        <time>2018-07-07T18:04:20Z</time>
      </trkpt>
      <trkpt lat="49.41032" lon="0.84238">
        <ele>4.46</ele>
        <time>2018-07-07T18:04:52Z</time>
      </trkpt>
      <trkpt lat="49.41035" lon="0.84237">
        <ele>4.46</ele>
        <time>2018-07-07T18:05:15Z</time>
      </trkpt>
      <trkpt lat="49.41034" lon="0.8424">
        <ele>4.46</ele>
        <time>2018-07-07T18:05:44Z</time>
      </trkpt>
      <trkpt lat="49.41033" lon="0.84239">
        <ele>4.46</ele>
        <time>2018-07-07T18:06:11Z</time>
      </trkpt>
      <trkpt lat="49.4103" lon="0.84237">
        <ele>4.46</ele>
        <time>2018-07-07T18:06:39Z</time>
      </trkpt>
      <trkpt lat="49.41033" lon="0.84237">
        <ele>4.46</ele>
        <time>2018-07-07T18:07:04Z</time>
      </trkpt>
      <trkpt lat="49.41033" lon="0.84238">
        <ele>4.46</ele>
        <time>2018-07-07T18:07:38Z</time>
      </trkpt>
      <trkpt lat="49.41035" lon="0.8424">
        <ele>4.46</ele>
        <time>2018-07-07T18:08:10Z</time>
      </trkpt>
      <trkpt lat="49.41034" lon="0.84238">
        <ele>4.46</ele>
        <time>2018-07-07T18:08:40Z</time>
      </trkpt>
      <trkpt lat="49.41034" lon="0.84239">
        <ele>3.98</ele>
        <time>2018-07-07T18:09:09Z</time>
      </trkpt>
      <trkpt lat="49.41034" lon="0.84238">
        <ele>3.98</ele>
        <time>2018-07-07T18:09:44Z</time>
      </trkpt>
      <trkpt lat="49.41036" lon="0.84237">
        <ele>3.98</ele>
        <time>2018-07-07T18:10:13Z</time>
      </trkpt>
      <trkpt lat="49.41034" lon="0.84237">
        <ele>3.98</ele>
        <time>2018-07-07T18:10:44Z</time>
      </trkpt>
      <trkpt lat="49.41032" lon="0.84238">
        <ele>3.98</ele>
        <time>2018-07-07T18:11:16Z</time>
      </trkpt>
      <trkpt lat="49.41035" lon="0.84239">
        <ele>3.98</ele>
        <time>2018-07-07T18:11:42Z</time>
      </trkpt>
      <trkpt lat="49.41036" lon="0.84238">
        <ele>3.98</ele>
        <time>2018-07-07T18:12:15Z</time>
      </trkpt>
      <trkpt lat="49.41037" lon="0.84238">
        <ele>3.98</ele>
        <time>2018-07-07T18:12:39Z</time>
      </trkpt>
      <trkpt lat="49.41036" lon="0.84238">
        <ele>3.98</ele>
        <time>2018-07-07T18:13:08Z</time>
      </trkpt>
      <trkpt lat="49.41036" lon="0.84237">
        <ele>3.98</ele>
        <time>2018-07-07T18:13:35Z</time>
      </trkpt>
      <trkpt lat="49.41035" lon="0.84238">
        <ele>3.98</ele>
        <time>2018-07-07T18:14:00Z</time>
      </trkpt>
      <trkpt lat="49.41036" lon="0.84239">
        <ele>3.98</ele>
        <time>2018-07-07T18:14:29Z</time>
      </trkpt>
      <trkpt lat="49.41035" lon="0.84238">
        <ele>3.98</ele>
        <time>2018-07-07T18:14:57Z</time>
      </trkpt>
      <trkpt lat="49.41035" lon="0.84236">
        <ele>3.98</ele>
        <time>2018-07-07T18:15:25Z</time>
      </trkpt>
      <trkpt lat="49.41036" lon="0.84239">
        <ele>3.98</ele>
        <time>2018-07-07T18:15:54Z</time>
      </trkpt>
      <trkpt lat="49.41034" lon="0.84238">
        <ele>3.98</ele>
        <time>2018-07-07T18:16:23Z</time>
      </trkpt>
      <trkpt lat="49.41033" lon="0.84236">
        <ele>3.98</ele>
        <time>2018-07-07T18:16:53Z</time>
      </trkpt>
      <trkpt lat="49.41036" lon="0.84235">
        <ele>3.98</ele>
        <time>2018-07-07T18:17:29Z</time>
      </trkpt>
      <trkpt lat="49.41036" lon="0.84239">
        <ele>3.98</ele>
        <time>2018-07-07T18:17:56Z</time>
      </trkpt>
      <trkpt lat="49.41034" lon="0.84238">
        <ele>3.98</ele>
        <time>2018-07-07T18:18:25Z</time>
      </trkpt>
      <trkpt lat="49.41035" lon="0.84239">
        <ele>3.98</ele>
        <time>2018-07-07T18:18:49Z</time>
      </trkpt>
      <trkpt lat="49.41035" lon="0.84238">
        <ele>3.98</ele>
        <time>2018-07-07T18:19:22Z</time>
      </trkpt>
      <trkpt lat="49.41035" lon="0.84239">
        <ele>3.98</ele>
        <time>2018-07-07T18:19:42Z</time>
      </trkpt>
      <trkpt lat="49.41032" lon="0.84237">
        <ele>3.98</ele>
        <time>2018-07-07T18:20:06Z</time>
      </trkpt>
      <trkpt lat="49.41034" lon="0.84236">
        <ele>3.98</ele>
        <time>2018-07-07T18:20:36Z</time>
      </trkpt>
      <trkpt lat="49.41035" lon="0.84238">
        <ele>3.98</ele>
        <time>2018-07-07T18:21:05Z</time>
      </trkpt>
      <trkpt lat="49.41034" lon="0.84238">
        <ele>3.98</ele>
        <time>2018-07-07T18:21:40Z</time>
      </trkpt>
      <trkpt lat="49.41033" lon="0.84237">
        <ele>3.98</ele>
        <time>2018-07-07T18:22:12Z</time>
      </trkpt>
      <trkpt lat="49.41034" lon="0.84238">
        <ele>3.98</ele>
        <time>2018-07-07T18:22:46Z</time>
      </trkpt>
      <trkpt lat="49.41034" lon="0.84237">
        <ele>3.98</ele>
        <time>2018-07-07T18:23:17Z</time>
      </trkpt>
      <trkpt lat="49.41034" lon="0.84237">
        <ele>3.98</ele>
        <time>2018-07-07T18:23:48Z</time>
      </trkpt>
      <trkpt lat="49.41035" lon="0.84239">
        <ele>3.98</ele>
        <time>2018-07-07T18:24:13Z</time>
      </trkpt>
      <trkpt lat="49.41034" lon="0.84237">
        <ele>3.98</ele>
        <time>2018-07-07T18:24:43Z</time>
      </trkpt>
      <trkpt lat="49.41036" lon="0.84239">
        <ele>3.98</ele>
        <time>2018-07-07T18:25:20Z</time>
      </trkpt>
      <trkpt lat="49.41036" lon="0.84239">
        <ele>3.98</ele>
        <time>2018-07-07T18:25:51Z</time>
      </trkpt>
      <trkpt lat="49.41034" lon="0.84238">
        <ele>3.98</ele>
        <time>2018-07-07T18:26:24Z</time>
      </trkpt>
      <trkpt lat="49.41032" lon="0.84237">
        <ele>3.98</ele>
        <time>2018-07-07T18:27:03Z</time>
      </trkpt>
      <trkpt lat="49.41031" lon="0.84237">
        <ele>3.98</ele>
        <time>2018-07-07T18:27:17Z</time>
      </trkpt>
      <trkpt lat="49.41037" lon="0.84235">
        <ele>5.42</ele>
        <time>2018-07-07T18:27:29Z</time>
      </trkpt>
      <trkpt lat="49.41038" lon="0.84234">
        <ele>5.42</ele>
        <time>2018-07-07T18:27:30Z</time>
      </trkpt>
      <trkpt lat="49.41039" lon="0.84221">
        <ele>5.42</ele>
        <time>2018-07-07T18:27:36Z</time>
      </trkpt>
      <trkpt lat="49.41043" lon="0.84228">
        <ele>5.42</ele>
        <time>2018-07-07T18:27:44Z</time>
      </trkpt>
      <trkpt lat="49.41042" lon="0.84236">
        <ele>5.42</ele>
        <time>2018-07-07T18:27:47Z</time>
      </trkpt>
      <trkpt lat="49.4106" lon="0.84244">
        <ele>7.83</ele>
        <time>2018-07-07T18:27:59Z</time>
      </trkpt>
      <trkpt lat="49.41066" lon="0.84239">
        <ele>9.75</ele>
        <time>2018-07-07T18:28:04Z</time>
      </trkpt>
      <trkpt lat="49.41072" lon="0.84255">
        <ele>11.19</ele>
        <time>2018-07-07T18:28:15Z</time>
      </trkpt>
      <trkpt lat="49.4107" lon="0.84257">
        <ele>11.19</ele>
        <time>2018-07-07T18:28:16Z</time>
      </trkpt>
      <trkpt lat="49.41068" lon="0.84259">
        <ele>10.71</ele>
        <time>2018-07-07T18:28:17Z</time>
      </trkpt>
      <trkpt lat="49.41066" lon="0.84262">
        <ele>10.71</ele>
        <time>2018-07-07T18:28:18Z</time>
      </trkpt>
      <trkpt lat="49.41064" lon="0.84264">
        <ele>10.71</ele>
        <time>2018-07-07T18:28:19Z</time>
      </trkpt>
      <trkpt lat="49.41062" lon="0.84266">
        <ele>10.71</ele>
        <time>2018-07-07T18:28:20Z</time>
      </trkpt>
      <trkpt lat="49.41061" lon="0.84269">
        <ele>10.71</ele>
        <time>2018-07-07T18:28:21Z</time>
      </trkpt>
      <trkpt lat="49.4106" lon="0.84273">
        <ele>10.71</ele>
        <time>2018-07-07T18:28:22Z</time>
      </trkpt>
      <trkpt lat="49.41058" lon="0.84276">
        <ele>10.71</ele>
        <time>2018-07-07T18:28:23Z</time>
      </trkpt>
      <trkpt lat="49.41057" lon="0.84279">
        <ele>10.71</ele>
        <time>2018-07-07T18:28:24Z</time>
      </trkpt>
      <trkpt lat="49.41041" lon="0.84323">
        <ele>11.19</ele>
        <time>2018-07-07T18:28:37Z</time>
      </trkpt>
      <trkpt lat="49.41016" lon="0.84389">
        <ele>11.67</ele>
        <time>2018-07-07T18:28:50Z</time>
      </trkpt>
      <trkpt lat="49.41006" lon="0.84411">
        <ele>12.15</ele>
        <time>2018-07-07T18:28:54Z</time>
      </trkpt>
      <trkpt lat="49.40998" lon="0.84436">
        <ele>12.15</ele>
        <time>2018-07-07T18:28:59Z</time>
      </trkpt>
      <trkpt lat="49.40999" lon="0.8444">
        <ele>12.15</ele>
        <time>2018-07-07T18:29:00Z</time>
      </trkpt>
      <trkpt lat="49.41003" lon="0.84443">
        <ele>12.15</ele>
        <time>2018-07-07T18:29:01Z</time>
      </trkpt>
      <trkpt lat="49.41064" lon="0.84498">
        <ele>13.12</ele>
        <time>2018-07-07T18:29:18Z</time>
      </trkpt>
      <trkpt lat="49.41074" lon="0.84508">
        <ele>13.6</ele>
        <time>2018-07-07T18:29:21Z</time>
      </trkpt>
      <trkpt lat="49.41077" lon="0.84511">
        <ele>13.6</ele>
        <time>2018-07-07T18:29:22Z</time>
      </trkpt>
      <trkpt lat="49.41116" lon="0.84553">
        <ele>14.56</ele>
        <time>2018-07-07T18:29:35Z</time>
      </trkpt>
      <trkpt lat="49.41116" lon="0.84556">
        <ele>14.56</ele>
        <time>2018-07-07T18:29:36Z</time>
      </trkpt>
      <trkpt lat="49.41114" lon="0.8456">
        <ele>14.56</ele>
        <time>2018-07-07T18:29:37Z</time>
      </trkpt>
      <trkpt lat="49.41113" lon="0.84562">
        <ele>14.56</ele>
        <time>2018-07-07T18:29:38Z</time>
      </trkpt>
      <trkpt lat="49.41111" lon="0.84567">
        <ele>14.56</ele>
        <time>2018-07-07T18:29:39Z</time>
      </trkpt>
      <trkpt lat="49.4111" lon="0.84571">
        <ele>14.56</ele>
        <time>2018-07-07T18:29:40Z</time>
      </trkpt>
      <trkpt lat="49.41109" lon="0.84576">
        <ele>14.56</ele>
        <time>2018-07-07T18:29:41Z</time>
      </trkpt>
      <trkpt lat="49.41108" lon="0.84592">
        <ele>14.56</ele>
        <time>2018-07-07T18:29:44Z</time>
      </trkpt>
      <trkpt lat="49.4111" lon="0.84597">
        <ele>14.56</ele>
        <time>2018-07-07T18:29:45Z</time>
      </trkpt>
      <trkpt lat="49.41113" lon="0.84601">
        <ele>15.04</ele>
        <time>2018-07-07T18:29:46Z</time>
      </trkpt>
      <trkpt lat="49.41151" lon="0.84635">
        <ele>16</ele>
        <time>2018-07-07T18:29:58Z</time>
      </trkpt>
      <trkpt lat="49.41166" lon="0.84641">
        <ele>16.48</ele>
        <time>2018-07-07T18:30:03Z</time>
      </trkpt>
      <trkpt lat="49.41168" lon="0.84646">
        <ele>16.48</ele>
        <time>2018-07-07T18:30:04Z</time>
      </trkpt>
      <trkpt lat="49.41169" lon="0.84651">
        <ele>16.48</ele>
        <time>2018-07-07T18:30:05Z</time>
      </trkpt>
      <trkpt lat="49.4117" lon="0.84657">
        <ele>16.48</ele>
        <time>2018-07-07T18:30:06Z</time>
      </trkpt>
      <trkpt lat="49.4117" lon="0.84662">
        <ele>16.48</ele>
        <time>2018-07-07T18:30:07Z</time>
      </trkpt>
      <trkpt lat="49.41168" lon="0.84668">
        <ele>16.48</ele>
        <time>2018-07-07T18:30:08Z</time>
      </trkpt>
      <trkpt lat="49.41167" lon="0.84673">
        <ele>16.48</ele>
        <time>2018-07-07T18:30:09Z</time>
      </trkpt>
      <trkpt lat="49.41165" lon="0.84679">
        <ele>16.48</ele>
        <time>2018-07-07T18:30:10Z</time>
      </trkpt>
      <trkpt lat="49.4113" lon="0.84768">
        <ele>19.36</ele>
        <time>2018-07-07T18:30:27Z</time>
      </trkpt>
      <trkpt lat="49.41103" lon="0.84847">
        <ele>20.81</ele>
        <time>2018-07-07T18:30:41Z</time>
      </trkpt>
      <trkpt lat="49.41062" lon="0.84963">
        <ele>20.81</ele>
        <time>2018-07-07T18:30:57Z</time>
      </trkpt>
      <trkpt lat="49.41007" lon="0.8509">
        <ele>19.84</ele>
        <time>2018-07-07T18:31:13Z</time>
      </trkpt>
      <trkpt lat="49.40959" lon="0.85234">
        <ele>17.92</ele>
        <time>2018-07-07T18:31:29Z</time>
      </trkpt>
      <trkpt lat="49.40935" lon="0.85366">
        <ele>14.08</ele>
        <time>2018-07-07T18:31:41Z</time>
      </trkpt>
      <trkpt lat="49.40934" lon="0.85392">
        <ele>13.12</ele>
        <time>2018-07-07T18:31:43Z</time>
      </trkpt>
      <trkpt lat="49.40935" lon="0.85407">
        <ele>13.12</ele>
        <time>2018-07-07T18:31:44Z</time>
      </trkpt>
      <trkpt lat="49.40955" lon="0.85498">
        <ele>9.75</ele>
        <time>2018-07-07T18:31:51Z</time>
      </trkpt>
      <trkpt lat="49.40966" lon="0.85536">
        <ele>8.79</ele>
        <time>2018-07-07T18:31:54Z</time>
      </trkpt>
      <trkpt lat="49.40972" lon="0.85547">
        <ele>8.31</ele>
        <time>2018-07-07T18:31:55Z</time>
      </trkpt>
      <trkpt lat="49.41026" lon="0.85635">
        <ele>7.35</ele>
        <time>2018-07-07T18:32:05Z</time>
      </trkpt>
      <trkpt lat="49.41032" lon="0.85641">
        <ele>7.35</ele>
        <time>2018-07-07T18:32:06Z</time>
      </trkpt>
      <trkpt lat="49.41144" lon="0.85738">
        <ele>7.35</ele>
        <time>2018-07-07T18:32:25Z</time>
      </trkpt>
      <trkpt lat="49.41182" lon="0.85763">
        <ele>7.35</ele>
        <time>2018-07-07T18:32:32Z</time>
      </trkpt>
      <trkpt lat="49.41188" lon="0.85764">
        <ele>7.35</ele>
        <time>2018-07-07T18:32:33Z</time>
      </trkpt>
      <trkpt lat="49.41193" lon="0.85765">
        <ele>7.35</ele>
        <time>2018-07-07T18:32:34Z</time>
      </trkpt>
      <trkpt lat="49.41212" lon="0.85767">
        <ele>7.35</ele>
        <time>2018-07-07T18:32:43Z</time>
      </trkpt>
      <trkpt lat="49.41212" lon="0.85767">
        <ele>7.35</ele>
        <time>2018-07-07T18:32:51Z</time>
      </trkpt>
      <trkpt lat="49.41213" lon="0.85769">
        <ele>7.35</ele>
        <time>2018-07-07T18:32:52Z</time>
      </trkpt>
      <trkpt lat="49.41214" lon="0.85771">
        <ele>7.35</ele>
        <time>2018-07-07T18:32:53Z</time>
      </trkpt>
      <trkpt lat="49.41214" lon="0.85774">
        <ele>6.87</ele>
        <time>2018-07-07T18:32:54Z</time>
      </trkpt>
      <trkpt lat="49.41214" lon="0.85776">
        <ele>6.87</ele>
        <time>2018-07-07T18:32:55Z</time>
      </trkpt>
      <trkpt lat="49.41213" lon="0.85779">
        <ele>6.87</ele>
        <time>2018-07-07T18:32:56Z</time>
      </trkpt>
      <trkpt lat="49.41212" lon="0.8578">
        <ele>6.87</ele>
        <time>2018-07-07T18:32:57Z</time>
      </trkpt>
      <trkpt lat="49.41211" lon="0.85781">
        <ele>6.87</ele>
        <time>2018-07-07T18:32:58Z</time>
      </trkpt>
      <trkpt lat="49.4121" lon="0.8578">
        <ele>6.87</ele>
        <time>2018-07-07T18:32:59Z</time>
      </trkpt>
      <trkpt lat="49.4121" lon="0.85778">
        <ele>6.87</ele>
        <time>2018-07-07T18:33:00Z</time>
      </trkpt>
      <trkpt lat="49.41209" lon="0.85777">
        <ele>6.87</ele>
        <time>2018-07-07T18:33:01Z</time>
      </trkpt>
      <trkpt lat="49.41206" lon="0.85781">
        <ele>6.87</ele>
        <time>2018-07-07T18:33:04Z</time>
      </trkpt>
      <trkpt lat="49.41206" lon="0.85786">
        <ele>6.87</ele>
        <time>2018-07-07T18:33:05Z</time>
      </trkpt>
      <trkpt lat="49.41206" lon="0.8579">
        <ele>6.87</ele>
        <time>2018-07-07T18:33:06Z</time>
      </trkpt>
      <trkpt lat="49.41207" lon="0.85796">
        <ele>6.87</ele>
        <time>2018-07-07T18:33:07Z</time>
      </trkpt>
      <trkpt lat="49.41208" lon="0.85802">
        <ele>6.87</ele>
        <time>2018-07-07T18:33:08Z</time>
      </trkpt>
      <trkpt lat="49.41208" lon="0.85808">
        <ele>6.87</ele>
        <time>2018-07-07T18:33:09Z</time>
      </trkpt>
      <trkpt lat="49.41207" lon="0.85816">
        <ele>6.87</ele>
        <time>2018-07-07T18:33:10Z</time>
      </trkpt>
      <trkpt lat="49.41206" lon="0.85831">
        <ele>6.87</ele>
        <time>2018-07-07T18:33:12Z</time>
      </trkpt>
      <trkpt lat="49.41198" lon="0.8597">
        <ele>6.87</ele>
        <time>2018-07-07T18:33:29Z</time>
      </trkpt>
      <trkpt lat="49.41204" lon="0.86124">
        <ele>6.87</ele>
        <time>2018-07-07T18:33:47Z</time>
      </trkpt>
      <trkpt lat="49.41217" lon="0.86264">
        <ele>7.83</ele>
        <time>2018-07-07T18:34:03Z</time>
      </trkpt>
      <trkpt lat="49.41258" lon="0.86428">
        <ele>7.83</ele>
        <time>2018-07-07T18:34:23Z</time>
      </trkpt>
      <trkpt lat="49.41305" lon="0.86584">
        <ele>8.31</ele>
        <time>2018-07-07T18:34:42Z</time>
      </trkpt>
      <trkpt lat="49.41331" lon="0.86645">
        <ele>8.31</ele>
        <time>2018-07-07T18:34:50Z</time>
      </trkpt>
      <trkpt lat="49.41336" lon="0.86651">
        <ele>8.31</ele>
        <time>2018-07-07T18:34:51Z</time>
      </trkpt>
      <trkpt lat="49.41351" lon="0.86664">
        <ele>8.31</ele>
        <time>2018-07-07T18:34:54Z</time>
      </trkpt>
      <trkpt lat="49.41356" lon="0.86666">
        <ele>8.31</ele>
        <time>2018-07-07T18:34:55Z</time>
      </trkpt>
      <trkpt lat="49.41367" lon="0.86669">
        <ele>8.31</ele>
        <time>2018-07-07T18:34:57Z</time>
      </trkpt>
      <trkpt lat="49.41373" lon="0.86669">
        <ele>8.31</ele>
        <time>2018-07-07T18:34:58Z</time>
      </trkpt>
      <trkpt lat="49.41454" lon="0.8664">
        <ele>8.31</ele>
        <time>2018-07-07T18:35:13Z</time>
      </trkpt>
      <trkpt lat="49.41568" lon="0.86593">
        <ele>8.79</ele>
        <time>2018-07-07T18:35:34Z</time>
      </trkpt>
      <trkpt lat="49.41683" lon="0.86547">
        <ele>8.79</ele>
        <time>2018-07-07T18:35:56Z</time>
      </trkpt>
      <trkpt lat="49.41764" lon="0.86509">
        <ele>8.79</ele>
        <time>2018-07-07T18:36:12Z</time>
      </trkpt>
      <trkpt lat="49.41856" lon="0.86461">
        <ele>8.79</ele>
        <time>2018-07-07T18:36:30Z</time>
      </trkpt>
      <trkpt lat="49.41951" lon="0.86414">
        <ele>8.79</ele>
        <time>2018-07-07T18:36:48Z</time>
      </trkpt>
      <trkpt lat="49.42046" lon="0.86365">
        <ele>8.79</ele>
        <time>2018-07-07T18:37:06Z</time>
      </trkpt>
      <trkpt lat="49.42164" lon="0.86306">
        <ele>8.79</ele>
        <time>2018-07-07T18:37:28Z</time>
      </trkpt>
      <trkpt lat="49.42169" lon="0.86303">
        <ele>8.79</ele>
        <time>2018-07-07T18:37:29Z</time>
      </trkpt>
      <trkpt lat="49.42174" lon="0.86301">
        <ele>8.31</ele>
        <time>2018-07-07T18:37:30Z</time>
      </trkpt>
      <trkpt lat="49.42196" lon="0.8629">
        <ele>7.35</ele>
        <time>2018-07-07T18:37:34Z</time>
      </trkpt>
      <trkpt lat="49.42312" lon="0.8623">
        <ele>7.35</ele>
        <time>2018-07-07T18:37:56Z</time>
      </trkpt>
      <trkpt lat="49.42412" lon="0.86179">
        <ele>7.35</ele>
        <time>2018-07-07T18:38:15Z</time>
      </trkpt>
      <trkpt lat="49.42499" lon="0.86136">
        <ele>7.35</ele>
        <time>2018-07-07T18:38:31Z</time>
      </trkpt>
      <trkpt lat="49.42602" lon="0.86089">
        <ele>7.35</ele>
        <time>2018-07-07T18:38:50Z</time>
      </trkpt>
      <trkpt lat="49.42704" lon="0.86045">
        <ele>7.35</ele>
        <time>2018-07-07T18:39:09Z</time>
      </trkpt>
      <trkpt lat="49.42827" lon="0.85997">
        <ele>7.35</ele>
        <time>2018-07-07T18:39:31Z</time>
      </trkpt>
      <trkpt lat="49.42955" lon="0.85947">
        <ele>7.35</ele>
        <time>2018-07-07T18:39:54Z</time>
      </trkpt>
      <trkpt lat="49.43047" lon="0.85911">
        <ele>7.35</ele>
        <time>2018-07-07T18:40:11Z</time>
      </trkpt>
      <trkpt lat="49.4315" lon="0.85871">
        <ele>7.35</ele>
        <time>2018-07-07T18:40:30Z</time>
      </trkpt>
      <trkpt lat="49.43244" lon="0.85836">
        <ele>7.35</ele>
        <time>2018-07-07T18:40:47Z</time>
      </trkpt>
      <trkpt lat="49.43379" lon="0.85794">
        <ele>7.35</ele>
        <time>2018-07-07T18:41:11Z</time>
      </trkpt>
      <trkpt lat="49.43489" lon="0.85763">
        <ele>6.87</ele>
        <time>2018-07-07T18:41:31Z</time>
      </trkpt>
      <trkpt lat="49.43598" lon="0.85732">
        <ele>6.87</ele>
        <time>2018-07-07T18:41:50Z</time>
      </trkpt>
      <trkpt lat="49.43696" lon="0.85705">
        <ele>6.87</ele>
        <time>2018-07-07T18:42:07Z</time>
      </trkpt>
      <trkpt lat="49.438" lon="0.8568">
        <ele>6.87</ele>
        <time>2018-07-07T18:42:25Z</time>
      </trkpt>
      <trkpt lat="49.43916" lon="0.8566">
        <ele>6.87</ele>
        <time>2018-07-07T18:42:45Z</time>
      </trkpt>
      <trkpt lat="49.4402" lon="0.85645">
        <ele>6.87</ele>
        <time>2018-07-07T18:43:03Z</time>
      </trkpt>
      <trkpt lat="49.44133" lon="0.8563">
        <ele>6.87</ele>
        <time>2018-07-07T18:43:23Z</time>
      </trkpt>
      <trkpt lat="49.44232" lon="0.8562">
        <ele>6.87</ele>
        <time>2018-07-07T18:43:40Z</time>
      </trkpt>
      <trkpt lat="49.44341" lon="0.8561">
        <ele>6.87</ele>
        <time>2018-07-07T18:43:59Z</time>
      </trkpt>
      <trkpt lat="49.44474" lon="0.85597">
        <ele>6.87</ele>
        <time>2018-07-07T18:44:22Z</time>
      </trkpt>
      <trkpt lat="49.44587" lon="0.85585">
        <ele>6.87</ele>
        <time>2018-07-07T18:44:42Z</time>
      </trkpt>
      <trkpt lat="49.44693" lon="0.85561">
        <ele>6.87</ele>
        <time>2018-07-07T18:45:01Z</time>
      </trkpt>
      <trkpt lat="49.44781" lon="0.8554">
        <ele>6.87</ele>
        <time>2018-07-07T18:45:17Z</time>
      </trkpt>
      <trkpt lat="49.44901" lon="0.85526">
        <ele>6.87</ele>
        <time>2018-07-07T18:45:38Z</time>
      </trkpt>
      <trkpt lat="49.45009" lon="0.85522">
        <ele>6.87</ele>
        <time>2018-07-07T18:45:57Z</time>
      </trkpt>
      <trkpt lat="49.45048" lon="0.85518">
        <ele>6.87</ele>
        <time>2018-07-07T18:46:04Z</time>
      </trkpt>
      <trkpt lat="49.45158" lon="0.85492">
        <ele>6.87</ele>
        <time>2018-07-07T18:46:24Z</time>
      </trkpt>
      <trkpt lat="49.45267" lon="0.85475">
        <ele>6.87</ele>
        <time>2018-07-07T18:46:43Z</time>
      </trkpt>
      <trkpt lat="49.45363" lon="0.85474">
        <ele>6.87</ele>
        <time>2018-07-07T18:47:00Z</time>
      </trkpt>
      <trkpt lat="49.45455" lon="0.85472">
        <ele>6.87</ele>
        <time>2018-07-07T18:47:16Z</time>
      </trkpt>
      <trkpt lat="49.45551" lon="0.85477">
        <ele>6.87</ele>
        <time>2018-07-07T18:47:33Z</time>
      </trkpt>
      <trkpt lat="49.45643" lon="0.8549">
        <ele>6.39</ele>
        <time>2018-07-07T18:47:49Z</time>
      </trkpt>
      <trkpt lat="49.45734" lon="0.85511">
        <ele>6.39</ele>
        <time>2018-07-07T18:48:05Z</time>
      </trkpt>
      <trkpt lat="49.45827" lon="0.85534">
        <ele>6.39</ele>
        <time>2018-07-07T18:48:21Z</time>
      </trkpt>
      <trkpt lat="49.45938" lon="0.85562">
        <ele>6.39</ele>
        <time>2018-07-07T18:48:40Z</time>
      </trkpt>
      <trkpt lat="49.46051" lon="0.85586">
        <ele>6.39</ele>
        <time>2018-07-07T18:49:00Z</time>
      </trkpt>
      <trkpt lat="49.46156" lon="0.85617">
        <ele>6.39</ele>
        <time>2018-07-07T18:49:18Z</time>
      </trkpt>
      <trkpt lat="49.46256" lon="0.85673">
        <ele>6.39</ele>
        <time>2018-07-07T18:49:36Z</time>
      </trkpt>
      <trkpt lat="49.4635" lon="0.85725">
        <ele>6.39</ele>
        <time>2018-07-07T18:49:53Z</time>
      </trkpt>
      <trkpt lat="49.46438" lon="0.85764">
        <ele>6.39</ele>
        <time>2018-07-07T18:50:09Z</time>
      </trkpt>
      <trkpt lat="49.46495" lon="0.85789">
        <ele>6.39</ele>
        <time>2018-07-07T18:50:19Z</time>
      </trkpt>
      <trkpt lat="49.46609" lon="0.85838">
        <ele>6.39</ele>
        <time>2018-07-07T18:50:39Z</time>
      </trkpt>
      <trkpt lat="49.46727" lon="0.85889">
        <ele>6.39</ele>
        <time>2018-07-07T18:51:00Z</time>
      </trkpt>
      <trkpt lat="49.46818" lon="0.85963">
        <ele>6.39</ele>
        <time>2018-07-07T18:51:17Z</time>
      </trkpt>
      <trkpt lat="49.46913" lon="0.86048">
        <ele>6.39</ele>
        <time>2018-07-07T18:51:35Z</time>
      </trkpt>
      <trkpt lat="49.46998" lon="0.86114">
        <ele>6.39</ele>
        <time>2018-07-07T18:51:51Z</time>
      </trkpt>
      <trkpt lat="49.47018" lon="0.86126">
        <ele>6.39</ele>
        <time>2018-07-07T18:51:55Z</time>
      </trkpt>
      <trkpt lat="49.47022" lon="0.8613">
        <ele>6.39</ele>
        <time>2018-07-07T18:51:56Z</time>
      </trkpt>
      <trkpt lat="49.47025" lon="0.86136">
        <ele>6.39</ele>
        <time>2018-07-07T18:51:57Z</time>
      </trkpt>
      <trkpt lat="49.47038" lon="0.86158">
        <ele>6.39</ele>
        <time>2018-07-07T18:52:01Z</time>
      </trkpt>
      <trkpt lat="49.4711" lon="0.86226">
        <ele>5.91</ele>
        <time>2018-07-07T18:52:16Z</time>
      </trkpt>
      <trkpt lat="49.47209" lon="0.86315">
        <ele>5.91</ele>
        <time>2018-07-07T18:52:36Z</time>
      </trkpt>
      <trkpt lat="49.47299" lon="0.86396">
        <ele>5.91</ele>
        <time>2018-07-07T18:52:54Z</time>
      </trkpt>
      <trkpt lat="49.47385" lon="0.86476">
        <ele>5.91</ele>
        <time>2018-07-07T18:53:11Z</time>
      </trkpt>
      <trkpt lat="49.47483" lon="0.86579">
        <ele>5.91</ele>
        <time>2018-07-07T18:53:31Z</time>
      </trkpt>
      <trkpt lat="49.47587" lon="0.86689">
        <ele>5.91</ele>
        <time>2018-07-07T18:53:52Z</time>
      </trkpt>
      <trkpt lat="49.47684" lon="0.86792">
        <ele>5.91</ele>
        <time>2018-07-07T18:54:12Z</time>
      </trkpt>
      <trkpt lat="49.47764" lon="0.8688">
        <ele>5.91</ele>
        <time>2018-07-07T18:54:29Z</time>
      </trkpt>
      <trkpt lat="49.47838" lon="0.86981">
        <ele>5.91</ele>
        <time>2018-07-07T18:54:46Z</time>
      </trkpt>
      <trkpt lat="49.47858" lon="0.87016">
        <ele>4.94</ele>
        <time>2018-07-07T18:54:52Z</time>
      </trkpt>
      <trkpt lat="49.47875" lon="0.87045">
        <ele>4.94</ele>
        <time>2018-07-07T18:54:58Z</time>
      </trkpt>
      <trkpt lat="49.4789" lon="0.87057">
        <ele>4.94</ele>
        <time>2018-07-07T18:55:02Z</time>
      </trkpt>
      <trkpt lat="49.47907" lon="0.87064">
        <ele>4.94</ele>
        <time>2018-07-07T18:55:07Z</time>
      </trkpt>
      <trkpt lat="49.47911" lon="0.87074">
        <ele>5.42</ele>
        <time>2018-07-07T18:55:09Z</time>
      </trkpt>
      <trkpt lat="49.47957" lon="0.8717">
        <ele>6.39</ele>
        <time>2018-07-07T18:55:25Z</time>
      </trkpt>
      <trkpt lat="49.48014" lon="0.87294">
        <ele>6.39</ele>
        <time>2018-07-07T18:55:43Z</time>
      </trkpt>
      <trkpt lat="49.48066" lon="0.87409">
        <ele>6.39</ele>
        <time>2018-07-07T18:56:00Z</time>
      </trkpt>
      <trkpt lat="49.4809" lon="0.87493">
        <ele>6.39</ele>
        <time>2018-07-07T18:56:13Z</time>
      </trkpt>
      <trkpt lat="49.48092" lon="0.875">
        <ele>6.39</ele>
        <time>2018-07-07T18:56:14Z</time>
      </trkpt>
      <trkpt lat="49.48094" lon="0.87507">
        <ele>6.39</ele>
        <time>2018-07-07T18:56:15Z</time>
      </trkpt>
      <trkpt lat="49.48119" lon="0.87581">
        <ele>5.42</ele>
        <time>2018-07-07T18:56:29Z</time>
      </trkpt>
      <trkpt lat="49.48126" lon="0.87604">
        <ele>5.42</ele>
        <time>2018-07-07T18:56:34Z</time>
      </trkpt>
      <trkpt lat="49.48128" lon="0.87603">
        <ele>5.42</ele>
        <time>2018-07-07T18:56:35Z</time>
      </trkpt>
      <trkpt lat="49.4813" lon="0.87601">
        <ele>5.42</ele>
        <time>2018-07-07T18:56:36Z</time>
      </trkpt>
      <trkpt lat="49.48129" lon="0.87597">
        <ele>5.42</ele>
        <time>2018-07-07T18:56:37Z</time>
      </trkpt>
      <trkpt lat="49.48128" lon="0.87594">
        <ele>5.42</ele>
        <time>2018-07-07T18:56:38Z</time>
      </trkpt>
      <trkpt lat="49.48123" lon="0.87573">
        <ele>5.42</ele>
        <time>2018-07-07T18:56:48Z</time>
      </trkpt>
      <trkpt lat="49.48122" lon="0.8757">
        <ele>5.42</ele>
        <time>2018-07-07T18:57:01Z</time>
      </trkpt>
      <trkpt lat="49.4812" lon="0.8757">
        <ele>5.42</ele>
        <time>2018-07-07T18:57:28Z</time>
      </trkpt>
      <trkpt lat="49.4812" lon="0.8757">
        <ele>5.42</ele>
        <time>2018-07-07T18:57:55Z</time>
      </trkpt>
      <trkpt lat="49.48118" lon="0.87573">
        <ele>5.42</ele>
        <time>2018-07-07T18:58:19Z</time>
      </trkpt>
      <trkpt lat="49.48119" lon="0.87574">
        <ele>4.94</ele>
        <time>2018-07-07T18:58:41Z</time>
      </trkpt>
      <trkpt lat="49.48121" lon="0.87573">
        <ele>4.94</ele>
        <time>2018-07-07T18:59:02Z</time>
      </trkpt>
      <trkpt lat="49.48119" lon="0.87573">
        <ele>4.94</ele>
        <time>2018-07-07T18:59:28Z</time>
      </trkpt>
      <trkpt lat="49.48117" lon="0.87575">
        <ele>4.94</ele>
        <time>2018-07-07T18:59:57Z</time>
      </trkpt>
      <trkpt lat="49.48115" lon="0.87578">
        <ele>4.94</ele>
        <time>2018-07-07T19:00:20Z</time>
      </trkpt>
      <trkpt lat="49.48114" lon="0.87581">
        <ele>4.46</ele>
        <time>2018-07-07T19:00:55Z</time>
      </trkpt>
      <trkpt lat="49.48116" lon="0.8758">
        <ele>4.46</ele>
        <time>2018-07-07T19:01:21Z</time>
      </trkpt>
      <trkpt lat="49.48098" lon="0.87593">
        <ele>3.98</ele>
        <time>2018-07-07T19:02:00Z</time>
      </trkpt>
      <trkpt lat="49.48104" lon="0.8759">
        <ele>3.98</ele>
        <time>2018-07-07T19:02:35Z</time>
      </trkpt>
      <trkpt lat="49.48105" lon="0.87587">
        <ele>3.98</ele>
        <time>2018-07-07T19:03:08Z</time>
      </trkpt>
      <trkpt lat="49.48104" lon="0.87587">
        <ele>3.98</ele>
        <time>2018-07-07T19:03:37Z</time>
      </trkpt>
      <trkpt lat="49.4811" lon="0.87584">
        <ele>3.98</ele>
        <time>2018-07-07T19:04:09Z</time>
      </trkpt>
      <trkpt lat="49.48112" lon="0.87582">
        <ele>3.98</ele>
        <time>2018-07-07T19:04:27Z</time>
      </trkpt>
      <trkpt lat="49.4811" lon="0.87582">
        <ele>3.98</ele>
        <time>2018-07-07T19:04:52Z</time>
      </trkpt>
      <trkpt lat="49.48113" lon="0.87579">
        <ele>3.98</ele>
        <time>2018-07-07T19:05:07Z</time>
      </trkpt>
      <trkpt lat="49.48112" lon="0.87578">
        <ele>3.98</ele>
        <time>2018-07-07T19:05:22Z</time>
      </trkpt>
      <trkpt lat="49.48113" lon="0.87576">
        <ele>3.98</ele>
        <time>2018-07-07T19:05:35Z</time>
      </trkpt>
      <trkpt lat="49.48113" lon="0.87575">
        <ele>3.98</ele>
        <time>2018-07-07T19:05:57Z</time>
      </trkpt>
      <trkpt lat="49.48113" lon="0.87574">
        <ele>3.98</ele>
        <time>2018-07-07T19:06:17Z</time>
      </trkpt>
      <trkpt lat="49.48113" lon="0.87574">
        <ele>3.98</ele>
        <time>2018-07-07T19:06:38Z</time>
      </trkpt>
      <trkpt lat="49.4811" lon="0.87573">
        <ele>3.5</ele>
        <time>2018-07-07T19:07:07Z</time>
      </trkpt>
      <trkpt lat="49.48111" lon="0.87571">
        <ele>3.5</ele>
        <time>2018-07-07T19:07:22Z</time>
      </trkpt>
      <trkpt lat="49.48112" lon="0.87571">
        <ele>3.5</ele>
        <time>2018-07-07T19:07:50Z</time>
      </trkpt>
      <trkpt lat="49.48111" lon="0.87576">
        <ele>3.98</ele>
        <time>2018-07-07T19:08:19Z</time>
      </trkpt>
      <trkpt lat="49.48111" lon="0.87576">
        <ele>3.98</ele>
        <time>2018-07-07T19:08:46Z</time>
      </trkpt>
      <trkpt lat="49.48114" lon="0.87576">
        <ele>3.98</ele>
        <time>2018-07-07T19:09:16Z</time>
      </trkpt>
      <trkpt lat="49.48115" lon="0.87578">
        <ele>3.98</ele>
        <time>2018-07-07T19:09:33Z</time>
      </trkpt>
      <trkpt lat="49.48114" lon="0.87577">
        <ele>3.5</ele>
        <time>2018-07-07T19:09:58Z</time>
      </trkpt>
    </trkseg>
  </trk>
</gpx>